     2              OBSERVATION DATA    GPS                 RINEX VERSION / TYPE
teqc 2000Feb29 20030428 17:03:10UTC                         PGM / RUN BY / DATE
                                                            COMMENT
L2: 1 -> 1; 150 -> 5; 250 -> 9                              COMMENT
L2: 1 -> 1; 150 -> 5; 250 -> 9                              COMMENT
L2: 1 -> 1; 150 -> 5; 250 -> 9                              COMMENT
L2: 1 -> 1; 150 -> 5; 250 -> 9                              COMMENT
L2: 1 -> 1; 150 -> 5; 250 -> 9                              COMMENT
Original Marker Name: WDW2                                  COMMENT
Campaign Name: Rose Canyon                                  COMMENT
4-Character Station Name: WDW2                              COMMENT
6-Character Antenna Code: DMRCHT                            COMMENT
Vertical Measurement Point: BCR                             COMMENT
Vertical Offset to Rinex Ref. Point: 0.0348                 COMMENT
Radial Measurement Point: ECF                               COMMENT
Radial Offset to Rinex Ref. Point: 0.1897                   COMMENT
Antenna Height from Field Measurement: 0.8900 m             COMMENT
Additional Antenna Identification Info.:                    COMMENT
Turborogue and Ashtech Choke Ring                           COMMENT
Original XYZ: -2459967.7007 -4776558.0451 3425747.7946      COMMENT
New XYZ position is based on association with SCEC monument COMMENT
E1C8O6J5+0021. Position of that monument is believed to be  COMMENT
valid to within 1 m horizontally; vertical accuracy         COMMENT
should be no worse than 3-times this value.                 COMMENT
                                                            COMMENT
Revised Rinex header created by UCSD GPS archive for        COMMENT
GSAC on 11-Jul-2003 (2003:192) 15:57:17 GMT                 COMMENT
For assistance contact dagnew@ucsd.edu                      COMMENT
or anderson@python.ucsd.edu                                 COMMENT
                                                            COMMENT
UCSD SIO IGPP WDW2 1999                                     MARKER NAME
SJB SCRIPPS INSTITUTION OF OCEANOGRAPHY                     OBSERVER / AGENCY
378 ASHTECH Z-XII3 CC00                                     REC # / TYPE / VERS
653 DORNE-MARGOL. TYPE T                                    ANT # / TYPE
 -2460282.7405 -4776075.0288  3426013.4810                  APPROX POSITION XYZ
        0.8347        0.0000        0.0000                  ANTENNA: DELTA H/E/N
     1     1     0                                          WAVELENGTH FACT L1/2
     7    C1    L1    L2    P1    P2    S1    S2            # / TYPES OF OBSERV
     0                                                      INTERVAL
  2003     4    15    17    37    0.000000                  TIME OF FIRST OBS
  2003     4    15    23    59   30.000000                  TIME OF LAST OBS
                                                            END OF HEADER
 03  4 15 17 37  0.0000000  0  5G24G30G 5G 6G10
  21787824.163       84828.49659     60634.31747  21787824.123    21787831.220
       237.000         196.000
  20853375.629     -248237.43259   -178747.09147  20853375.888    20853380.924
       244.000         208.000
  20323866.986      -69574.99559    -49313.60648  20323866.500    20323872.491
       247.000         217.000
  23153675.050     -263552.48159   -186570.79346  23153674.425    23153681.458
       219.000         163.000
  21329358.234     -248589.60759   -170934.99047  21329357.543    21329364.514
       238.000         198.000
 03  4 15 17 37 30.0000000  0  5G24G30G 5G 6G10
  21793548.928      114911.23149     84075.38947  21793548.870    21793555.501
       239.000         198.000
  20835602.611     -341634.09449   -251523.69647  20835603.142    20835608.299
       244.000         209.000
  20319198.492      -94105.65949    -68428.41948  20319198.402    20319204.341
       247.000         217.000
  23133374.665     -370236.43549   -269701.11046  23133374.188    23133379.972
       221.000         166.000
  21310887.677     -345652.02149   -246568.00547  21310887.450    21310893.864
       239.000         199.000
 03  4 15 17 38  0.0000000  0  5G24G30G 5G 6G10
  21809828.112    -1374961.92249  -1076864.74547  21809828.050    21809834.170
       239.000         198.000
  20828436.850    -1954710.94549  -1508466.68547  20828437.323    20828442.479
       244.000         210.000
  20325151.968    -1638240.87149  -1271650.67248  20325151.830    20325157.748
       247.000         217.000
  23123595.988    -1997044.89249  -1537343.99946  23123595.258    23123601.300
       222.000         168.000
  21303033.369    -1962346.65049  -1506330.02347  21303032.737    21303039.335
       237.000         199.000
 03  4 15 17 38 30.0000000  0  5G24G30G 5G 6G10
  21823382.999    -1303730.47249  -1021359.73447  21823382.717    21823389.120
       239.000         197.000
  20818600.201    -2006403.28849  -1548746.42747  20818600.893    20818605.844
       245.000         210.000
  20328448.519    -1620918.23849  -1258152.54048  20328448.378    20328454.430
       248.000         217.000
  23111060.679    -2062915.06549  -1588671.38046  23111059.377    23111067.420
       218.000         169.000
  21292517.326    -2017608.94449  -1549391.51347  21292516.498    21292523.276
       238.000         199.000
 03  4 15 17 39  0.0000000  0  5G24G30G 5G 6G10
  21836973.494    -1232312.21649   -965709.15847  21836973.598    21836979.456
       237.000         196.000
  20808853.107    -2057624.85049  -1588659.32447  20808853.740    20808858.499
       245.000         210.000
  20331848.181    -1603053.44649  -1244231.94348  20331847.965    20331853.797
       246.000         217.000
  23098530.192    -2128762.39749  -1639980.98246  23098531.050    23098536.851
       225.000         172.000
  21282100.103    -2072351.79149  -1592048.24847  21282099.459    21282106.422
       237.000         199.000
 03  4 15 17 39 30.0000000  0  5G24G30G 5G 6G10
  21850598.439    -1160712.67449   -909917.32347  21850598.266    21850604.454
       237.000         196.000
  20799195.407    -2108376.94949  -1628206.40447  20799196.016    20799200.846
       245.000         210.000
  20335350.309    -1584649.97549  -1229891.58748  20335350.050    20335356.053
       247.000         217.000
  23086003.771    -2194590.04949  -1691275.19546  23086003.233    23086008.995
       220.000         170.000
  21271781.538    -2126576.25949  -1634301.05747  21271781.202    21271788.025
       239.000         200.000
 03  4 15 17 40  0.0000000  0  6G24G30G 5G 6G 9G10
  21864257.935    -1088931.72449   -853984.13747  21864258.129    21864264.016
       237.000         195.000
  20789627.821    -2158655.11949  -1667384.18447  20789628.230    20789633.045
       244.000         210.000
  20338955.283    -1565705.69449  -1215129.83348  20338954.875    20338960.805
       246.000         217.000
  23073481.208    -2260395.44349  -1742552.09846  23073481.141    23073487.195
       221.000         169.000
                  -1214324.72859   -951017.49144                  24707831.587
       207.000         113.000
  21261562.552    -2180277.81149  -1676146.39147  21261562.177    21261568.868
       240.000         202.000
 03  4 15 17 40 30.0000000  0  6G24G30G 5G 6G 9G10
  21877951.119    -1016973.58049   -797912.88847  21877950.820    21877957.217
       236.000         195.000
  20780150.375    -2208459.42949  -1706192.73947  20780150.951    20780155.649
       244.000         210.000
  20342662.789    -1546222.83749  -1199948.40748  20342662.618    20342668.137
       247.000         217.000
  23060962.874    -2326180.31949  -1793813.00946  23060963.008    23060969.318
       221.000         171.000
  24725006.536    -1124025.34449   -880654.62745  24725004.845    24725015.827
       213.000         143.000
  21251443.176    -2233456.18549  -1717584.06247  21251442.772    21251449.290
       241.000         203.000
 03  4 15 17 41  0.0000000  0  6G24G30G 5G 6G 9G10
  21891677.678     -944840.32949   -741705.17847  21891677.507    21891683.976
       236.000         195.000
  20770763.579    -2257787.65149  -1744630.30547  20770764.029    20770769.024
       244.000         210.000
  20346472.742    -1526201.65149  -1184347.50548  20346472.620    20346478.078
       247.000         217.000
  23048448.415    -2391944.34749  -1845057.66746  23048449.430    23048454.635
       222.000         172.000
  24742169.834    -1033827.50749   -810370.88145  24742168.113    24742180.064
       213.000         148.000
  21241423.806    -2286108.81149  -1758612.04347  21241423.229    21241429.830
       240.000         202.000
 03  4 15 17 41 30.0000000  0  6G24G30G 5G 6G 9G10
  21905438.167     -872528.63649   -685358.42947  21905438.490    21905444.529
       237.000         195.000
  20761468.702    -2306632.48549  -1782691.21447  20761469.114    20761473.900
       244.000         210.000
  20350386.144    -1505637.03049  -1168323.15048  20350385.901    20350391.471
       247.000         217.000
  23035939.250    -2457681.88549  -1896281.67346  23035939.271    23035944.810
       224.000         172.000
  24759314.816     -943728.26949   -740163.94845  24759314.054    24759325.560
       212.000         146.000
  21231505.848    -2338228.13149  -1799224.47347  21231505.165    21231511.597
       240.000         202.000
 03  4 15 17 42  0.0000000  0  6G24G30G 5G 6G 9G10
  21919231.934     -800042.47349   -628875.72247  21919232.151    21919238.344
       237.000         195.000
  20752265.877    -2354993.84949  -1820375.39547  20752266.385    20752271.189
       244.000         210.000
  20354402.575    -1484530.90349  -1151876.83948  20354402.161    20354407.854
       247.000         217.000
  23023434.480    -2523394.44449  -1947486.23346  23023433.908    23023439.642
       221.000         172.000
  24776440.481     -853732.00549   -670037.25045  24776440.177    24776452.293
       213.000         145.000
  21221689.428    -2389813.85549  -1839421.10947  21221688.851    21221695.332
       240.000         202.000
 03  4 15 17 42 30.0000000  0  6G24G30G 5G 6G 9G10
  21933058.549     -727383.27949   -572258.18647  21933058.639    21933064.502
       236.000         195.000
  20743155.611    -2402868.84849  -1857680.58747  20743156.202    20743160.956
       244.000         210.000
  20358522.062    -1462882.74849  -1135008.16648  20358521.789    20358527.487
       247.000         217.000
  23010934.549    -2589080.97249  -1998670.51346  23010935.141    23010941.252
       223.000         172.000
  24793546.279     -763840.72249   -599992.37045  24793546.215    24793558.718
       211.000         145.000
  21211975.177    -2440862.76849  -1879199.44847  21211974.436    21211980.969
       240.000         202.000
 03  4 15 17 43  0.0000000  0  6G24G30G 5G 6G 9G10
  21946917.512     -654554.03549   -515508.14247  21946917.295    21946923.872
       236.000         194.000
  20734138.069    -2450256.41049  -1894605.95447  20734138.415    20734143.341
       244.000         210.000
  20362744.531    -1440693.64849  -1117717.97548  20362744.126    20362749.844
       247.000         217.000
  22998439.895    -2654741.84649  -2049834.78746  22998439.851    22998445.827
       222.000         173.000
  24810631.620     -674057.60649   -530031.77545  24810631.507    24810643.802
       212.000         144.000
  21202363.291    -2491373.53149  -1918558.45247  21202362.550    21202368.962
       240.000         202.000
 03  4 15 17 43 30.0000000  0  6G24G30G 5G 6G 9G10
  21960808.349     -581557.31649   -458627.59347  21960808.359    21960814.846
       236.000         194.000
  20725213.629    -2497154.90849  -1931150.23347  20725214.163    20725218.995
       244.000         211.000
  20367069.821    -1417964.28449  -1100006.80048  20367069.501    20367075.378
       246.000         217.000
  22985949.615    -2720377.08949  -2100979.11046  22985949.179    22985955.811
       221.000         173.000
  24827695.781     -584385.46949   -460157.63645  24827696.264    24827708.524
       213.000         144.000
  21192854.123    -2541344.33949  -1957496.71947  21192853.583    21192860.326
       240.000         202.000
 03  4 15 17 44  0.0000000  0  6G24G30G 5G 6G 9G10
  21974730.782     -508394.92449   -401617.95147  21974730.810    21974736.889
       236.000         193.000
  20716382.608    -2543562.06549  -1967311.65347  20716382.937    20716387.940
       244.000         211.000
  20371497.835    -1394694.80849  -1081874.76248  20371497.586    20371503.370
       247.000         217.000
  22973464.686    -2785986.21049  -2152103.05746  22973466.060    22973470.560
       223.000         173.000
  24844738.468     -494826.57749   -390371.77045  24844738.865    24844751.065
       212.000         145.000
  21183448.262    -2590772.63249  -1996012.25247  21183447.564    21183454.048
       239.000         202.000
 03  4 15 17 44 30.0000000  0  6G24G30G 5G 6G 9G10
  21988684.292     -435068.95449   -344480.84347  21988684.171    21988690.834
       236.000         193.000
  20707645.431    -2589476.06949  -2003088.79647  20707645.725    20707650.898
       243.000         211.000
  20376028.685    -1370885.48549  -1063322.06348  20376028.499    20376033.988
       247.000         217.000
  22960984.862    -2851568.99649  -2203206.49546  22960984.921    22960991.637
       223.000         174.000
  24861759.102     -405383.68349   -320676.28645  24861759.222    24861771.201
       213.000         146.000
  21174145.942    -2639656.61149  -2034103.64247  21174145.094    21174151.756
       239.000         202.000
 03  4 15 17 45  0.0000000  0  6G24G30G 5G 6G 9G10
  22002668.554     -361581.28649   -287217.74447  22002668.530    22002674.835
       235.000         193.000
  20699002.499    -2634894.80249  -2038480.01247  20699002.859    20699008.050
       244.000         211.000
  20380662.198    -1346536.55049  -1044348.88848  20380661.911    20380667.641
       246.000         217.000
  22948509.876    -2917124.97049  -2254289.05546  22948509.747    22948516.780
       222.000         174.000
  24878757.135     -316059.16949   -251073.03845  24878757.245    24878769.998
       212.000         146.000
  21164947.583    -2687994.08749  -2071769.17547  21164946.832    21164953.432
       238.000         201.000
 03  4 15 17 45 30.0000000  0  6G24G30G 5G 6G 9G10
  22016683.110     -287934.26949   -229830.47647  22016683.137    22016689.522
       236.000         193.000
  20690454.185    -2679816.60649  -2073484.00847  20690454.726    20690459.691
       244.000         211.000
  20385398.224    -1321648.70149  -1024955.77848  20385398.003    20385403.742
       247.000         217.000
  22936040.167    -2982653.77249  -2305350.42546  22936040.689    22936045.822
       224.000         175.000
  24895732.166     -226855.55249   -181563.99545  24895732.063    24895745.369
       211.000         145.000
  21155853.650    -2735782.68249  -2109007.00647  21155852.778    21155859.633
       239.000         201.000
 03  4 15 17 46  0.0000000  0  6G24G30G 5G 6G 9G10
  22030727.780     -214129.40549   -172320.21247  22030727.575    22030734.216
       236.000         194.000
  20682000.857    -2724239.12849  -2108098.95547  20682001.268    20682006.128
       244.000         211.000
  20390236.830    -1296221.87149  -1005142.68448  20390236.443    20390242.198
       246.000         216.000
  22923575.842    -3048154.70249  -2356390.09246  22923575.199    22923581.751
       222.000         174.000
  24912683.571     -137775.59459   -112151.31245  24912683.438    24912696.245
       209.000         141.000
  21146864.745    -2783019.67749  -2145815.01847  21146864.161    21146870.456
       239.000         202.000
 03  4 15 17 46 30.0000000  0  6G24G30G 5G 6G 9G10
  22044801.974     -140168.97649   -114688.71647  22044801.991    22044808.355
       236.000         194.000
  20673642.982    -2768160.34949  -2142323.28247  20673643.534    20673648.309
       244.000         211.000
  20395177.892    -1270256.42449   -984909.88948  20395177.592    20395183.412
       246.000         216.000
  22911116.712    -3113627.31349  -2407407.67946  22911115.645    22911122.763
       224.000         175.000
  24929611.110      -48821.11859    -42836.64345  24929611.849    24929621.363
       208.000         139.000
  21137981.217    -2829703.23049  -2182191.77747  21137980.471    21137987.015
       239.000         202.000
 03  4 15 17 47  0.0000000  0  6G24G30G 5G 6G 9G10
  22058905.191      -66056.33549    -56938.61947  22058905.368    22058911.511
       237.000         193.000
  20665380.589    -2811579.69449  -2176156.53447  20665381.344    20665385.888
       245.000         211.000
  20400221.097    -1243754.20349   -964258.82448  20400220.941    20400226.549
       247.000         216.000
  22898662.752    -3179072.57949  -2458403.96546  22898662.536    22898668.428
       222.000         175.000
  24946514.098       40004.50949     26377.87845  24946514.417    24946528.056
       209.000         139.000
  21129203.059    -2875832.86149  -2218136.91147  21129202.248    21129209.025
       239.000         202.000
 03  4 15 17 47 30.0000000  0  6G24G30G 5G 6G 9G10
  22073037.441        8208.92849       930.39747  22073037.344    22073044.069
       235.000         193.000
  20657214.493    -2854493.23949  -2209595.66147  20657215.058    20657219.772
       245.000         212.000
  20405366.858    -1216713.43049   -943188.11648  20405366.729    20405372.484
       247.000         217.000
  22886214.644    -3244487.74249  -2509376.79346  22886214.943    22886221.157
       224.000         175.000
  24963392.429      128700.49149     95491.36345  24963393.272    24963405.582
       206.000         139.000
  21120531.063    -2921404.20349  -2253647.02447  21120530.481    21120536.849
       239.000         202.000
 03  4 15 17 48  0.0000000  0  6G24G30G 5G 6G 9G10
  22087197.977       82623.05649     58915.41147  22087197.591    22087204.441
       235.000         192.000
  20649144.676    -2896900.58049  -2242640.34247  20649145.244    20649150.030
       244.000         212.000
  20410614.743    -1189136.03349   -921699.26248  20410614.506    20410620.238
       247.000         217.000
  22873772.074    -3309874.11849  -2560327.19546  22873771.368    22873778.988
       222.000         175.000
  24980245.377      217262.80449    164500.69045  24980245.596    24980258.764
       204.000         138.000
  21111965.437    -2966416.94949  -2288721.86947  21111964.691    21111971.521
       239.000         202.000
 03  4 15 17 48 30.0000000  0  6G24G30G 5G 6G 9G10
  22101386.484      157184.14549    117014.94947  22101386.708    22101392.789
       235.000         191.000
  20641171.502    -2938799.92049  -2275289.17647  20641172.024    20641176.899
       244.000         212.000
  20415964.626    -1161022.41649   -899792.56748  20415964.272    20415969.943
       247.000         216.000
  22861334.808    -3375231.05249  -2611254.65946  22861335.677    22861341.159
       223.000         175.000
  24997072.533      305688.94249    233403.88945  24997072.707    24997085.566
       203.000         139.000
  21103506.524    -3010868.70449  -2323359.56947  21103505.957    21103512.476
       240.000         203.000
 03  4 15 17 49  0.0000000  0  6G24G30G 5G 6G 9G10
  22115602.646      231890.20949    175227.44747  22115602.477    22115609.078
       234.000         191.000
  20633295.388    -2980189.19549  -2307540.56247  20633295.906    20633300.849
       245.000         212.000
  20421416.448    -1132372.96749   -877468.34648  20421416.388    20421421.876
       247.000         216.000
  22848903.688    -3440558.05149  -2662158.78446  22848903.643    22848910.077
       225.000         176.000
  25013873.453      393976.88749    302199.41045  25013873.496    25013886.635
       204.000         140.000
  21095154.802    -3054757.45949  -2357558.55847  21095154.069    21095160.448
       240.000         203.000
 03  4 15 17 49 30.0000000  0  6G24G30G 5G 6G 9G10
  22129845.986      306739.19549    233551.32247  22129845.886    22129852.093
       234.000         190.000
  20625516.667    -3021066.77349  -2339393.21547  20625517.222    20625521.847
       246.000         212.000
  20426970.139    -1103188.45649   -854727.19248  20426970.043    20426975.678
       247.000         217.000
  22836478.229    -3505854.71449  -2713039.27446  22836477.785    22836485.612
       224.000         177.000
  25030647.549      482124.01549    370885.21145  25030647.993    25030660.111
       202.000         140.000
  21086910.500    -3098081.49849  -2391317.51247  21086909.836    21086916.276
       240.000         204.000
 03  4 15 17 50  0.0000000  0  6G24G30G 5G 6G 9G10
  22144116.206      381729.49249    291985.31147  22144115.978    22144122.058
       234.000         190.000
  20617835.729    -3061430.42049  -2370845.40247  20617836.149    20617841.099
       246.000         212.000
  20432625.590    -1073469.16449   -831569.32348  20432625.148    20432631.132
       246.000         216.000
  22824058.570    -3571120.25749  -2763895.51246  22824058.013    22824065.049
       224.000         177.000
  25047394.526      570128.16549    439459.61345  25047395.479    25047407.423
       204.000         140.000
  21078774.165    -3140838.49149  -2424634.62547  21078773.229    21078779.914
       240.000         204.000
 03  4 15 17 50 30.0000000  0  7G17G24G30G 5G 6G 9G10
                   -331542.45459   -232961.30343
       206.000          74.000
  22158412.938      456859.06849    350527.82347  22158413.020    22158419.279
       234.000         191.000
  20610252.933    -3101278.50349  -2401895.85648  20610253.558    20610258.169
       247.000         213.000
  20438382.642    -1043215.64349   -807995.17848  20438382.182    20438388.050
       246.000         216.000
  22811644.980    -3636354.31749  -2814727.21646  22811644.957    22811650.661
       225.000         176.000
  25064113.601      657986.86849    507920.66245  25064114.814    25064127.336
       198.000         138.000
  21070746.054    -3183026.36049  -2457508.27447  21070745.416    21070751.852
       240.000         204.000
 03  4 15 17 51  0.0000000  0  7G17G24G30G 5G 6G 9G10
                   -415953.03149   -298735.77643
       207.000          74.000
  22172735.730      532125.98649    409177.35547  22172735.754    22172742.452
       234.000         191.000
  20602768.616    -3140609.09149  -2432543.07148  20602769.300    20602773.925
       248.000         213.000
  20444241.216    -1012428.50849   -784005.22548  20444240.817    20444246.781
       247.000         216.000
  22799237.488    -3701556.42349  -2865534.01346  22799237.266    22799244.237
       225.000         177.000
  25080804.735      745697.69149    576266.47045  25080804.890    25080818.094
       199.000         137.000
  21062826.579    -3224643.23649  -2489936.98247  21062825.799    21062832.282
       240.000         204.000
 03  4 15 17 51 30.0000000  0  6G17G24G30G 5G 6G10
                   -500198.24549   -364381.22744                  24524163.445
       207.000         118.000
  22187084.512      607529.24749    467933.12647  22187084.211    22187090.964
       233.000         191.000
  20595383.285    -3179419.55849  -2462784.99648  20595383.912    20595388.538
       247.000         214.000
  20450201.439     -981107.31749   -759599.12248  20450201.110    20450206.865
       246.000         216.000
  22786836.279    -3766724.98749  -2916314.69646  22786836.232    22786842.266
       225.000         177.000
  21055016.331    -3265686.24449  -2521918.51347  21055015.666    21055021.964
       240.000         203.000
 03  4 15 17 52  0.0000000  0  6G17G24G30G 5G 6G10
  24508154.199     -584276.22349   -429896.35245  24508153.119    24508165.186
       209.000         146.000
  22201458.967      683067.46149    526794.04947  22201459.290    22201465.329
       234.000         190.000
  20588097.407    -3217707.46149  -2492619.73048  20588097.876    20588102.550
       248.000         214.000
  20456263.372     -949252.08049   -734776.88348  20456263.214    20456268.786
       247.000         216.000
  22774441.618    -3831859.04849  -2967068.48246  22774441.702    22774446.975
       226.000         177.000
  21047315.717    -3306152.95949  -2553450.96847  21047315.227    21047321.527
       241.000         204.000
 03  4 15 17 52 30.0000000  0  6G17G24G30G 5G 6G10
  24492186.159     -668187.47949   -495281.56345  24492185.693    24492197.063
       209.000         150.000
  22215858.504      758737.41749    585757.63547  22215858.321    22215864.829
       233.000         190.000
  20580910.944    -3255472.40049  -2522046.95948  20580911.192    20580915.975
       247.000         213.000
  20462426.537     -916864.66549   -709539.96048  20462426.107    20462431.907
       247.000         216.000
  22762053.548    -3896959.26749  -3017795.89246  22762053.828    22762060.013
       226.000         178.000
  21039724.937    -3346042.88549  -2584533.98847  21039724.182    21039730.369
       240.000         204.000
 03  4 15 17 53  0.0000000  0  6G17G24G30G 5G 6G10
  24476249.563     -751933.61549   -560538.10845  24476249.805    24476260.984
       210.000         152.000
  22230282.334      834534.88349    644820.58147  22230282.296    22230288.736
       233.000         189.000
  20573823.879    -3292714.94949  -2551067.13548  20573824.338    20573829.087
       246.000         213.000
  20468690.390     -883948.09349   -683890.70848  20468689.821    20468695.820
       246.000         216.000
  22749671.496    -3962027.53149  -3068498.41446  22749670.901    22749677.488
       225.000         178.000
  21032243.711    -3385356.81749  -2615168.19747  21032243.101    21032249.616
       240.000         204.000
 03  4 15 17 53 30.0000000  0  6G17G24G30G 5G 6G10
  24460345.007     -835512.40749   -625664.26245  24460344.466    24460355.190
       208.000         152.000
  22244730.364      910459.76549    703982.81747  22244730.344    22244736.844
       232.000         189.000
  20566836.896    -3329431.62249  -2579677.53048  20566837.495    20566841.938
       247.000         214.000
  20475055.062     -850501.36049   -657828.33848  20475054.595    20475060.490
       246.000         215.000
  22737295.806    -4027061.43149  -3119174.15846  22737296.337    22737301.646
       226.000         178.000
  21024872.862    -3424090.98549  -2645350.64147  21024872.404    21024878.428
       240.000         205.000
 03  4 15 17 54  0.0000000  0  6G17G24G30G 5G 6G10
  24444472.675     -918922.21749   -690658.73245  24444472.104    24444482.797
       210.000         151.000
  22259202.264      986510.25149    763242.91947  22259202.105    22259208.685
       232.000         188.000
  20559950.425    -3365620.52249  -2607876.67748  20559950.902    20559955.809
       248.000         214.000
  20481520.609     -816524.86149   -631353.17148  20481520.428    20481526.129
       247.000         215.000
  22724927.061    -4092060.35149  -3169822.63746  22724926.781    22724933.181
       225.000         178.000
  21017612.712    -3462243.45749  -2675079.81347  21017612.210    21017618.396
       240.000         205.000
 03  4 15 17 54 30.0000000  0  6G17G24G30G 5G 6G10
  24428632.555    -1002162.23649   -755520.89845  24428632.030    24428642.724
       211.000         150.000
  22273697.784     1062684.64449    822599.56647  22273697.820    22273704.148
       233.000         189.000
  20553164.747    -3401279.75849  -2635663.09348  20553165.310    20553169.916
       247.000         214.000
  20488086.883     -782018.99049   -604465.50148  20488086.543    20488092.585
       247.000         215.000
  22712564.873    -4157023.30749  -3220443.10046  22712564.539    22712570.730
       225.000         178.000
  21010463.606    -3499812.25949  -2704354.17947  21010462.849    21010469.357
       240.000         204.000
 03  4 15 17 55  0.0000000  0  6G17G24G30G 5G 6G10
  24412825.131    -1085231.45149   -820249.98745  24412825.143    24412834.508
       211.000         149.000
  22288216.619     1138981.50349    882051.64647  22288217.188    22288222.849
       233.000         189.000
  20546480.164    -3436407.39049  -2663035.27548  20546480.657    20546485.543
       247.000         214.000
  20494753.763     -746984.28749   -577165.75848  20494753.298    20494759.337
       246.000         215.000
  22700209.745    -4221949.44449  -3271034.87646  22700209.672    22700216.288
       226.000         178.000
  21003425.901    -3536795.25449  -2733172.07947  21003425.191    21003431.644
       239.000         205.000
 03  4 15 17 55 30.0000000  0  7G17G24G30G 5G 6G21G10
  24397049.749    -1168131.90149   -884847.56545  24397048.445    24397059.173
       210.000         148.000
  22302757.855     1215395.94249    941595.34147  22302757.812    22302764.501
       233.000         189.000
  20539896.559    -3471004.48949  -2689994.05748  20539896.915    20539901.876
       247.000         214.000
  20501520.578     -711424.34649   -549456.74248  20501520.363    20501526.180
       246.000         215.000
  22687861.365    -4286841.08649  -3321599.76946  22687862.360    22687867.718
       227.000         179.000
  24924079.679    -3420218.36959  -2631233.63745  24924078.999    24924090.148
       207.000         138.000
  20996499.502    -3573193.56249  -2761534.37647  20996498.816    20996505.116
       240.000         205.000
 03  4 15 17 56  0.0000000  0  7G17G24G30G 5G 6G21G10
  24381306.774    -1250861.00649   -949311.60745  24381305.174    24381315.549
       208.000         147.000
  22317321.399     1291927.68149   1001230.44947  22317321.220    22317327.759
       234.000         188.000
  20533414.512    -3505067.86049  -2716536.94348  20533415.073    20533419.647
       247.000         214.000
  20508387.541     -675338.35449   -521337.81048  20508387.319    20508393.094
       246.000         215.000
  22675519.981    -4351696.15549  -3372136.15746  22675520.294    22675526.019
       226.000         180.000
  24907126.554    -3509306.44149  -2700652.64745  24907126.665    24907137.220
       210.000         138.000
  20989685.141    -3609003.63949  -2789438.30747  20989684.624    20989690.859
       241.000         206.000
 03  4 15 17 56 30.0000000  0  7G17G24G30G 5G 6G21G10
  24365596.946    -1333415.64949  -1013639.71845  24365596.319    24365605.338
       210.000         147.000
  22331907.278     1368577.05749   1060957.21247  22331907.802    22331913.548
       233.000         188.000
  20527034.739    -3538593.74549  -2742661.01248  20527035.129    20527039.795
       247.000         214.000
  20515354.810     -638725.06649   -492808.00048  20515354.526    20515360.298
       246.000         215.000
  22663185.821    -4416511.86749  -3422641.88846  22663185.543    22663191.302
       225.000         179.000
  24890201.163    -3598249.84849  -2769958.93645  24890200.892    24890210.253
       209.000         138.000
  20982983.320    -3644222.25949  -2816881.36047  20982982.374    20982989.038
       241.000         206.000
 03  4 15 17 57  0.0000000  0  7G17G24G30G 5G 6G21G10
  24349920.309    -1415795.95149  -1077832.00145  24349919.452    24349928.103
       210.000         148.000
  22346515.123     1445341.60049   1120773.71947  22346514.800    22346521.590
       232.000         188.000
  20520757.385    -3571581.38749  -2768365.67648  20520758.075    20520762.674
       247.000         214.000
  20522422.218     -601585.97549   -463868.47548  20522422.013    20522427.838
       247.000         215.000
  22650859.326    -4481288.24649  -3473116.96146  22650859.636    22650865.973
       229.000         180.000
  24873303.367    -3687048.33249  -2839152.30845  24873303.151    24873311.344
       212.000         137.000
  20976394.203    -3678848.20649  -2843862.59747  20976393.565    20976399.915
       241.000         207.000
 03  4 15 17 57 30.0000000  0  7G17G24G30G 5G 6G21G10
  24334276.974    -1498001.73149  -1141888.28145  24334276.011    24334285.300
       213.000         149.000
  22361144.341     1522218.58049   1180677.83647  22361144.282    22361150.787
       232.000         188.000
  20514582.680    -3604029.78349  -2793650.14048  20514582.980    20514587.913
       247.000         214.000
  20529589.417     -563922.54549   -434520.37348  20529589.181    20529594.964
       247.000         215.000
  22638540.318    -4546025.42349  -3523561.49146  22638539.575    22638546.878
       226.000         180.000
  24856433.112    -3775701.67349  -2908232.59945  24856432.840    24856440.535
       212.000         136.000
  20969918.118    -3712880.45449  -2870381.20547  20969917.088    20969923.483
       240.000         206.000
 03  4 15 17 58  0.0000000  0  7G17G24G30G 5G 6G21G10
  24318666.819    -1580032.94349  -1205808.53645  24318666.058    24318675.563
       213.000         149.000
  22375794.548     1599205.58149   1240667.67647  22375794.660    22375800.927
       233.000         188.000
  20508510.720    -3635937.95149  -2818513.65848  20508511.103    20508515.978
       246.000         214.000
  20536856.093     -525736.21249   -404764.81748  20536855.851    20536861.583
       247.000         215.000
  22626228.498    -4610723.20549  -3573975.35346  22626227.758    22626234.574
       226.000         179.000
  24839591.046    -3864207.05449  -2977197.58545  24839590.709    24839599.525
       213.000         135.000
  20963554.995    -3746318.08949  -2896436.49347  20963553.934    20963560.729
       239.000         206.000
 03  4 15 17 58 30.0000000  0  7G17G24G30G 5G 6G21G10
  24303090.159    -1661888.29349  -1269591.76845  24303089.411    24303099.092
       212.000         150.000
  22390465.462     1676301.49849   1300742.39447  22390465.064    22390471.786
       233.000         189.000
  20502541.989    -3667303.93549  -2842954.69248  20502542.535    20502547.244
       246.000         214.000
  20544222.129     -487027.57249   -374602.26548  20544221.931    20544227.689
       246.000         215.000
  22613924.696    -4675380.69749  -3624357.77746  22613925.115    22613930.407
       227.000         179.000
  24822776.718    -3952566.04249  -3046048.49645  24822775.980    24822784.828
       210.000         134.000
  20957305.375    -3779159.37549  -2922027.08247  20957304.310    20957311.032
       239.000         206.000
 03  4 15 17 59  0.0000000  0  7G17G24G30G 5G 6G21G10
  24287547.250    -1743566.94549  -1333237.31345  24287546.731    24287555.977
       212.000         150.000
  22405156.823     1753504.82349   1360900.80247  22405156.903    22405163.123
       233.000         189.000
  20496676.826    -3698125.88249  -2866971.79848  20496677.396    20496682.075
       246.000         215.000
  20551687.444     -447797.22749   -344033.18548  20551687.003    20551692.945
       246.000         215.000
  22601628.664    -4739996.91949  -3674708.05946  22601628.348    22601634.725
       226.000         180.000
  24805990.399    -4040777.86349  -3114784.74045  24805989.731    24805997.855
       211.000         133.000
  20951169.676    -3811402.52149  -2947151.59147  20951168.968    20951175.539
       240.000         206.000
 03  4 15 17 59 30.0000000  0  7G17G24G30G 5G 6G21G10
  24272037.951    -1825068.69249  -1396745.01745  24272037.238    24272046.273
       213.000         151.000
  22419868.063     1830812.72949   1421140.69747  22419867.988    22419874.667
       233.000         189.000
  20490915.314    -3728403.14449  -2890564.48148  20490915.864    20490920.587
       246.000         215.000
  20559251.677     -408046.81149   -313058.86148  20559251.187    20559257.184
       244.000         214.000
  22589340.404    -4804571.87849  -3725026.19846  22589340.485    22589346.686
       227.000         181.000
  24789232.261    -4128842.00449  -3183405.92545  24789231.182    24789239.324
       212.000         133.000
  20945148.034    -3843046.57449  -2971809.27647  20945147.696    20945153.934
       241.000         207.000
 03  4 15 18  0  0.0000000  0  7G17G24G30G 5G 6G21G10
  24256562.371    -1906393.12549  -1460114.54545  24256561.772    24256570.976
       212.000         151.000
  22434598.859     1908223.34949   1481460.63647  22434599.340    22434605.263
       231.000         188.000
  20485257.635    -3758134.50849  -2913731.78548  20485258.241    20485263.026
       246.000         215.000
  20566914.712     -367777.47849   -281680.18548  20566914.541    20566920.166
       245.000         215.000
  22577060.216    -4869105.35949  -3775311.99646  22577060.506    22577065.759
       227.000         181.000
  24772502.357    -4216757.80649  -3251911.51945  24772500.455    24772508.712
       211.000         132.000
  20939240.630    -3874090.36049  -2995999.21647  20939240.226    20939246.313
       241.000         207.000
 03  4 15 18  0 30.0000000  0  7G17G24G30G 5G 6G21G10
  24241120.608    -1987538.75649  -1523344.76445  24241120.362    24241128.771
       212.000         151.000
  22449348.928     1985735.38149   1541859.57946  22449349.099    22449355.449
       230.000         186.000
  20479704.250    -3787317.75949  -2936471.98548  20479704.705    20479709.449
       245.000         215.000
  20574676.513     -326989.42249   -249897.30648  20574676.318    20574682.049
       245.000         215.000
  22564787.988    -4933596.10149  -3825564.50846  22564787.902    22564793.699
       226.000         181.000
  24755800.749    -4304523.80949  -3320300.37644  24755799.766    24755807.596
       210.000         131.000
  20933447.817    -3904531.85149  -3019719.83247  20933447.036    20933453.493
       240.000         207.000
 03  4 15 18  1  0.0000000  0  7G17G24G30G 5G 6G21G10
  24225713.358    -2068503.59849  -1586434.13145  24225712.648    24225720.794
       209.000         151.000
  22464118.155     2063348.41349   1602337.23646  22464117.745    22464124.639
       230.000         185.000
  20474255.663    -3815950.20449  -2958782.98848  20474256.097    20474261.046
       246.000         215.000
  20582537.009     -285682.34949   -217709.99648  20582536.516    20582542.465
       245.000         215.000
  22552524.331    -4998041.90049  -3875781.99246  22552524.262    22552530.295
       227.000         181.000
  24739127.652    -4392140.66949  -3388573.01045  24739125.790    24739136.797
       210.000         133.000
  20927770.163    -3934368.21249  -3042968.92147  20927769.417    20927775.515
       241.000         207.000
 03  4 15 18  1 30.0000000  0  7G17G24G30G 5G 6G21G10
  24210340.314    -2149288.44749  -1649383.22445  24210338.691    24210348.917
       209.000         150.000
  22478906.087     2141059.40849   1662891.21446  22478906.207    22478912.189
       230.000         183.000
  20468911.934    -3844031.74149  -2980664.71548  20468912.567    20468917.500
       246.000         215.000
  20590495.736     -243858.68149   -185120.15348  20590495.287    20590501.432
       244.000         215.000
  22540269.098    -5062443.49449  -3925965.04046  22540269.436    22540275.047
       228.000         182.000
  24722483.350    -4479605.75149  -3456727.39045  24722482.781    24722491.077
       208.000         134.000
  20922207.651    -3963599.36749  -3065746.43147  20922207.187    20922213.511
       241.000         207.000
 03  4 15 18  2  0.0000000  0  7G17G24G30G 5G 6G21G10
  24195001.526    -2229892.72649  -1712191.61545  24195000.290    24195010.387
       209.000         150.000
  22493712.276     2218866.12149   1723519.80046  22493712.267    22493718.614
       230.000         182.000
  20463673.342    -3871561.01849  -3002116.10348  20463673.903    20463678.601
       246.000         215.000
  20598552.661     -201519.40849   -152128.53848  20598552.509    20598558.324
       245.000         215.000
  22528022.567    -5126800.26349  -3976113.14846  22528022.555    22528028.234
       228.000         182.000
  24705867.887    -4566917.81449  -3524762.52445  24705864.716    24705876.510
       205.000         134.000
  20916760.536    -3992224.08649  -3088051.38447  20916759.898    20916766.117
       242.000         207.000
 03  4 15 18  2 30.0000000  0  7G17G24G30G 5G 6G21G10
  24179697.513    -2310315.13049  -1774858.27745  24179696.424    24179706.938
       210.000         151.000
  22508536.476     2296767.48249   1784222.13546  22508536.824    22508542.604
       229.000         181.000
  20458540.132    -3898536.32149  -3023135.83048  20458540.617    20458545.385
       246.000         215.000
  20606707.577     -158665.37549   -118735.81748  20606707.583    20606713.313
       246.000         215.000
  22515784.459    -5191111.23449  -4026225.57646  22515784.037    22515790.473
       227.000         182.000
  24689282.038    -4654075.86849  -3592677.66045  24689279.807    24689290.948
       205.000         134.000
  20911429.172    -4020240.58949  -3109882.40447  20911428.449    20911434.603
       243.000         207.000
 03  4 15 18  3  0.0000000  0  7G17G24G30G 5G 6G21G10
  24164428.170    -2390556.11249  -1837383.59145  24164426.586    24164438.275
       210.000         150.000
  22523378.154     2374760.92049   1844996.22146  22523377.810    22523384.402
       229.000         180.000
  20453512.389    -3924957.38849  -3043723.68448  20453512.858    20453517.727
       246.000         215.000
  20614960.066     -115298.73949    -84943.66948  20614959.790    20614965.849
       245.000         215.000
  22503555.148    -5255376.70249  -4076302.54446  22503555.473    22503561.081
       229.000         183.000
  24672725.533    -4741080.06349  -3660472.91245  24672726.047    24672732.338
       207.000         136.000
  20906213.594    -4047648.62349  -3131239.29147  20906212.960    20906218.954
       243.000         207.000
 03  4 15 18  3 30.0000000  0  7G17G24G30G 5G 6G21G10
  24149193.276    -2470614.78949  -1899766.86645  24149192.692    24149203.315
       211.000         151.000
  22538236.913     2452844.24149   1905840.33746  22538237.173    22538243.363
       228.000         180.000
  20448590.348    -3950822.87249  -3063878.61548  20448590.775    20448595.747
       246.000         215.000
  20623309.804      -71420.50449    -50752.87348  20623309.520    20623315.655
       245.000         215.000
  22491334.780    -5319596.09049  -4126343.59746  22491334.643    22491341.128
       229.000         184.000
  24656198.466    -4827929.77949  -3728147.81845  24656198.309    24656206.946
       208.000         138.000
  20901114.045    -4074447.23249  -3152121.31147  20901113.280    20901119.525
       242.000         207.000
 03  4 15 18  4  0.0000000  0  7G17G24G30G 5G 6G21G10
  24133993.348    -2550490.28249  -1962007.41145  24133991.685    24134002.436
       211.000         151.000
  22553112.584     2531016.36849   1966753.65046  22553112.455    22553119.833
       228.000         180.000
  20443774.231    -3976131.38549  -3083599.53948  20443774.639    20443779.740
       245.000         215.000
  20631756.756      -27031.60049    -16164.14648  20631756.652    20631762.416
       245.000         215.000
  22479123.060    -5383768.42349  -4176348.00846  22479122.357    22479128.595
       227.000         183.000
  24639700.694    -4914624.37849  -3795701.82245  24639699.351    24639708.691
       206.000         138.000
  20896130.604    -4100634.98649  -3172527.33047  20896129.680    20896136.169
       243.000         208.000
 03  4 15 18  4 30.0000000  0  7G17G24G30G 5G 6G21G10
  24118828.485    -2630181.57749  -2024104.41745  24118827.523    24118836.703
       212.000         151.000
  22568004.943     2609275.81649   2027734.99946  22568005.065    22568011.248
       227.000         180.000
  20439064.527    -4000881.09849  -3102885.03748  20439065.020    20439069.896
       246.000         215.000
  20640300.761       17867.15049     18821.86248  20640300.347    20640306.248
       245.000         215.000
  22466920.597    -5447892.45349  -4226314.76046  22466921.284    22466926.560
       230.000         184.000
  24623232.483    -5001162.56949  -3863133.96045  24623231.302    24623239.157
       205.000         138.000
  20891263.844    -4126210.12849  -3192455.99047  20891263.599    20891269.610
       243.000         209.000
 03  4 15 18  5  0.0000000  0  7G17G24G30G 5G 6G21G10
  24103698.804    -2709688.35849  -2086057.66745  24103699.396    24103707.029
       213.000         152.000
  22582913.376     2687620.23449   2088782.56046  22582913.414    22582919.985
       228.000         180.000
  20434461.360    -4025071.02349  -3121734.33648  20434461.856    20434466.580
       246.000         215.000
  20648941.459       63274.37349     54204.08148  20648941.175    20648946.847
       245.000         214.000
  22454727.608    -5511967.67949  -4276243.48246  22454726.986    22454733.512
       229.000         184.000
  24606794.399    -5087543.88549  -3930443.88045  24606793.441    24606801.303
       206.000         138.000
  20886513.869    -4151171.86449  -3211906.67347  20886513.388    20886519.224
       244.000         209.000
 03  4 15 18  5 30.0000000  0  7G17G24G30G 5G 6G21G10
  24088604.142    -2789012.06549  -2147868.24245  24088604.126    24088612.931
       213.000         152.000
  22597837.367     2766046.31849   2149893.76246  22597837.323    22597843.949
       226.000         180.000
  20429964.607    -4048701.72849  -3140147.87748  20429965.089    20429969.896
       246.000         215.000
  20657678.372      109187.13749     89980.22948  20657678.177    20657684.036
       245.000         214.000
  22442543.441    -5575995.38149  -4326135.19446  22442543.630    22442549.456
       230.000         185.000
  24590386.244    -5173769.35849  -3997632.36545  24590385.171    24590394.902
       206.000         139.000
  20881880.427    -4175520.70749  -3230879.77247  20881879.586    20881885.823
       242.000         209.000
 03  4 15 18  6  0.0000000  0  7G17G24G30G 5G 6G21G10
  24073544.977    -2868149.32449  -2209533.53545  24073543.752    24073553.769
       213.000         152.000
  22612776.995     2844554.83549   2211069.17946  22612777.330    22612783.583
       226.000         179.000
  20425574.964    -4071769.49749  -3158122.77348  20425575.588    20425580.405
       246.000         215.000
  20666511.785      155606.65249    126151.24048  20666511.652    20666517.506
       245.000         214.000
  22430369.116    -5639972.34249  -4375987.35246  22430369.149    22430374.791
       231.000         185.000
  24574008.348    -5259835.68449  -4064696.85345  24574006.909    24574017.345
       206.000         139.000
  20877364.295    -4199252.85149  -3249372.33947  20877363.542    20877369.675
       243.000         209.000
 03  4 15 18  6 30.0000000  0  7G17G24G30G 5G 6G21G10
  24058521.033    -2947099.76349  -2271053.24745  24058519.444    24058530.016
       211.000         152.000
  22627731.923     2923143.63249   2272307.16646  22627731.847    22627739.191
       227.000         178.000
  20421292.608    -4094273.67749  -3175658.50548  20421293.143    20421297.956
       247.000         215.000
  20675441.260      202531.15449    162715.74448  20675441.120    20675446.917
       245.000         214.000
  22418204.430    -5703898.38449  -4425799.82546  22418204.470    22418210.084
       231.000         185.000
  24557660.524    -5345743.08749  -4131637.49845  24557659.976    24557669.342
       207.000         140.000
  20872965.696    -4222367.85749  -3267384.01647  20872965.167    20872970.885
       243.000         208.000
 03  4 15 18  7  0.0000000  0  7G17G24G30G 5G 6G21G10
  24043532.628    -3025862.96249  -2332427.06845  24043532.219    24043541.742
       211.000         152.000
  22642701.930     3001811.17049   2333606.51246  22642701.774    22642708.670
       227.000         178.000
  20417117.748    -4116212.89949  -3192754.00948  20417118.263    20417123.146
       247.000         216.000
  20684466.652      249959.75949    199673.06648  20684466.342    20684472.193
       245.000         214.000
  22406049.625    -5767772.29849  -4475571.69046  22406049.115    22406055.346
       231.000         186.000
  24541343.124    -5431490.24249  -4198453.26545  24541342.992    24541351.297
       207.000         139.000
  20868684.781    -4244864.46049  -3284913.81547  20868683.981    20868689.955
       243.000         209.000
 03  4 15 18  7 30.0000000  0  7G17G24G30G 5G 6G21G10
  24028580.083    -3104437.83249  -2393654.15045  24028579.770    24028589.337
       211.000         153.000
  22657686.598     3080555.76449   2394965.88846  22657686.900    22657693.388
       226.000         178.000
  20413050.600    -4137586.09249  -3209408.45548  20413051.189    20413055.874
       246.000         215.000
  20693587.719      297891.26449    237022.25948  20693587.438    20693593.375
       245.000         214.000
  22393904.869    -5831593.45049  -4525302.45046  22393905.002    22393910.817
       232.000         186.000
  24525056.533    -5517076.79149  -4265143.87745  24525055.028    24525064.931
       207.000         139.000
  20864521.659    -4266741.81649  -3301961.09147  20864520.613    20864527.012
       243.000         209.000
 03  4 15 18  8  0.0000000  0  7G17G24G30G 5G 6G21G10
  24013663.374    -3182825.21849  -2454735.13345  24013663.926    24013671.901
       213.000         154.000
  22672685.440     3159374.78349   2456383.26746  22672685.576    22672691.886
       228.000         177.000
  20409091.205    -4158392.79749  -3225621.47448  20409091.500    20409096.432
       246.000         215.000
  20702804.123      346323.36749    274761.52848  20702803.867    20702809.855
       245.000         214.000
  22381770.205    -5895361.97749  -4574992.19246  22381770.033    22381775.569
       232.000         186.000
  24508800.410    -5602502.59749  -4331709.28445  24508799.831    24508807.822
       208.000         137.000
  20860476.353    -4287999.80549  -3318525.75747  20860475.663    20860481.637
       242.000         209.000
 03  4 15 18  8 30.0000000  0  7G17G24G30G 5G 6G21G10
  23998782.749    -3261023.90449  -2515669.07545  23998781.989    23998790.797
       214.000         155.000
  22687698.174     3238266.97249   2517857.66046  22687697.984    22687704.677
       224.000         176.000
  20405239.794    -4178631.64449  -3241392.00848  20405240.096    20405245.151
       245.000         215.000
  20712115.557      395255.22249    312890.21448  20712115.331    20712121.366
       244.000         214.000
  22369645.612    -5959076.57649  -4624639.91046  22369644.837    22369651.064
       230.000         186.000
  24492575.121    -5687766.59649  -4398148.62145  24492574.763    24492582.729
       207.000         137.000
  20856549.186    -4308636.94549  -3334606.63447  20856548.292    20856554.273
       242.000         208.000
 03  4 15 18  9  0.0000000  0  7G17G24G30G 5G 6G21G10
  23983937.988    -3339033.31249  -2576455.51245  23983937.675    23983946.165
       216.000         155.000
  22702724.414     3317230.38249   2579387.55246  22702724.961    22702730.914
       223.000         174.000
  20401496.703    -4198301.60149  -3256719.25748  20401497.187    20401502.134
       246.000         215.000
  20721521.742      444684.97949    351406.87448  20721521.289    20721527.569
       244.000         214.000
  22357531.336    -6022736.71749  -4674245.20446  22357531.273    22357537.112
       231.000         186.000
  24476380.872    -5772868.19349  -4464461.39945  24476380.334    24476388.581
       205.000         138.000
  20852740.347    -4328652.42549  -3350203.10047  20852739.669    20852745.835
       242.000         208.000
 03  4 15 18  9 30.0000000  0  7G17G24G30G 5G 6G21G10
  23969129.422    -3416853.29249  -2637094.34445  23969128.887    23969137.272
       216.000         156.000
  22717763.940     3396263.43549   2640971.72246  22717763.480    22717770.889
       223.000         173.000
  20397862.070    -4217401.80549  -3271602.53648  20397862.534    20397867.556
       245.000         215.000
  20731022.437      494611.42149    390310.56648  20731022.102    20731027.997
       244.000         213.000
  22345427.765    -6086341.79449  -4723807.57546  22345427.572    22345434.064
       232.000         187.000
  24460217.891    -5857805.73949  -4530646.34245  24460217.024    24460225.705
       205.000         139.000
  20849050.027    -4348045.13549  -3365314.29547  20849049.014    20849055.527
       242.000         208.000
 03  4 15 18 10  0.0000000  0  7G17G24G30G 5G 6G21G10
  23954357.036    -3494482.26249  -2697584.33445  23954355.565    23954365.598
       216.000         156.000
  22732816.560     3475365.16649   2702609.39546  22732816.629    22732822.963
       223.000         173.000
  20394336.176    -4235930.63749  -3286040.59948  20394336.645    20394341.547
       246.000         216.000
  20740617.549      545033.74349    429600.65648  20740617.379    20740623.225
       245.000         213.000
  22333334.811    -6149890.27249  -4773325.85246  22333334.154    22333340.940
       230.000         186.000
  24444085.591    -5942580.92749  -4596704.76545  24444085.102    24444093.267
       204.000         138.000
  20845478.396    -4366813.94249  -3379939.32847  20845477.526    20845483.941
       242.000         208.000
 03  4 15 18 10 30.0000000  0  7G17G24G30G 5G 6G21G10
  23939620.808    -3571919.62249  -2757925.02945  23939620.016    23939630.087
       215.000         157.000
  22747882.008     3554534.33249   2764299.61646  22747881.409    22747888.479
       223.000         172.000
  20390919.240    -4253886.91349  -3300032.51248  20390919.670    20390924.638
       246.000         215.000
  20750306.741      595950.79949    469276.25248  20750306.432    20750312.701
       244.000         213.000
  22321252.743    -6213381.30649  -4822799.36846  22321253.358    22321258.365
       232.000         187.000
  24427984.612    -6027191.15149  -4662634.65945  24427983.369    24427992.374
       203.000         139.000
  20842025.768    -4384957.89649  -3394077.45247  20842025.296    20842031.490
       243.000         209.000
 03  4 15 18 11  0.0000000  0  7G17G24G30G 5G 6G21G10
  23924921.273    -3649165.23849  -2818116.31245  23924921.791    23924930.609
       216.000         158.000
  22762959.853     3633768.71849   2826040.67046  22762959.681    22762966.005
       223.000         171.000
  20387611.334    -4271269.99549  -3313577.78548  20387611.820    20387616.698
       246.000         215.000
  20760089.791      647360.93849    509336.07048  20760089.589    20760095.699
       244.000         213.000
  22309182.010    -6276814.29949  -4872227.64547  22309182.125    22309187.845
       232.000         188.000
  24411915.044    -6111635.91649  -4728435.62445  24411913.894    24411922.545
       204.000         139.000
  20838692.105    -4402476.51749  -3407728.30347  20838691.454    20838697.500
       242.000         210.000
 03  4 15 18 11 30.0000000  0  7G17G24G30G 5G 6G21G10
  23910258.754    -3726218.83449  -2878157.96045  23910258.912    23910267.688
       218.000         159.000
  22778049.642     3713066.27449   2887830.93846  22778049.285    22778056.701
       221.000         171.000
  20384412.768    -4288079.00049  -3326675.71848  20384413.334    20384418.032
       246.000         215.000
  20769966.363      699262.50049    549778.81648  20769966.252    20769972.187
       244.000         213.000
  22297122.197    -6340188.75349  -4921610.32947  22297121.534    22297128.469
       230.000         188.000
  24395877.170    -6195914.97949  -4794107.47045  24395877.605    24395885.394
       208.000         140.000
  20835477.576    -4419368.99849  -3420891.26247  20835476.540    20835483.093
       242.000         210.000
 03  4 15 18 12  0.0000000  0  7G17G24G30G 5G 6G21G10
  23895632.736    -3803079.57349  -2938049.33145  23895632.308    23895640.193
       217.000         159.000
  22793151.249     3792425.82749   2949669.50446  22793151.270    22793157.794
       222.000         170.000
  20381323.567    -4304312.75249  -3339325.39948  20381324.123    20381329.197
       245.000         216.000
  20779936.232      751654.20049    590603.48948  20779936.090    20779941.847
       244.000         213.000
  22285073.701    -6403503.55849  -4970946.52547  22285073.475    22285079.675
       231.000         188.000
  24379871.114    -6280027.40849  -4859649.46145  24379869.737    24379878.225
       207.000         141.000
  20832382.325    -4435634.41449  -3433565.60347  20832381.572    20832387.372
       242.000         210.000
 03  4 15 18 12 30.0000000  0  7G17G24G30G 5G 6G21G10
  23881043.060    -3879747.86649  -2997790.73345  23881042.278    23881051.530
       217.000         158.000
  22808264.196     3871844.77149   3011554.34746  22808264.167    22808270.705
       221.000         170.000
  20378343.847    -4319971.36549  -3351526.92148  20378344.486    20378349.327
       246.000         216.000
  20789998.868      804533.51549    631808.11947  20789998.743    20790004.412
       244.000         212.000
  22273036.759    -6466758.69349  -5020236.21247  22273037.347    22273042.471
       232.000         189.000
  24363896.581    -6363973.39349  -4925061.77245  24363895.176    24363904.072
       209.000         143.000
  20829406.428    -4451273.20849  -3445751.66047  20829405.802    20829411.925
       243.000         210.000
 03  4 15 18 13  0.0000000  0  7G17G24G30G 5G 6G21G10
  23866490.265    -3956222.03549  -3057380.88645  23866488.794    23866498.737
       214.000         158.000
  22823388.417     3951322.96749   3073485.37646  22823388.457    22823394.880
       222.000         170.000
  20375474.005    -4335052.68649  -3363278.61148  20375474.423    20375479.413
       246.000         216.000
  20800154.193      857900.31149    673392.59447  20800153.553    20800159.921
       244.000         212.000
  22261011.511    -6529952.12049  -5069477.83047  22261011.203    22261017.279
       231.000         189.000
  24347954.093    -6447750.80449  -4990342.73345  24347953.682    24347960.808
       209.000         145.000
  20826550.166    -4466283.13349  -3457447.68047  20826549.650    20826555.423
       243.000         210.000
 03  4 15 18 13 30.0000000  0  7G17G24G30G 5G 6G21G10
  23851974.535    -4032501.74749  -3116819.50645  23851974.012    23851983.515
       216.000         159.000
  22838523.561     4030858.48449   3135461.06646  22838523.959    22838530.057
       222.000         171.000
  20372714.112    -4349555.96749  -3374579.87948  20372714.713    20372719.637
       246.000         216.000
  20810401.953      911752.90149    715355.60847  20810401.689    20810407.892
       243.000         212.000
  22248997.940    -6593083.38549  -5118671.02047  22248997.979    22249003.768
       231.000         189.000
  24332043.813    -6531359.84549  -5055492.49845  24332043.487    24332051.334
       211.000         147.000
  20823813.607    -4480663.62349  -3468653.23547  20823812.724    20823818.855
       242.000         210.000
 03  4 15 18 14  0.0000000  0  7G17G24G30G 5G 6G21G10
  23837496.066    -4108587.10749  -3176106.68845  23837496.045    23837504.867
       216.000         160.000
  22853669.116     4110448.66049   3197479.34546  22853669.324    22853675.834
       222.000         171.000
  20370064.237    -4363481.31449  -3385430.80848  20370064.608    20370069.565
       245.000         216.000
  20820741.854      966089.02549    757695.40447  20820741.650    20820747.767
       243.000         212.000
  22236996.335    -6656152.42949  -5167815.71347  22236996.867    22237001.985
       232.000         189.000
  24316165.495    -6614800.66149  -5120511.18045  24316163.750    24316173.342
       213.000         149.000
  20821196.828    -4494414.95349  -3479368.54047  20821195.986    20821202.347
       242.000         209.000
 03  4 15 18 14 30.0000000  0  7G17G24G30G 5G 6G21G10
  23823054.899    -4184476.93949  -3235241.50445  23823054.113    23823063.711
       217.000         161.000
  22868824.974     4190093.31349   3259540.06246  22868825.272    22868831.302
       222.000         171.000
  20367524.609    -4376827.05149  -3395830.09448  20367524.946    20367530.021
       245.000         215.000
  20831173.613     1020907.91949    800411.38247  20831173.139    20831179.373
       243.000         212.000
  22225006.903    -6719157.49349  -5216910.54847  22225006.668    22225012.572
       231.000         189.000
  24300319.321    -6698071.71549  -5185397.59045  24300318.130    24300326.863
       211.000         150.000
  20818699.985    -4507535.72849  -3489592.51047  20818698.985    20818705.488
       241.000         209.000
 03  4 15 18 15  0.0000000  0  7G17G24G30G 5G 6G21G10
  23808650.638    -4260171.94449  -3294224.50345  23808649.355    23808658.889
       216.000         162.000
  22883990.777     4269789.80949   3321641.19846  22883990.873    22883997.694
       222.000         171.000
  20365095.297    -4389593.08549  -3405777.66348  20365095.758    20365100.819
       246.000         215.000
  20841696.695     1076207.29249    843501.76147  20841696.274    20841702.549
       243.000         211.000
  22213029.592    -6782098.35749  -5265955.36347  22213029.690    22213035.584
       231.000         189.000
  24284505.396    -6781173.29349  -5250151.92945  24284504.617    24284513.047
       213.000         151.000
  20816323.078    -4520026.06149  -3499325.21847  20816322.140    20816328.597
       242.000         209.000
 03  4 15 18 15 30.0000000  0  7G17G24G30G 5G 6G21G10
  23794283.547    -4335670.48549  -3353054.42745  23794282.251    23794292.271
       216.000         162.000
  22899166.229     4349537.24949   3383782.02446  22899166.217    22899172.384
       223.000         171.000
  20362776.600    -4401778.09449  -3415272.48348  20362777.073    20362781.879
       246.000         216.000
  20852311.088     1131986.11149    886965.73547  20852310.816    20852316.907
       243.000         211.000
  22201064.792    -6844973.70849  -5314949.13047  22201064.973    22201070.665
       232.000         190.000
  24268724.208    -6864103.90149  -5314773.05545  24268723.332    24268731.857
       212.000         151.000
  20814066.339    -4531885.06649  -3508565.98547  20814065.632    20814071.705
       242.000         209.000
 03  4 15 18 16  0.0000000  0  7G17G24G30G 5G 6G21G10
  23779953.853    -4410972.12249  -3411730.92546  23779953.161    23779961.933
       216.000         163.000
  22914351.144     4429334.11549   3445961.36546  22914351.095    22914358.082
       222.000         171.000
  20360568.683    -4413381.13949  -3424313.82648  20360569.221    20360574.086
       246.000         216.000
  20863016.500     1188243.01849    930802.24747  20863016.344    20863022.409
       243.000         211.000
  22189112.724    -6907782.33149  -5363890.89547  22189111.828    22189118.081
       231.000         189.000
  24252975.929    -6946862.02049  -5379259.77245  24252975.894    24252983.180
       216.000         151.000
  20811929.939    -4543111.86649  -3517314.12547  20811929.251    20811935.509
       242.000         209.000
 03  4 15 18 16 30.0000000  0  7G17G24G30G 5G 6G21G10
  23765661.995    -4486077.06949  -3470254.15246  23765661.545    23765670.193
       218.000         163.000
  22929545.018     4509178.26249   3508177.54546  22929545.356    22929552.318
       219.000         170.000
  20358471.567    -4424401.78849  -3432901.35448  20358472.113    20358476.844
       246.000         216.000
  20873812.488     1244975.94049    975009.67447  20873812.260    20873818.499
       243.000         211.000
  22177173.285    -6970523.73449  -5412780.28347  22177173.312    22177179.115
       232.000         189.000
  24237260.297    -7029448.54149  -5443612.78745  24237260.714    24237266.784
       215.000         150.000
  20809913.917    -4553706.37749  -3525569.58047  20809913.327    20809919.211
       243.000         210.000
 03  4 15 18 17  0.0000000  0  7G17G24G30G 5G 6G21G10
  23751407.359    -4560985.81249  -3528624.49346  23751406.234    23751415.568
       217.000         163.000
  22944747.511     4589067.67549   3570428.99346  22944747.352    22944754.768
       222.000         169.000
  20356485.218    -4434840.36749  -3441035.32348  20356485.808    20356490.497
       247.000         216.000
  20884698.518     1302182.34549   1019586.04847  20884698.174    20884704.488
       242.000         211.000
  22165246.797    -7033198.00949  -5461617.36447  22165247.119    22165253.006
       232.000         190.000
  24221577.131    -7111863.67449  -5507832.25245  24221576.232    24221584.243
       213.000         149.000
  20808018.093    -4563668.95349  -3533332.60947  20808017.080    20808023.644
       243.000         210.000
 03  4 15 18 17 30.0000000  0  7G17G24G30G 5G 6G21G10
  23737190.381    -4635695.76549  -3586839.94646  23737189.416    23737199.065
       216.000         163.000
  22959958.493     4669002.05449   3632715.48046  22959958.911    22959964.559
       220.000         169.000
  20354610.055    -4444694.71949  -3448714.05148  20354610.516    20354615.299
       246.000         216.000
  20895674.612     1359862.01549   1064531.20447  20895674.266    20895680.512
       243.000         211.000
  22153333.598    -7095802.61049  -5510400.14647  22153333.456    22153339.123
       232.000         191.000
  24205926.799    -7194105.42649  -5571916.60445  24205925.387    24205934.090
       212.000         149.000
  20806242.746    -4572997.83949  -3540601.85847  20806241.858    20806248.555
       241.000         210.000
 03  4 15 18 18  0.0000000  0  7G17G24G30G 5G 6G21G10
  23723011.258    -4710206.67249  -3644900.29145  23723009.592    23723019.552
       216.000         162.000
  22975177.919     4748980.30649   3695036.16646  22975177.725    22975184.206
       220.000         168.000
  20352846.140    -4453964.01549  -3455936.89448  20352846.538    20352851.296
       246.000         216.000
  20906740.537     1418013.56149   1109844.05447  20906740.385    20906746.241
       243.000         210.000
  22141433.656    -7158336.46749  -5559127.81147  22141433.465    22141438.931
       231.000         189.000
  24190309.550    -7276173.16249  -5635865.34745  24190307.908    24190316.406
       213.000         148.000
  20804588.288    -4581692.36049  -3547376.79247  20804587.634    20804593.937
       242.000         210.000
 03  4 15 18 18 30.0000000  0  7G17G24G30G 5G 6G21G10
  23708869.936    -4784518.93749  -3702805.85445  23708868.262    23708878.969
       216.000         162.000
  22990405.200     4829000.14249   3757389.26046  22990405.324    22990412.197
       222.000         168.000
  20351193.589    -4462648.24849  -3462703.84448  20351194.111    20351198.776
       246.000         216.000
  20917895.774     1476634.63049   1155522.76947  20917895.422    20917901.515
       242.000         210.000
  22129547.344    -7220799.33549  -5607800.14947  22129547.173    22129553.296
       232.000         190.000
  24174725.689    -7358066.25749  -5699678.02545  24174725.176    24174732.914
       215.000         148.000
  20803054.520    -4589752.59049  -3553657.47447  20803053.746    20803059.693
       242.000         210.000
 03  4 15 18 19  0.0000000  0  7G17G24G30G 5G 6G21G10
  23694766.530    -4858631.69749  -3760555.98045  23694765.995    23694775.006
       215.000         162.000
  23005640.151     4909060.15849   3819773.64346  23005639.727    23005647.451
       220.000         168.000
  20349652.587    -4470746.53249  -3469014.20848  20349653.058    20349657.760
       246.000         216.000
  20929140.093     1535723.87649   1201566.29547  20929139.708    20929146.146
       242.000         210.000
  22117674.842    -7283189.98149  -5656416.22047  22117674.373    22117680.854
       232.000         191.000
  24159175.064    -7439784.63749  -5763354.55545  24159175.211    24159182.297
       216.000         149.000
  20801641.476    -4597178.03849  -3559443.52047  20801640.494    20801646.885
       241.000         209.000
 03  4 15 18 19 30.0000000  0  7G17G24G30G 5G 6G21G10
  23680701.196    -4932544.41149  -3818150.21545  23680700.872    23680709.107
       217.000         162.000
  23020882.549     4989159.38249   3882188.58046  23020882.555    23020889.090
       219.000         167.000
  20348223.210    -4478258.13249  -3474867.42248  20348223.798    20348228.342
       246.000         216.000
  20940473.150     1595279.57649   1247973.28547  20940472.882    20940479.283
       242.000         210.000
  22105816.164    -7345507.35249  -5704975.20647  22105815.812    22105821.976
       232.000         191.000
  24143658.079    -7521327.22149  -5826894.08845  24143657.474    24143666.221
       216.000         148.000
  20800349.249    -4603968.22349  -3564734.57047  20800348.448    20800354.838
       242.000         209.000
 03  4 15 18 20  0.0000000  0  7G17G24G30G 5G 6G21G10
  23666674.062    -5006257.88149  -3875589.17645  23666672.983    23666681.681
       216.000         161.000
  23036131.905     5069295.18249   3944632.02446  23036132.367    23036138.467
       219.000         166.000
  20346905.332    -4485183.62849  -3480263.92648  20346905.670    20346910.626
       246.000         216.000
  20951894.550     1655299.13649   1294741.72947  20951894.345    20951900.563
       242.000         210.000
  22093971.503    -7407751.53549  -5753477.14647  22093971.672    22093977.002
       233.000         191.000
  24128174.298    -7602694.43949  -5890296.99245  24128172.774    24128182.590
       213.000         149.000
  20799177.820    -4610123.96149  -3569531.23947  20799177.129    20799183.461
       241.000         209.000
 03  4 15 18 20 30.0000000  0  7G17G24G30G 5G 6G21G10
  23652684.721    -5079771.33349  -3932872.29145  23652683.978    23652692.426
       216.000         161.000
  23051387.991     5149466.32549   4007103.00946  23051387.606    23051394.411
       219.000         166.000
  20345699.109    -4491522.04049  -3485202.95948  20345699.395    20345704.456
       246.000         216.000
  20963403.896     1715780.96949   1341870.38847  20963403.348    20963409.800
       242.000         210.000
  22082141.002    -7469921.25449  -5801921.07047  22082140.902    22082147.169
       232.000         191.000
  24112723.950    -7683885.77849  -5953562.84945  24112722.939    24112730.827
       214.000         150.000
  20798127.306    -4615644.64149  -3573833.05347  20798126.657    20798132.481
       242.000         209.000
 03  4 15 18 21  0.0000000  0  7G17G24G30G 5G 6G21G10
  23638733.667    -5153083.37349  -3989998.48745  23638733.735    23638741.666
       216.000         162.000
  23066650.800     5229672.88549   4069601.60346  23066650.700    23066657.132
       221.000         166.000
  20344604.923    -4497271.95849  -3489683.42948  20344605.363    20344610.353
       246.000         216.000
  20975001.009     1776724.23549   1389358.60047  20975000.789    20975007.155
       242.000         209.000
  22070324.987    -7532014.43249  -5850305.35347  22070324.672    22070331.184
       232.000         191.000
  24097307.378    -7764899.74249  -6016690.47645  24097305.782    24097313.611
       215.000         150.000
  20797197.853    -4620529.08649  -3577639.10847  20797197.270    20797203.137
       242.000         209.000
 03  4 15 18 21 30.0000000  0  7G17G24G30G 5G 6G21G10
  23624821.120    -5226194.41849  -4046968.05045  23624820.697    23624828.989
       218.000         162.000
  23081919.950     5309912.15549   4132125.66546  23081920.209    23081926.534
       222.000         168.000
  20343622.630    -4502433.84649  -3493705.69748  20343623.093    20343628.169
       246.000         216.000
  20986685.503     1838126.30349   1437204.32147  20986685.380    20986691.838
       243.000         209.000
  22058523.627    -7594031.17649  -5898630.08347  22058523.732    22058529.276
       233.000         192.000
  24081924.371    -7845736.56049  -6079680.07545  24081922.922    24081930.510
       211.000         149.000
  20796389.334    -4624777.98449  -3580949.94047  20796388.700    20796394.656
       242.000         209.000
 03  4 15 18 22  0.0000000  0  7G17G24G30G 5G 6G21G10
  23610946.860    -5299104.02649  -4103780.64646  23610945.553    23610954.468
       218.000         163.000
  23097195.008     5390182.68649   4194674.09246  23097195.025    23097201.517
       225.000         170.000
  20342752.397    -4507007.02149  -3497269.22448  20342752.765    20342757.748
       246.000         216.000
  20998457.027     1899985.47949   1485406.23647  20998456.821    20998463.247
       243.000         209.000
  22046737.060    -7655970.22549  -5946894.25947  22046737.151    22046742.277
       234.000         192.000
  24066575.398    -7926395.11249  -6142530.77345  24066575.167    24066582.013
       213.000         149.000
  20795701.835    -4628391.17249  -3583765.40447  20795701.036    20795706.896
       243.000         209.000
 03  4 15 18 22 30.0000000  0  7G17G24G30G 5G 6G21G10
  23597110.909    -5371812.40449  -4160436.44546  23597110.670    23597119.013
       219.000         163.000
  23112475.664     5470482.22849   4257245.13246  23112475.656    23112482.592
       225.000         171.000
  20341994.155    -4510991.73249  -3500374.20748  20341994.590    20341999.562
       246.000         216.000
  21010315.059     1962299.38749   1533962.48847  21010314.872    21010321.020
       243.000         210.000
  22034965.295    -7717831.14149  -5995097.55647  22034965.531    22034970.895
       234.000         192.000
  24051260.540    -8006876.00049  -6205243.02345  24051260.329    24051267.231
       215.000         150.000
  20795135.144    -4631369.01849  -3586085.79247  20795134.308    20795140.075
       242.000         209.000
 03  4 15 18 23  0.0000000  0  7G17G24G30G 5G 6G21G10
  23583313.416    -5444319.31349  -4216935.24846  23583313.052    23583320.999
       219.000         164.000
  23127761.574     5550809.79549   4319838.00846  23127762.073    23127768.247
       225.000         173.000
  20341347.952    -4514387.44349  -3503020.23048  20341348.507    20341353.500
       246.000         216.000
  21022259.305     2025066.29749   1582871.71847  21022259.173    21022265.416
       243.000         209.000
  22023208.677    -7779613.02749  -6043239.26947  22023208.720    22023214.810
       235.000         193.000
  24035979.647    -8087178.83949  -6267816.53745  24035979.578    24035986.017
       217.000         151.000
  20794689.320    -4633711.34049  -3587910.96247  20794688.457    20794694.519
       242.000         209.000
 03  4 15 18 23 30.0000000  0  7G17G24G30G 5G 6G21G10
  23569554.331    -5516623.51049  -4273276.10546  23569553.688    23569562.019
       217.000         164.000
  23143052.654     5631164.76249   4382452.22946  23143052.778    23143059.127
       225.000         174.000
  20340814.097    -4517193.02549  -3505206.41648  20340814.457    20340819.431
       246.000         216.000
  21034289.519     2088285.05249   1632133.04347  21034289.065    21034295.485
       243.000         209.000
  22011467.359    -7841314.03249  -6091317.96447  22011466.839    22011472.891
       233.000         193.000
  24020732.780    -8167302.06949  -6330250.09945  24020731.444    24020738.157
       216.000         151.000
  20794364.641    -4635417.24549  -3589240.22947  20794363.901    20794369.948
       242.000         209.000
 03  4 15 18 24  0.0000000  0  7G17G24G30G 5G 6G21G10
  23555833.775    -5588724.27749  -4329458.43146  23555833.146    23555842.219
       219.000         164.000
  23158348.574     5711545.41049   4445086.46246  23158348.849    23158355.839
       225.000         175.000
  20340392.659    -4519407.83049  -3506932.25748  20340392.979    20340398.243
       246.000         216.000
  21046405.346     2151954.09549   1681745.23647  21046404.907    21046411.414
       242.000         209.000
  21999741.505    -7902932.96849  -6139332.71547  21999741.326    21999746.826
       233.000         192.000
  24005520.012    -8247245.37249  -6392543.45945  24005519.405    24005526.532
       214.000         151.000
  20794161.187    -4636486.49449  -3590073.40047  20794160.462    20794166.607
       242.000         210.000
 03  4 15 18 24 30.0000000  0  7G17G24G30G 5G 6G21G10
  23542152.258    -5660620.90849  -4385481.69246  23542151.278    23542160.416
       218.000         165.000
  23173649.384     5791951.84449   4507740.79346  23173648.907    23173655.042
       225.000         175.000
  20340083.802    -4521030.90349  -3508197.00148  20340084.283    20340089.390
       246.000         216.000
  21058606.588     2216072.25649   1731707.39447  21058606.250    21058612.479
       242.000         208.000
  21988031.793    -7964468.08049  -6187282.14047  21988031.882    21988037.412
       235.000         193.000
  23990341.697    -8327007.39749  -6454695.57045  23990341.752    23990348.465
       215.000         151.000
  20794078.948    -4636918.46249  -3590409.99247  20794078.349    20794084.278
       242.000         210.000
 03  4 15 18 25  0.0000000  0  7G17G24G30G 5G 6G21G10
  23528509.299    -5732314.27749  -4441346.56946  23528508.772    23528517.391
       219.000         164.000
  23188954.618     5872381.29449   4570413.05446  23188955.170    23188961.777
       225.000         175.000
  20339887.363    -4522063.29649  -3509001.48048  20339887.979    20339892.962
       246.000         216.000
  21070892.717     2280636.19149   1782016.90847  21070892.255    21070898.545
       242.000         208.000
  21976338.067    -8025919.64949  -6235166.46447  21976338.088    21976343.867
       234.000         193.000
  23975197.670    -8406589.10649  -6516707.18245  23975198.096    23975203.865
       216.000         152.000
  20794117.815    -4636714.40249  -3590250.98047  20794117.052    20794123.221
       242.000         209.000
 03  4 15 18 25 30.0000000  0  7G17G24G30G 5G 6G21G10
  23514905.355    -5803802.70249  -4497051.75346  23514904.850    23514913.043
       219.000         165.000
  23204264.102     5952833.09749   4633102.72046  23204264.102    23204271.105
       224.000         173.000
  20339803.661    -4522503.44849  -3509344.47448  20339804.217    20339809.167
       246.000         216.000
  21083263.560     2345645.22149   1832673.25947  21083263.191    21083269.588
       242.000         208.000
  21964660.482    -8087285.42349  -6282983.94247  21964660.422    21964666.031
       233.000         193.000
  23960088.604    -8485988.58549  -6578576.77645  23960088.976    23960093.143
       216.000         152.000
  20794277.856    -4635873.28349  -3589595.55847  20794277.291    20794283.080
       242.000         209.000
 03  4 15 18 26  0.0000000  0  7G17G24G30G 5G 6G21G10
  23501340.263    -5875088.04449  -4552598.68546  23501339.451    23501348.486
       219.000         165.000
  23219577.272     6033304.32649   4695807.53846  23219576.662    23219583.631
       222.000         172.000
  20339832.233    -4522353.29749  -3509227.48948  20339832.697    20339837.668
       246.000         216.000
  21095718.362     2411095.42749   1883673.37547  21095718.278    21095724.320
       242.000         208.000
  21952999.136    -8148566.34549  -6330735.30047  21952999.545    21953005.041
       235.000         194.000
  23945013.871    -8565207.62049  -6640305.78345  23945013.012    23945018.016
       216.000         152.000
  20794558.747    -4634396.96349  -3588445.16847  20794557.957    20794563.905
       242.000         208.000
 03  4 15 18 26 30.0000000  0  7G17G24G30G 5G 6G21G10
  23487813.945    -5946169.09349  -4607986.43646  23487813.355    23487822.597
       220.000         166.000
  23234894.019     6113794.48049   4758527.08846  23234893.568    23234901.091
       221.000         171.000
  20339973.405    -4521611.56349  -3508649.53348  20339973.749    20339978.979
       246.000         216.000
  21108256.901     2476985.65249   1935016.35947  21108256.618    21108263.004
       242.000         207.000
  21941354.370    -8209760.52549  -6378419.06147  21941354.077    21941360.098
       235.000         194.000
  23929973.580    -8644244.40549  -6701892.77845  23929972.964    23929979.584
       215.000         152.000
  20794960.732    -4632284.67749  -3586799.22647  20794960.099    20794966.123
       242.000         209.000
 03  4 15 18 27  0.0000000  0  7G17G24G30G 5G 6G21G10
  23474326.650    -6017045.13149  -4663214.43346  23474326.172    23474334.265
       221.000         167.000
  23250214.070     6194302.44049   4821260.51646  23250213.922    23250221.613
       220.000         170.000
  20340227.205    -4520277.66649  -3507610.14848  20340227.583    20340232.784
       246.000         216.000
  21120878.923     2543314.46949   1986701.09747  21120878.660    21120885.187
       242.000         207.000
  21929726.185    -8270866.35349  -6426033.98647  21929725.937    21929732.376
       234.000         194.000
  23914967.741    -8723099.00949  -6763337.80445  23914966.373    23914974.170
       214.000         152.000
  20795483.719    -4629536.28449  -3584657.61547  20795482.877    20795489.123
       242.000         209.000
 03  4 15 18 27 30.0000000  0  7G17G24G30G 5G 6G21G10
  23460878.567    -6087715.43449  -4718282.11646  23460878.112    23460885.046
       221.000         168.000
  23265537.388     6274827.46749   4884007.25546  23265537.274    23265545.346
       220.000         168.000
  20340593.868    -4518350.76149  -3506108.67548  20340594.170    20340599.345
       246.000         216.000
  21133584.117     2610080.59249   2038726.60247  21133583.535    21133590.256
       241.000         207.000
  21918115.209    -8331882.14749  -6473578.74847  21918115.215    21918120.949
       234.000         194.000
  23899996.922    -8801769.50649  -6824639.38645  23899995.697    23900003.254
       216.000         152.000
  20796127.827    -4626151.12449  -3582019.82647  20796127.221    20796133.186
       242.000         209.000
 03  4 15 18 28  0.0000000  0  7G17G24G30G 5G 6G21G10
  23447469.381    -6158180.79249  -4773190.10746  23447468.845    23447475.899
       221.000         168.000
  23280863.669     6355367.58249   4946765.73746  23280863.623    23280870.916
       219.000         168.000
  20341073.262    -4515831.65049  -3504145.74948  20341073.808    20341078.722
       246.000         216.000
  21146371.836     2677280.95249   2091090.46847  21146371.302    21146377.863
       241.000         206.000
  21906521.462    -8392807.89049  -6521053.33747  21906521.431    21906527.085
       234.000         195.000
  23885061.268    -8880256.42249  -6885797.91945  23885060.667    23885067.689
       215.000         153.000
  20796892.872    -4622130.61349  -3578886.95947  20796892.411    20796898.141
       242.000         209.000
 03  4 15 18 28 30.0000000  0  7G17G24G30G 5G 6G21G10
  23434099.368    -6228441.19249  -4827938.38846  23434099.510    23434107.222
       222.000         169.000
  23296192.498     6435921.00549   5009534.58946  23296192.462    23296199.685
       222.000         167.000
  20341665.345    -4512720.65749  -3501721.61848  20341665.838    20341670.865
       246.000         216.000
  21159241.920     2744913.41949   2143791.04447  21159241.722    21159247.696
       242.000         206.000
  21894944.962    -8453642.54849  -6568456.96247  21894945.065    21894950.723
       235.000         195.000
  23870160.620    -8958560.04749  -6946813.61645  23870159.962    23870166.802
       217.000         153.000
  20797778.805    -4617475.09949  -3575259.27647  20797778.328    20797784.142
       242.000         209.000
 03  4 15 18 29  0.0000000  0  7G17G24G30G 5G 6G21G10
  23420768.504    -6298496.02449  -4882526.46446  23420767.560    23420775.667
       222.000         170.000
  23311523.657     6516486.21649   5072312.63046  23311523.368    23311530.667
       223.000         168.000
  20342370.044    -4509017.57649  -3498836.12048  20342370.470    20342375.233
       246.000         216.000
  21172193.882     2812975.84049   2196826.64647  21172193.685    21172199.835
       242.000         206.000
  21883386.059    -8514385.09549  -6615788.80847  21883386.267    21883391.640
       236.000         195.000
  23855294.918    -9036679.63549  -7007685.91445  23855294.273    23855300.006
       214.000         153.000
  20798785.594    -4612184.83049  -3571136.98247  20798785.031    20798791.170
       243.000         209.000
 03  4 15 18 29 30.0000000  0  7G17G24G30G 5G 6G21G10
  23407476.707    -6368344.72149  -4936953.93346  23407476.291    23407483.822
       221.000         170.000
  23326856.978     6597062.89149   5135099.62446  23326857.962    23326864.122
       224.000         170.000
  20343187.454    -4504722.00449  -3495488.94648  20343187.884    20343192.774
       246.000         216.000
  21185227.334     2881466.62949   2250196.03647  21185227.342    21185233.320
       242.000         206.000
  21871845.043    -8575034.19349  -6663047.83047  21871845.247    21871850.476
       235.000         195.000
  23840464.093    -9114614.54549  -7068414.30145  23840463.361    23840469.711
       215.000         153.000
  20799913.139    -4606259.74549  -3566520.02847  20799912.670    20799918.496
       243.000         210.000
 03  4 15 18 30  0.0000000  0  7G17G24G30G 5G 6G21G10
  23394223.907    -6437988.20249  -4991221.48846  23394223.336    23394231.588
       222.000         171.000
  23342192.018     6677648.42649   5197893.50546  23342191.867    23342199.277
       225.000         171.000
  20344117.487    -4499834.63049  -3491680.62248  20344117.900    20344122.861
       246.000         216.000
  21198341.736     2950382.83549   2303896.92747  21198341.524    21198347.711
       242.000         206.000
  21860321.768    -8635589.58749  -6710233.83547  21860321.554    21860327.258
       235.000         195.000
  23825668.290    -9192365.66749  -7128999.48045  23825667.644    23825674.109
       216.000         153.000
  20801161.179    -4599701.12849  -3561409.40447  20801160.496    20801166.465
       242.000         209.000
 03  4 15 18 30 30.0000000  0  7G17G24G30G 5G 6G21G10
  23381010.562    -6507424.15349  -5045327.34846  23381009.774    23381016.778
       222.000         171.000
  23357528.862     6758243.82449   5260695.07746  23357529.219    23357536.466
       226.000         173.000
  20345160.526    -4494353.45549  -3487409.59848  20345161.028    20345166.155
       246.000         216.000
  21211537.028     3019724.51449   2357929.35447  21211536.889    21211543.278
       241.000         206.000
  21848816.872    -8696048.10349  -6757344.35647  21848816.779    21848822.338
       236.000         196.000
  23810908.049    -9269930.50049  -7189439.49745  23810907.212    23810914.780
       214.000         153.000
  20802530.165    -4592507.01849  -3555803.60747  20802529.349    20802535.460
       241.000         209.000
 03  4 15 18 31  0.0000000  0  7G17G24G30G 5G 6G21G10
  23367836.656    -6576653.02649  -5099271.84146  23367836.294    23367842.929
       221.000         171.000
  23372867.127     6838846.69349   5323502.47446  23372866.721    23372874.213
       225.000         173.000
  20346316.403    -4488279.48349  -3482676.64648  20346316.938    20346321.857
       246.000         216.000
  21224812.701     3089488.59549   2412290.93047  21224812.538    21224818.604
       241.000         205.000
  21837330.467    -8756409.44349  -6804379.15647  21837330.081    21837335.993
       236.000         196.000
  23796183.187    -9347309.98649  -7249735.07745  23796182.246    23796189.791
       216.000         155.000
  20804019.707    -4584678.86849  -3549703.74947  20804019.107    20804024.945
       242.000         209.000
 03  4 15 18 31 30.0000000  0  7G17G24G30G 5G 6G21G10
  23354702.183    -6645674.97249  -5153055.07746  23354701.187    23354709.230
       222.000         171.000
  23388206.596     6919455.58549   5386314.55846  23388206.382    23388213.948
       226.000         174.000
  20347585.016    -4481612.89249  -3477481.91448  20347585.600    20347590.643
       246.000         217.000
  21238168.262     3159672.58749   2466979.69747  21238168.202    21238174.370
       241.000         205.000
  21825862.703    -8816672.64649  -6851337.48747  21825862.630    21825868.239
       235.000         196.000
  23781493.463    -9424504.72749  -7309886.71745  23781492.655    23781499.697
       218.000         156.000
  20805629.984    -4576217.37249  -3543110.36947  20805629.353    20805635.258
       242.000         209.000
 03  4 15 18 32  0.0000000  0  7G17G24G30G 5G 6G21G10
  23341607.254    -6714488.69749  -5206676.07646  23341606.252    23341615.223
       221.000         172.000
  23403547.142     7000070.43049   5449131.28646  23403546.912    23403554.577
       225.000         175.000
  20348966.678    -4474352.54949  -3471824.52248  20348967.193    20348972.171
       247.000         217.000
  21251603.647     3230275.73549   2521995.08347  21251603.461    21251609.946
       241.000         205.000
  21814414.091    -8876835.40149  -6898217.54647  21814414.095    21814419.769
       236.000         196.000
  23766839.506    -9501511.68849  -7369892.03545  23766839.010    23766844.851
       218.000         156.000
  20807360.851    -4567121.61649  -3536022.76647  20807360.444    20807366.322
       242.000         209.000
 03  4 15 18 32 30.0000000  0  7G17G24G30G 5G 6G21G10
  23328551.610    -6783095.42049  -5260135.79346  23328550.950    23328559.604
       221.000         172.000
  23418888.373     7080688.93749   5511950.85046  23418889.001    23418896.142
       225.000         176.000
  20350460.985    -4466500.08449  -3465705.74048  20350461.389    20350466.477
       246.000         217.000
  21265118.152     3301294.53849   2577334.35547  21265117.925    21265124.096
       241.000         205.000
  21802984.523    -8936898.13049  -6945019.65747  21802984.568    21802990.142
       235.000         196.000
  23752220.983    -9578331.97849  -7429751.89545  23752220.620    23752225.932
       217.000         157.000
  20809212.074    -4557393.50149  -3528442.41147  20809211.453    20809217.541
       242.000         209.000
 03  4 15 18 33  0.0000000  0  7G17G24G30G 5G 6G21G10
  23315535.593    -6851494.49549  -5313433.68746  23315535.161    23315541.834
       222.000         172.000
  23434230.118     7161310.26349   5574772.60846  23434230.880    23434237.488
       223.000         175.000
  20352068.051    -4458054.81749  -3459125.03048  20352068.486    20352073.517
       246.000         216.000
  21278711.451     3372727.52849   2632996.37647  21278711.205    21278717.456
       241.000         204.000
  21791574.257    -8996858.97549  -6991742.38147  21791574.077    21791580.242
       235.000         196.000
  23737638.222    -9654964.77649  -7489465.64845  23737637.366    23737644.249
       219.000         158.000
  20811183.547    -4547032.91449  -3520369.22247  20811182.648    20811188.705
       241.000         209.000
 03  4 15 18 33 30.0000000  0  7G17G24G30G 5G 6G21G10
  23302559.193    -6919686.23949  -5366570.03446  23302559.424    23302567.079
       222.000         172.000
  23449572.161     7241932.90249   5637595.38446  23449573.208    23449579.633
       222.000         174.000
  20353787.836    -4449017.35249  -3452082.87148  20353788.425    20353793.376
       246.000         216.000
  21292383.045     3444572.16849   2688979.15447  21292382.700    21292389.210
       241.000         204.000
  21780183.600    -9056717.07349  -7038385.04847  21780183.793    21780189.476
       235.000         196.000
  23723091.095    -9731409.56649  -7549032.91445  23723090.716    23723097.768
       217.000         158.000
  20813275.265    -4536040.69849  -3511803.85347  20813274.270    20813280.540
       242.000         208.000
 03  4 15 18 34  0.0000000  0  7G17G24G30G 5G 6G21G10
  23289622.314    -6987669.76949  -5419544.14046  23289622.180    23289629.821
       221.000         172.000
  23464914.174     7322555.48849   5700418.11446  23464914.368    23464921.398
       220.000         173.000
  20355620.302    -4439387.75349  -3444579.30648  20355620.817    20355625.719
       246.000         216.000
  21306132.562     3516826.27949   2745281.00447  21306132.142    21306139.098
       240.000         204.000
  21768812.751    -9116471.19049  -7084946.68047  21768812.575    21768818.138
       235.000         196.000
  23708579.610    -9807667.23449  -7608454.36645  23708578.902    23708585.860
       218.000         158.000
  20815487.087    -4524417.44549  -3502746.76147  20815486.169    20815492.414
       242.000         208.000
 03  4 15 18 34 30.0000000  0  7G17G24G30G 5G 6G21G10
  23276724.976    -7055444.99749  -5472355.93646  23276723.939    23276732.740
       221.000         172.000
  23480256.040     7403177.12449   5763240.10146  23480256.187    23480263.222
       219.000         171.000
  20357565.449    -4429166.18749  -3436614.47348  20357565.990    20357570.778
       247.000         216.000
  21319959.623     3589487.76249   2801900.29147  21319959.439    21319965.781
       241.000         204.000
  21757461.934    -9176119.96149  -7131426.23647  21757461.833    21757467.893
       236.000         197.000
  23694104.027    -9883736.30949  -7667728.86345  23694103.573    23694109.970
       218.000         158.000
  20817818.930    -4512163.38149  -3493198.14447  20817818.314    20817824.428
       243.000         209.000
 03  4 15 18 35  0.0000000  0  7G17G24G30G 5G 6G21G10
  23263867.309    -7123011.74949  -5525005.29346  23263867.160    23263875.560
       222.000         172.000
  23495597.465     7483796.63549   5826060.44846  23495597.017    23495604.607
       219.000         169.000
  20359623.220    -4418352.64149  -3428188.34848  20359623.796    20359628.798
       246.000         216.000
  21333863.768     3662554.72349   2858835.53847  21333863.364    21333869.968
       239.000         203.000
  21746131.477    -9235662.11149  -7177822.70247  21746131.596    21746137.317
       236.000         197.000
  23679664.380    -9959616.57349  -7726856.25745  23679664.310    23679670.542
       219.000         158.000
  20820270.676    -4499279.24749  -3483158.55847  20820270.197    20820276.061
       242.000         209.000
 03  4 15 18 35 30.0000000  0  7G17G24G30G 5G 6G21G10
  23251049.574    -7190370.24749  -5577492.36346  23251049.174    23251056.832
       223.000         172.000
  23510938.237     7564412.88549   5888878.25246  23510937.876    23510945.503
       218.000         168.000
  20361793.588    -4406947.46649  -3419301.21548  20361794.083    20361799.091
       246.000         216.000
  21347844.702     3736024.71149   2916084.82947  21347844.275    21347851.162
       240.000         203.000
  21734821.470    -9295096.51949  -7224135.21247  21734821.416    21734826.932
       237.000         197.000
  23665260.960   -10035307.83549  -7785836.37045  23665259.941    23665265.879
       219.000         158.000
  20822842.341    -4485765.49449  -3472628.35747  20822841.727    20822847.938
       242.000         210.000
 03  4 15 18 36  0.0000000  0  7G17G24G30G 5G 6G21G10
  23238271.297    -7257520.85349  -5629817.44246  23238270.820    23238277.237
       224.000         172.000
  23526278.055     7645024.12049   5951692.15046  23526277.477    23526284.909
       220.000         168.000
  20364076.365    -4394951.57649  -3409953.78748  20364076.733    20364081.865
       246.000         216.000
  21361901.748     3809894.88249   2973645.95347  21361901.303    21361908.222
       240.000         203.000
  21723532.065    -9354422.59749  -7270363.31647  21723531.952    21723537.481
       237.000         197.000
  23650893.166   -10110810.39049  -7844669.41545  23650891.698    23650898.405
       218.000         158.000
  20825533.479    -4471623.46149  -3461608.58747  20825532.994    20825538.857
       242.000         210.000
 03  4 15 18 36 30.0000000  0  7G17G24G30G 5G 6G21G10
  23225532.452    -7324462.51749  -5681979.71446  23225532.099    23225540.362
       223.000         172.000
  23541616.786     7725629.82749   6014501.73146  23541616.988    23541623.685
       221.000         168.000
  20366471.569    -4382364.41549  -3400145.62848  20366472.195    20366477.089
       246.000         216.000
  21376034.717     3884163.89649   3031517.85547  21376034.509    21376041.014
       240.000         203.000
  21712263.660    -9413638.21949  -7316505.34847  21712263.803    21712269.351
       237.000         198.000
  23636561.322   -10186123.23549  -7903354.64045  23636559.640    23636567.569
       218.000         159.000
  20828344.095    -4456853.36149  -3450099.41347  20828343.278    20828349.776
       241.000         209.000
 03  4 15 18 37  0.0000000  0  7G17G24G30G 5G 6G21G10
  23212833.673    -7391194.62849  -5733978.69946  23212833.430    23212841.038
       225.000         173.000
  23556954.324     7806229.00249   6077306.24746  23556953.560    23556961.846
       221.000         168.000
  20368979.349    -4369186.05349  -3389876.79348  20368979.959    20368984.901
       246.000         216.000
  21390243.165     3958829.77649   3089699.00347  21390242.993    21390249.516
       240.000         202.000
  21701016.657    -9472741.86949  -7362560.12947  21701016.489    21701022.209
       238.000         198.000
  23622265.590   -10261245.93849  -7961891.71245  23622264.457    23622272.878
       219.000         161.000
  20831274.184    -4441455.31849  -3438100.93447  20831273.449    20831279.828
       242.000         209.000
 03  4 15 18 37 30.0000000  0  7G17G24G30G 5G 6G21G10
  23200174.862    -7457717.17349  -5785814.39846  23200174.423    23200182.238
       225.000         174.000
  23572290.349     7886820.52049   6140104.78846  23572290.013    23572296.927
       222.000         168.000
  20371599.590    -4355416.87949  -3379147.58648  20371600.025    20371605.099
       247.000         216.000
  21404526.751     4033890.24549   3148187.62247  21404526.635    21404533.012
       239.000         202.000
  21689791.146    -9531732.41949  -7408526.78047  21689791.180    21689796.875
       237.000         198.000
  23608006.349   -10336178.10049  -8020280.32045  23608006.237    23608012.786
       220.000         162.000
  20834323.670    -4425430.31549  -3425613.92147  20834323.178    20834329.247
       242.000         209.000
 03  4 15 18 38  0.0000000  0  7G17G24G30G 5G 6G21G10
  23187555.864    -7524030.46149  -5837487.03446  23187555.379    23187562.915
       225.000         174.000
  23587624.693     7967403.03249   6202896.31346  23587624.337    23587631.543
       222.000         167.000
  20374332.117    -4341057.63049  -3367958.57748  20374332.603    20374337.510
       247.000         216.000
  21418884.939     4109342.83249   3206981.79047  21418884.655    21418891.408
       239.000         202.000
  21678587.296    -9590609.03649  -7454404.65647  21678587.276    21678592.978
       238.000         199.000
  23593783.507   -10410920.04849  -8078520.70145  23593782.974    23593789.451
       222.000         162.000
  20837492.212    -4408779.46649  -3412639.23847  20837491.715    20837497.685
       242.000         209.000
 03  4 15 18 38 30.0000000  0  7G17G24G30G 5G 6G21G10
  23174976.434    -7590135.74749  -5888997.58946  23174975.518    23174984.053
       224.000         175.000
  23602956.992     8047974.54049   6265679.26446  23602956.713    23602964.117
       222.000         166.000
  20377176.628    -4326109.70649  -3356310.86648  20377177.304    20377182.082
       247.000         216.000
  21433317.082     4185183.96449   3266078.71547  21433316.814    21433323.591
       240.000         202.000
  21667405.165    -9649371.71049  -7500193.74147  21667405.168    21667410.995
       238.000         199.000
  23579596.726   -10485472.48449  -8136613.41746  23579597.245    23579602.624
       221.000         163.000
  20840779.530    -4391504.54349  -3399178.25747  20840778.849    20840784.914
       242.000         209.000
 03  4 15 18 39  0.0000000  0  7G17G24G30G 5G 6G21G10
  23162436.813    -7656031.43749  -5940344.83146  23162436.129    23162444.779
       225.000         175.000
  23618287.310     8128535.43549   6328453.95946  23618287.200    23618294.939
       221.000         165.000
  20380133.346    -4310572.19049  -3344203.73448  20380133.887    20380138.641
       246.000         216.000
  21447823.035     4261412.95749   3325477.87347  21447823.261    21447829.483
       239.000         202.000
  21656245.250    -9708017.46049  -7545891.72047  21656245.183    21656251.060
       238.000         199.000
  23565446.105   -10559833.55349  -8194557.02145  23565445.661    23565451.584
       220.000         162.000
  20844185.776    -4373604.81449  -3385230.41947  20844185.241    20844191.421
       242.000         209.000
 03  4 15 18 39 30.0000000  0  7G17G24G30G 5G 6G21G10
  23149937.333    -7721717.62149  -5991528.80746  23149936.882    23149944.027
       224.000         175.000
  23633615.167     8209083.73649   6391218.80746  23633614.839    23633621.131
       220.000         164.000
  20383202.011    -4294445.97849  -3331637.87448  20383202.383    20383207.429
       246.000         216.000
  21462402.295     4338027.00649   3385177.07347  21462402.048    21462408.720
       239.000         202.000
  21645107.732    -9766545.59249  -7591498.04947  21645107.984    21645113.367
       238.000         199.000
  23551331.774   -10634003.66349  -8252351.80845  23551331.612    23551337.272
       221.000         162.000
  20847710.643    -4355081.72949  -3370796.84847  20847709.871    20847716.261
       242.000         209.000
 03  4 15 18 40  0.0000000  0  7G17G24G30G 5G 6G21G10
  23137477.342    -7787194.45349  -6042549.66746  23137476.249    23137484.987
       224.000         175.000
  23648940.365     8289618.11649   6453972.82846  23648940.709    23648947.489
       219.000         163.000
  20386382.648    -4277731.77449  -3318613.83848  20386383.211    20386388.180
       247.000         216.000
  21477054.303     4415023.48049   3445174.26747  21477054.045    21477060.464
       239.000         201.000
  21633992.696    -9824955.20349  -7637012.01547  21633992.489    21633998.374
       238.000         199.000
  23537254.132   -10707982.79749  -8309997.78645  23537253.598    23537260.219
       220.000         162.000
  20851353.865    -4335936.37549  -3355878.39147  20851353.189    20851359.581
       241.000         209.000
 03  4 15 18 40 30.0000000  0  7G17G24G30G 5G 6G21G10
  23125057.243    -7852461.29149  -6093406.90046  23125056.836    23125064.736
       224.000         175.000
  23664262.901     8370138.43249   6516715.88945  23664263.281    23664271.311
       217.000         162.000
  20389675.267    -4260429.22449  -3305131.35448  20389675.711    20389680.951
       246.000         216.000
  21491778.774     4492400.92949   3505468.32247  21491778.471    21491784.951
       238.000         201.000
  21622900.674    -9883244.01849  -7682431.85747  21622900.587    21622906.343
       238.000         199.000
  23523212.913   -10781769.84249  -8367494.09545  23523212.369    23523219.724
       219.000         162.000
  20855115.442    -4316168.94649  -3340475.20447  20855114.894    20855120.980
       242.000         209.000
 03  4 15 18 41  0.0000000  0  7G17G24G30G 5G 6G21G10
  23112677.508    -7917518.17249  -6144100.52446  23112676.367    23112684.404
       224.000         174.000
  23679582.585     8450643.53149   6579447.07945  23679582.676    23679589.307
       217.000         161.000
  20393079.649    -4242539.06849  -3291190.99448  20393080.004    20393085.271
       246.000         216.000
  21506575.245     4570156.72449   3566057.19947  21506574.998    21506581.670
       239.000         200.000
  21611831.893    -9941411.01149  -7727756.77247  21611831.980    21611837.509
       238.000         200.000
  23509208.117   -10855364.80849  -8424840.72445  23509206.965    23509214.263
       219.000         161.000
  20858995.200    -4295780.81749  -3324588.36247  20858994.629    20859000.572
       243.000         209.000
 03  4 15 18 41 30.0000000  0  7G17G24G30G 5G 6G21G10
  23100337.414    -7982365.59349  -6194630.93346  23100336.250    23100344.316
       223.000         174.000
  23694899.093     8531131.72949   6642165.10145  23694898.713    23694907.146
       217.000         160.000
  20396595.613    -4224062.54649  -3276793.72848  20396596.090    20396601.310
       246.000         216.000
  21521443.203     4648287.99749   3626938.65047  21521443.355    21521449.813
       239.000         200.000
  21600786.407    -9999455.35549  -7772986.11947  21600786.307    21600791.961
       238.000         200.000
  23495239.824   -10928767.99449  -8482037.92345  23495238.855    23495246.039
       218.000         161.000
  20862992.816    -4274773.05449  -3308218.68447  20862992.211    20862998.305
       242.000         209.000
 03  4 15 18 42  0.0000000  0  7G17G24G30G 5G 6G21G10
  23088036.988    -8047004.11849  -6244998.55146  23088035.825    23088044.112
       223.000         173.000
  23710212.059     8611601.76149   6704868.97745  23710211.422    23710220.239
       215.000         159.000
  20400223.033    -4205000.48049  -3261940.19248  20400223.429    20400228.721
       248.000         216.000
  21536382.121     4726792.19849   3688110.68947  21536382.013    21536388.824
       238.000         200.000
  21589764.371   -10057376.24149  -7818119.27147  21589764.167    21589769.908
       238.000         200.000
  23481307.918   -11001979.61749  -8539085.86145  23481307.469    23481314.165
       221.000         161.000
  20867108.137    -4253147.11049  -3291367.31147  20867107.792    20867113.551
       242.000         209.000
 03  4 15 18 42 30.0000000  0  7G17G24G30G 5G 6G21G10
  23075776.393    -8111432.06849  -6295202.09846  23075775.303    23075783.882
       222.000         174.000
  23725521.604     8692053.87349   6767558.86445  23725521.104    23725528.404
       212.000         158.000
  20403961.967    -4185352.17549  -3246629.84448  20403962.381    20403967.613
       247.000         216.000
  21551391.796     4805668.19049   3749572.44547  21551391.512    21551398.507
       238.000         200.000
  21578766.345   -10115171.09449  -7863154.21347  21578766.161    21578772.123
       237.000         200.000
  23467412.964   -11074998.44849  -8595983.57546  23467413.408    23467420.057
       221.000         163.000
  20871341.151    -4230902.82649  -3274034.11047  20871340.622    20871346.529
       242.000         209.000
 03  4 15 18 43  0.0000000  0  7G17G24G30G 5G 6G21G10
  23063556.030    -8175649.88549  -6345241.90146  23063555.643    23063563.239
       225.000         175.000
  23740827.508     8772486.93649   6830233.94245  23740827.247    23740835.868
       217.000         158.000
  20407812.354    -4165118.26549  -3230863.18848  20407812.825    20407818.006
       248.000         216.000
  21566471.738     4884913.66249   3811322.10947  21566471.492    21566478.470
       238.000         200.000
  21567792.615   -10172838.44349  -7908089.80447  21567792.618    21567798.386
       238.000         201.000
  23453554.944   -11147823.93849  -8652730.61546  23453554.032    23453561.172
       220.000         164.000
  20875691.583    -4208041.31749  -3256219.95847  20875691.000    20875697.021
       242.000         210.000
 03  4 15 18 43 30.0000000  0  7G17G24G30G 5G 6G21G10
  23051375.876    -8239658.19749  -6395118.45546  23051374.625    23051383.031
       225.000         176.000
  23756129.454     8852898.82649   6892892.49745  23756129.524    23756137.704
       216.000         157.000
  20411773.889    -4144300.26849  -3214641.39848  20411774.493    20411779.505
       248.000         216.000
  21581621.317     4964525.21149   3873357.02447  21581621.085    21581627.592
       237.000         199.000
  21556843.280   -10230377.98249  -7952925.79947  21556843.388    21556849.132
       238.000         201.000
  23439733.101   -11220456.73649  -8709327.52946  23439731.921    23439739.700
       221.000         164.000
  20880159.115    -4184564.48949  -3237926.33747  20880158.567    20880164.423
       243.000         209.000
 03  4 15 18 44  0.0000000  0  7G17G24G30G 5G 6G21G10
  23039235.488    -8303455.71449  -6444830.75646  23039235.099    23039242.178
       225.000         176.000
  23771427.442     8933289.71949   6955534.70245  23771427.573    23771435.319
       217.000         158.000
  20415846.703    -4122897.83149  -3197964.20048  20415847.293    20415852.112
       248.000         216.000
  21596840.311     5044501.54149   3935676.18347  21596839.809    21596846.478
       237.000         198.000
  21545918.665   -10287787.26649  -7997660.29847  21545918.471    21545924.399
       238.000         201.000
  23425948.194   -11292895.73849  -8765773.41746  23425948.333    23425954.419
       222.000         165.000
  20884743.769    -4160472.21649  -3219153.14947  20884743.023    20884748.808
       242.000         209.000
 03  4 15 18 44 30.0000000  0  7G17G24G30G 5G 6G21G10
  23027135.130    -8367042.91449  -6494379.17346  23027134.666    23027141.980
       224.000         176.000
  23786721.102     9013658.07349   7018159.33145  23786721.306    23786728.415
       217.000         157.000
  20420030.458    -4100912.36849  -3180832.69948  20420031.137    20420035.999
       248.000         216.000
  21612128.223     5124839.48749   3998277.11747  21612128.265    21612134.774
       238.000         198.000
  21535018.878   -10345065.68549  -8042292.82247  21535018.887    21535024.590
       238.000         202.000
  23412200.412   -11365141.38549  -8822068.64446  23412200.331    23412206.490
       222.000         165.000
  20889445.075    -4135766.41049  -3199901.87947  20889444.399    20889450.601
       242.000         209.000
 03  4 15 18 45  0.0000000  0  7G17G24G30G 5G 6G21G10
  23015074.721    -8430420.46549  -6543764.22146  23015074.795    23015082.182
       226.000         176.000
  23802010.304     9094002.63049   7080765.41445  23802010.451    23802017.710
       216.000         155.000
  20424324.891    -4078344.99549  -3163247.76048  20424325.424    20424330.547
       247.000         216.000
  21627484.447     5205536.33749   4061157.70347  21627484.114    21627490.834
       237.000         197.000
  21524144.240   -10402212.37649  -8086822.70747  21524144.335    21524149.740
       239.000         202.000
  23398489.266   -11437193.95349  -8878213.42846  23398489.053    23398495.176
       222.000         165.000
  20894262.888    -4110448.61549  -3180173.74147  20894262.483    20894268.457
       243.000         210.000
 03  4 15 18 45 30.0000000  0  7G17G24G30G 5G 6G21G10
  23003054.365    -8493587.76949  -6592985.43646  23003054.017    23003061.160
       226.000         176.000
  23817294.807     9174322.67749   7143352.43245  23817295.160    23817302.227
       214.000         152.000
  20428730.026    -4055195.77349  -3145209.42948  20428730.334    20428735.342
       247.000         215.000
  21642908.469     5286590.39149   4124316.63947  21642908.226    21642914.930
       236.000         197.000
  21513295.148   -10459225.11749  -8131248.20647  21513295.326    21513300.348
       239.000         202.000
  23384814.994   -11509052.72649  -8934207.19246  23384814.170    23384821.401
       222.000         165.000
  20899197.093    -4084519.43849  -3159969.19647  20899196.257    20899202.579
       242.000         210.000
 03  4 15 18 46  0.0000000  0  7G17G24G30G 5G 6G21G10
  22991074.044    -8556544.86049  -6642042.84646  22991073.921    22991080.451
       225.000         177.000
  23832574.398     9254617.40849   7205919.69245  23832573.872    23832581.827
       216.000         149.000
  20433245.694    -4031465.74649  -3126718.53048  20433246.198    20433251.436
       248.000         215.000
  21658400.096     5367999.01449   4187751.85847  21658399.972    21658406.605
       236.000         196.000
  21502471.731   -10516102.67849  -8175568.38147  21502471.829    21502476.804
       239.000         202.000
  23371177.435   -11580717.57549  -8990049.86646  23371176.101    23371184.163
       221.000         165.000
  20904247.342    -4057980.10349  -3139289.20547  20904246.621    20904252.724
       241.000         209.000
 03  4 15 18 46 30.0000000  0  7G17G24G30G 5G 6G21G10
  22979133.759    -8619291.68649  -6690936.42246  22979134.027    22979140.455
       227.000         178.000
  23847848.991     9334886.03649   7268466.62945  23847849.857    23847856.243
       214.000         145.000
  20437871.864    -4007155.31149  -3107775.36948  20437872.475    20437877.482
       248.000         216.000
  21673958.738     5449759.98649   4251461.63647  21673958.511    21673965.671
       235.000         196.000
  21491674.298   -10572843.44749  -8219781.96147  21491674.264    21491679.815
       239.000         202.000
  23357577.075   -11652187.91049  -9045740.96046  23357576.916    23357583.332
       223.000         165.000
  20909413.437    -4030831.65649  -3118134.57347  20909412.795    20909419.075
       242.000         209.000
 03  4 15 18 47  0.0000000  0  7G17G24G30G 5G 6G21G10
  22967233.445    -8681829.17149  -6739666.87446  22967232.836    22967240.351
       227.000         178.000
  23863118.276     9415126.70749   7330991.77045  23863117.777    23863124.842
       211.000         144.000
  20442608.112    -3982266.13849  -3088381.23948  20442608.447    20442613.800
       247.000         216.000
  21689583.697     5531869.92849   4315443.34147  21689583.544    21689590.711
       235.000         196.000
  21480902.998   -10629446.81349  -8263888.47147  21480903.080    21480908.768
       239.000         202.000
  23344013.878   -11723464.53949  -9101281.09846  23344013.346    23344018.452
       224.000         165.000
  20914695.191    -4003076.05049  -3096506.82947  20914694.688    20914700.846
       242.000         209.000
 03  4 15 18 47 30.0000000  0  7G17G24G30G 5G 6G21G10
  22955372.883    -8744156.24149  -6788233.38046  22955372.117    22955379.551
       226.000         178.000
  23878382.157     9495339.35849   7393495.08945  23878382.010    23878389.004
       213.000         143.000
  20447454.484    -3956798.27349  -3068536.17848  20447454.832    20447459.944
       247.000         215.000
  21705274.916     5614327.34049   4379695.79947  21705274.501    21705281.698
       236.000         195.000
  21470158.254   -10685910.64849  -8307886.25647  21470158.279    21470163.670
       239.000         203.000
  23330487.321   -11794546.53449  -9156669.60146  23330486.290    23330493.047
       222.000         165.000
  20920092.357    -3974713.83149  -3074406.41147  20920091.762    20920097.803
       242.000         209.000
 03  4 15 18 48  0.0000000  0  7G17G24G30G 5G 6G21G10
  22943552.240    -8806272.50949  -6836635.62346  22943551.720    22943560.043
       225.000         178.000
  23893640.555     9575523.36649   7455976.05545  23893640.007    23893646.766
       212.000         142.000
  20452410.939    -3930752.04549  -3048240.44548  20452411.390    20452416.594
       248.000         215.000
  21721031.833     5697130.16549   4444217.40847  21721031.563    21721038.734
       235.000         195.000
  21459440.466   -10742233.17449  -8351773.93247  21459440.578    21459446.065
       240.000         203.000
  23316997.743   -11865433.41249  -9211906.07246  23316997.309    23317003.793
       223.000         166.000
  20925604.719    -3945745.95149  -3051834.04947  20925604.016    20925610.344
       242.000         209.000
 03  4 15 18 48 30.0000000  0  7G17G24G30G 5G 6G21G10
  22931771.866    -8868178.19049  -6884873.77146  22931772.154    22931778.269
       226.000         178.000
  23908893.422     9655677.58449   7518433.85545  23908893.837    23908901.914
       210.000         143.000
  20457477.223    -3904128.78649  -3027495.07648  20457477.793    20457482.858
       247.000         215.000
  21736853.897     5780275.68549   4509006.05847  21736853.380    21736860.734
       234.000         194.000
  21448749.783   -10798413.23949  -8395550.59747  21448749.710    21448755.211
       240.000         203.000
  23303545.588   -11936125.15549  -9266990.48046  23303545.021    23303551.239
       225.000         167.000
  20931232.010    -3916173.99749  -3028790.97847  20931231.510    20931237.533
       242.000         209.000
 03  4 15 18 49  0.0000000  0  7G17G24G30G 5G 6G21G10
  22920031.587    -8929874.45849  -6932948.72046  22920031.053    22920038.670
       227.000         178.000
  23924140.363     9735800.52749   7580867.25545  23924140.412    23924147.041
       212.000         145.000
  20462652.984    -3876930.28349  -3006301.46148  20462653.680    20462658.712
       248.000         215.000
  21752740.586     5863760.65649   4574059.22347  21752740.671    21752747.387
       235.000         194.000
  21438086.287   -10854450.20149  -8439215.75247  21438086.092    21438091.670
       239.000         203.000
  23290130.516   -12006622.56549  -9321923.46246  23290130.718    23290135.616
       226.000         168.000
  20936973.995    -3886000.05449  -3005278.81547  20936973.315    20936979.359
       243.000         209.000
 03  4 15 18 49 30.0000000  0  7G17G24G30G 5G 6G21G10
  22908331.114    -8991360.97949  -6980860.24946  22908330.573    22908338.594
       226.000         178.000
  23939381.322     9815891.42749   7643275.67845  23939382.400    23939388.669
       210.000         146.000
  20467938.094    -3849157.00449  -2984659.97648  20467938.481    20467943.836
       247.000         215.000
  21768691.596     5947582.86449   4639375.16647  21768691.818    21768698.347
       235.000         194.000
  21427450.338   -10910342.40749  -8482768.11447  21427450.385    21427455.938
       240.000         203.000
  23276752.621   -12076924.92549  -9376704.45246  23276752.420    23276757.814
       225.000         168.000
  20942830.314    -3855225.31749  -2981298.50847  20942829.701    20942835.571
       243.000         209.000
 03  4 15 18 50  0.0000000  0  7G17G24G30G 5G 6G21G10
  22896670.357    -9052638.39349  -7028608.85046  22896670.295    22896677.423
       226.000         179.000
  23954615.719     9895948.58449   7705657.80845  23954616.264    23954623.647
       214.000         147.000
  20473332.221    -3820810.62849  -2962571.92348  20473332.767    20473338.064
       247.000         215.000
  21784706.082     6031739.20849   4704951.46647  21784705.772    21784712.471
       235.000         193.000
  21416842.111   -10966088.95949  -8526206.98347  21416842.079    21416847.817
       240.000         204.000
  23263411.414   -12147032.96449  -9431334.02746  23263410.276    23263416.745
       223.000         168.000
  20948800.641    -3823851.36649  -2956851.28547  20948799.828    20948806.096
       242.000         209.000
 03  4 15 18 50 30.0000000  0  7G17G24G30G 5G 6G21G10
  22885049.971    -9113704.69349  -7076192.94246  22885050.070    22885056.858
       228.000         179.000
  23969843.935     9975973.18049   7768014.54845  23969843.802    23969851.434
       212.000         148.000
  20478835.576    -3791890.38149  -2940036.69548  20478836.267    20478841.383
       248.000         215.000
  21800783.958     6116228.87149   4770787.51047  21800783.282    21800791.123
       234.000         193.000
  21406262.177   -11021686.71449  -8569529.89847  21406262.103    21406267.952
       239.000         204.000
  23250107.261   -12216944.84849  -9485810.75546  23250106.836    23250112.847
       224.000         168.000
  20954884.860    -3791878.32449  -2931937.23347  20954884.146    20954890.433
       241.000         209.000
 03  4 15 18 51  0.0000000  0  7G17G24G30G 5G 6G21G10
  22873469.425    -9174561.10449  -7123613.46446  22873468.367    22873475.823
       227.000         179.000
  23985065.684    10055963.50949   7830344.62845  23985065.944    23985074.342
       214.000         151.000
  20484447.812    -3762398.24449  -2917055.84548  20484448.441    20484453.486
       248.000         215.000
  21816924.628     6201048.54849   4836880.70647  21816924.078    21816931.850
       234.000         192.000
  21395710.670   -11077135.02449  -8612736.36547  21395710.788    21395716.577
       240.000         204.000
  23236840.762   -12286661.16049  -9540135.07346  23236840.510    23236846.428
       225.000         169.000
  20961082.702    -3759308.41849  -2906558.09547  20961081.905    20961088.029
       242.000         208.000
 03  4 15 18 51 30.0000000  0  7G17G24G30G 5G 6G21G10
  22861928.487    -9235208.26649  -7170870.94546  22861927.377    22861934.845
       227.000         179.000
  24000280.608    10135918.17049   7892646.89845  24000280.771    24000288.194
       215.000         152.000
  20490168.546    -3732335.78949  -2893630.58348  20490169.111    20490174.286
       248.000         215.000
  21833127.448     6286194.96549   4903228.50247  21833126.841    21833134.435
       233.000         192.000
  21385187.788   -11132433.07249  -8655825.74547  21385187.892    21385193.449
       240.000         204.000
  23223611.209   -12356182.64849  -9594307.60346  23223610.309    23223617.072
       223.000         169.000
  20967393.734    -3726143.73949  -2880715.50347  20967393.016    20967399.262
       241.000         208.000
 03  4 15 18 52  0.0000000  0  7G17G24G30G 5G 6G21G10
  22850427.611    -9295645.01249  -7217964.47346  22850427.158    22850434.437
       227.000         179.000
  24015488.852    10215837.52649   7954921.64445  24015488.613    24015496.535
       215.000         154.000
  20495997.838    -3701702.68649  -2869760.66348  20495998.426    20496003.667
       247.000         215.000
  21849392.200     6371667.05349   4969830.06247  21849391.811    21849399.068
       234.000         191.000
  21374694.059   -11187578.08949  -8698795.88647  21374694.287    21374699.385
       240.000         204.000
  23210418.896   -12425507.72749  -9648327.07346  23210418.392    23210423.709
       224.000         168.000
  20973817.966    -3692384.11549  -2854409.31747  20973817.119    20973823.547
       241.000         208.000
 03  4 15 18 52 30.0000000  0  7G17G24G30G 5G 6G21G10
  22838966.676    -9355872.53649  -7264894.95446  22838966.213    22838974.082
       228.000         180.000
  24030689.925    10295719.46149   8017167.23945  24030689.740    24030697.554
       214.000         154.000
  20501935.315    -3670501.04449  -2845447.72748  20501935.725    20501941.031
       247.000         215.000
  21865718.441     6457461.29549   5036682.64747  21865718.508    21865725.523
       235.000         192.000
  21364229.589   -11242569.52549  -8741646.35047  21364229.252    21364235.087
       240.000         204.000
  23197263.946   -12494637.24549  -9702194.15446  23197262.719    23197268.099
       224.000         168.000
  20980354.898    -3658032.29549  -2827641.67547  20980354.063    20980360.609
       241.000         208.000
 03  4 15 18 53  0.0000000  0  7G17G24G30G 5G 6G21G10
  22827545.539    -9415890.61549  -7311662.24346  22827544.690    22827551.739
       227.000         180.000
  24045883.832    10375563.65449   8079383.43245  24045883.851    24045892.216
       213.000         152.000
  20507980.705    -3638731.99449  -2820692.65348  20507980.980    20507986.352
       247.000         214.000
  21882105.524     6543575.28949   5103784.39347  21882105.134    21882112.384
       235.000         192.000
  21353794.520   -11297405.78649  -8784375.90747  21353794.436    21353800.253
       240.000         204.000
  23184146.169   -12563571.09749  -9755908.77646  23184146.529    23184152.639
       225.000         169.000
  20987004.169    -3623089.90149  -2800413.84247  20987003.460    20987009.790
       242.000         208.000
 03  4 15 18 53 30.0000000  0  7G17G24G30G 5G 6G21G10
  22816164.313    -9475699.25049  -7358266.33246  22816163.848    22816170.547
       227.000         180.000
  24061070.238    10455368.38249   8141568.86345  24061070.857    24061077.230
       212.000         151.000
  20514133.809    -3606397.10149  -2795496.66948  20514134.310    20514139.528
       247.000         214.000
  21898552.721     6630005.96449   5171132.89947  21898552.258    21898559.577
       235.000         192.000
  21343389.190   -11352086.00449  -8826983.86447  21343388.939    21343394.960
       239.000         205.000
  23171065.901   -12632309.80549  -9809471.33546  23171065.865    23171070.215
       225.000         169.000
  20993765.572    -3587558.85249  -2772727.32947  20993765.189    20993771.155
       242.000         209.000
 03  4 15 18 54  0.0000000  0  7G17G24G30G 5G 6G21G10
  22804822.774    -9535299.65949  -7404708.14846  22804822.610    22804829.670
       227.000         181.000
  24076249.009    10535133.00049   8203723.04545  24076248.480    24076255.423
       208.000         147.000
  20520394.419    -3573497.61049  -2769860.73548  20520394.936    20520400.157
       247.000         214.000
  21915059.804     6716750.56149   5238726.01347  21915059.940    21915066.255
       235.000         191.000
  21333013.826   -11406608.77849  -8869469.14047  21333013.782    21333019.626
       239.000         205.000
  23158022.358   -12700853.36749  -9862881.84846  23158021.715    23158027.410
       222.000         169.000
  21000638.726    -3551440.86449  -2744583.45647  21000638.171    21000644.363
       243.000         210.000
 03  4 15 18 54 30.0000000  0  7G17G24G30G 5G 6G21G10
  22793521.245    -9594689.57749  -7450985.94746  22793520.194    22793527.974
       227.000         181.000
  24091420.314    10614858.68049   8265846.88345  24091419.477    24091427.964
       206.000         144.000
  20526762.611    -3540032.84849  -2743784.33348  20526763.307    20526768.475
       248.000         215.000
  21931626.507     6803808.59849   5306563.36547  21931626.861    21931633.303
       235.000         191.000
  21322669.083   -11460970.65049  -8911829.04547  21322669.413    21322675.002
       241.000         205.000
  23145016.146   -12769199.70549  -9916138.66846  23145016.149    23145021.753
       224.000         169.000
  21007623.536    -3514735.59049  -2715981.95647  21007623.125    21007629.172
       243.000         210.000
 03  4 15 18 55  0.0000000  0  7G17G24G30G 5G 6G21G10
  22782259.240    -9653870.02749  -7497100.55346  22782258.281    22782265.854
       227.000         180.000
  24106583.775    10694543.43149   8327938.81945  24106582.200    24106590.339
       202.000         139.000
  20533237.985    -3506005.02649  -2717269.18548  20533238.735    20533243.966
       248.000         215.000
  21948252.125     6891176.29849   5374642.02847  21948251.732    21948258.977
       234.000         191.000
  21312355.069   -11515171.27849  -8954063.30047  21312354.904    21312360.700
       240.000         205.000
  23132047.580   -12837350.00149  -9969242.71446  23132046.467    23132052.522
       222.000         168.000
  21014719.575    -3477445.67849  -2686924.89547  21014718.913    21014725.040
       241.000         209.000
 03  4 15 18 55 30.0000000  0  7G17G24G30G 5G 6G21G10
  22771037.593    -9712840.45749  -7543051.49346  22771037.709    22771044.341
       228.000         181.000
  24121739.554    10774187.62449   8389999.15545  24121739.737    24121747.275
       204.000         137.000
  20539820.415    -3471414.35049  -2690315.44748  20539820.918    20539826.219
       247.000         215.000
  21964936.236     6978852.02349   5442960.70247  21964936.201    21964943.092
       234.000         190.000
  21302072.180   -11569208.14249  -8996169.94947  21302072.232    21302077.805
       240.000         205.000
  23119116.224   -12905303.10949 -10022193.12646  23119115.280    23119121.749
       223.000         169.000
  21021926.659    -3439571.81049  -2657412.80647  21021925.834    21021932.231
       241.000         208.000
 03  4 15 18 56  0.0000000  0  7G17G24G30G 5G 6G21G10
  22759855.698    -9771602.48549  -7588840.04046  22759855.300    22759861.760
       227.000         181.000
  24136887.262    10853788.99549   8452026.12544  24136885.252    24136893.712
       203.000         131.000
  20546509.346    -3436263.69749  -2662925.36148  20546509.737    20546515.179
       247.000         214.000
  21981678.345     7066831.80349   5511516.29347  21981677.931    21981684.703
       234.000         190.000
  21291820.459   -11623081.37349  -9038149.08847  21291820.499    21291826.026
       240.000         205.000
  23106222.493   -12973060.44149 -10074990.97246  23106222.135    23106228.890
       225.000         170.000
  21029244.323    -3401117.27849  -2627448.25447  21029243.857    21029249.562
       242.000         208.000
 03  4 15 18 56 30.0000000  0  8G17G24G30G 5G 6G21G29G10
  22748713.085    -9830157.22349  -7634467.06646  22748712.644    22748719.426
       228.000         181.000
  24152026.659    10933345.75949   8514018.36744  24152026.870    24152032.176
       204.000         129.000
  20553304.427    -3400555.14749  -2635100.55048  20553304.863    20553310.318
       247.000         214.000
  21998477.532     7155112.30049   5580306.22647  21998477.221    21998484.945
       234.000         190.000
  21281600.068   -11676789.99649  -9079999.96247  21281600.245    21281605.521
       241.000         205.000
  23093365.816   -13040622.56249 -10127636.72346  23093365.895    23093370.549
       226.000         171.000
  24361195.891    -1578015.63959  -1205619.24844  24361195.126    24361207.570
       206.000         128.000
  21036672.074    -3362084.49149  -2597033.10747  21036671.246    21036677.482
       242.000         208.000
 03  4 15 18 57  0.0000000  0  8G17G24G30G 5G 6G21G29G10
  22737610.090    -9888503.63549  -7679931.77646  22737609.261    22737617.438
       228.000         182.000
  24167157.442    11012858.11449   8575976.00044  24167156.046    24167165.388
       202.000         128.000
  20560205.652    -3364289.18849  -2606841.39848  20560206.235    20560211.451
       246.000         214.000
  22015333.579     7243691.58549   5649328.98047  22015333.112    22015341.256
       234.000         190.000
  21271411.397   -11730331.87849  -9121720.90547  21271411.438    21271416.934
       240.000         205.000
  23080546.664   -13107988.97349 -10180129.96146  23080546.080    23080551.247
       227.000         171.000
  24348171.811    -1646468.63349  -1258958.97245  24348168.574    24348180.100
       207.000         132.000
  21044209.570    -3322474.61249  -2566168.27947  21044208.927    21044215.130
       242.000         208.000
 03  4 15 18 57 30.0000000  0  8G17G24G30G 5G 6G21G29G10
  22726546.545    -9946642.88149  -7725235.05146  22726545.930    22726553.365
       228.000         182.000
  24182279.380    11092324.24349   8637897.58444  24182280.156    24182287.914
       208.000         129.000
  20567212.544    -3327467.94849  -2578149.55248  20567213.045    20567218.377
       247.000         214.000
  22032245.961     7332566.13949   5718581.81047  22032245.904    22032253.286
       235.000         190.000
  21261254.643   -11783706.17349  -9163311.26347  21261254.919    21261260.154
       241.000         206.000
  23067764.491   -13175160.41349 -10232471.27346  23067763.020    23067769.227
       225.000         171.000
  24335161.904    -1714833.64049  -1312230.15245  24335162.498    24335172.373
       208.000         137.000
  21051856.473    -3282289.82549  -2534855.45847  21051855.883    21051861.992
       241.000         208.000
 03  4 15 18 58  0.0000000  0  8G17G24G30G 5G 6G21G29G10
  22715522.453   -10004574.55649  -7770376.58246  22715521.392    22715529.778
       227.000         182.000
  24197392.638    11171744.39749   8699783.35445  24197393.293    24197399.531
       207.000         133.000
  20574325.010    -3290091.93849  -2549025.42548  20574325.621    20574330.705
       247.000         213.000
  22049214.181     7421734.23349   5788063.35847  22049214.157    22049220.908
       233.000         190.000
  21251130.235   -11836910.58749  -9204769.24547  21251130.299    21251135.548
       241.000         206.000
  23055019.160   -13242135.59549 -10284659.69046  23055018.153    23055025.693
       225.000         171.000
  24322169.536    -1783106.96949  -1365429.92545  24322169.313    24322179.461
       208.000         139.000
  21059612.525    -3241531.26249  -2503095.54947  21059611.814    21059618.328
       241.000         208.000
 03  4 15 18 58 30.0000000  0  8G17G24G30G 5G 6G21G29G10
  22704538.150   -10062296.70149  -7815354.84546  22704538.225    22704544.697
       228.000         182.000
  24212497.214    11251119.77549   8761634.22245  24212496.777    24212504.786
       207.000         134.000
  20581543.156    -3252160.81249  -2519468.74048  20581543.724    20581548.991
       247.000         214.000
  22066238.004     7511195.17149   5857773.10447  22066237.841    22066244.809
       233.000         189.000
  21241038.692   -11889941.78749  -9246092.25247  21241038.565    21241044.108
       240.000         206.000
  23042311.829   -13308913.46649 -10336694.32046  23042311.480    23042317.229
       226.000         171.000
  24309195.641    -1851283.81649  -1418554.54445  24309194.505    24309204.918
       208.000         141.000
  21067477.810    -3200198.99549  -2470888.60447  21067477.229    21067483.344
       241.000         207.000
 03  4 15 18 59  0.0000000  0  8G17G24G30G 5G 6G21G29G10
  22693593.961   -10119809.49249  -7860169.95946  22693593.072    22693600.766
       228.000         183.000
  24227593.132    11330449.42949   8823449.44945  24227593.036    24227601.210
       208.000         137.000
  20588866.606    -3213676.01249  -2489480.61248  20588866.814    20588872.250
       247.000         213.000
  22083317.184     7600946.28749   5927708.95847  22083317.258    22083324.206
       233.000         189.000
  21230980.411   -11942798.24549  -9287279.09947  21230980.258    21230985.903
       240.000         206.000
  23029641.916   -13375493.68049 -10388574.95046  23029641.201    23029647.018
       225.000         171.000
  24296240.742    -1919361.38949  -1471601.81045  24296240.533    24296249.580
       207.000         142.000
  21075451.901    -3158294.89549  -2438236.06547  21075451.319    21075457.383
       241.000         207.000
 03  4 15 18 59 30.0000000  0  8G17G24G30G 5G 6G21G29G10
  22682689.194   -10177113.71949  -7904822.57346  22682688.242    22682695.605
       227.000         182.000
  24242680.204    11409732.46349   8885228.34645  24242680.422    24242688.057
       209.000         138.000
  20596295.022    -3174639.32549  -2459062.45248  20596295.521    20596300.830
       246.000         213.000
  22100451.035     7690984.65649   5997868.64147  22100450.427    22100458.407
       233.000         189.000
  21220955.574   -11995478.85349  -9328328.92647  21220955.528    21220960.975
       240.000         206.000
  23017009.669   -13441876.46049 -10440301.74746  23017009.536    23017014.979
       227.000         172.000
  24283305.257    -1987337.02049  -1524569.65145  24283304.908    24283315.579
       207.000         144.000
  21083534.412    -3115821.05049  -2405139.57347  21083533.723    21083539.855
       241.000         207.000
 03  4 15 19  0  0.0000000  0  8G17G24G30G 5G 6G21G29G10
  22671824.029   -10234210.23449  -7949313.33346  22671824.093    22671830.379
       228.000         183.000
  24257758.085    11488966.95449   8946969.41245  24257758.333    24257765.927
       206.000         139.000
  20603828.081    -3135053.07249  -2428216.06148  20603828.556    20603833.869
       247.000         213.000
  22117638.795     7781306.80149   6068249.45247  22117638.398    22117645.730
       232.000         188.000
  21210964.427   -12047982.90049  -9369241.16747  21210964.495    21210969.797
       240.000         206.000
  23004414.868   -13508062.99549 -10491875.62046  23004414.026    23004419.837
       225.000         172.000
  24270389.556    -2055208.81349  -1577456.61145  24270388.979    24270399.853
       207.000         145.000
  21091724.840    -3072780.25449  -2371601.30447  21091724.083    21091730.247
       242.000         207.000
 03  4 15 19  0 30.0000000  0  8G17G24G30G 5G 6G21G29G10
  22660998.475   -10291099.30649  -7993642.43946  22660998.377    22661005.520
       229.000         183.000
  24272826.779    11568152.74849   9008672.56345  24272826.652    24272834.446
       207.000         139.000
  20611465.476    -3094918.50249  -2396942.40648  20611465.979    20611471.186
       247.000         213.000
  22134880.078     7871910.05749   6138849.30946  22134880.271    22134886.856
       232.000         187.000
  21201007.181   -12100308.62249  -9410014.45047  21201007.008    21201012.738
       241.000         206.000
  22991857.293   -13574052.93549 -10543296.30646  22991857.338    22991862.417
       227.000         173.000
  24257494.237    -2122973.32849  -1630259.98245  24257493.856    24257503.257
       208.000         144.000
  21100022.846    -3029174.20249  -2337622.57547  21100022.338    21100028.327
       242.000         207.000
 03  4 15 19  1  0.0000000  0  8G17G24G30G 5G 6G21G29G10
  22650212.271   -10347781.10149  -8037810.04146  22650211.725    22650219.287
       228.000         184.000
  24287885.878    11647288.73949   9070336.88445  24287885.946    24287893.417
       202.000         138.000
  20619206.863    -3054237.42849  -2365242.90648  20619207.310    20619212.848
       246.000         213.000
  22152174.363     7962791.49249   6209665.93646  22152174.309    22152181.448
       232.000         186.000
  21191084.037   -12152454.81349  -9450647.84547  21191083.908    21191089.854
       240.000         206.000
  22979337.415   -13639846.58049 -10594564.02646  22979335.937    22979341.947
       225.000         173.000
  24244619.932    -2190628.04449  -1682977.77245  24244619.929    24244629.084
       207.000         144.000
  21108427.997    -2985005.17849  -2303205.16347  21108427.320    21108433.496
       241.000         207.000
 03  4 15 19  1 30.0000000  0  8G17G24G30G 5G 6G21G29G10
  22639465.443   -10404255.11249  -8081815.74046  22639464.825    22639472.263
       227.000         183.000
  24302935.380    11726374.81749   9131962.28645  24302934.628    24302943.230
       198.000         135.000
  20627052.083    -3013010.74249  -2333118.25248  20627052.489    20627058.125
       246.000         213.000
  22169521.152     8053949.09449   6280697.75846  22169520.690    22169528.600
       231.000         186.000
  21181195.568   -12204419.24749  -9491139.60847  21181195.344    21181201.062
       241.000         206.000
  22966854.374   -13705443.17849 -10645678.21846  22966853.328    22966858.478
       225.000         172.000
  24231767.132    -2258169.27049  -1735607.15345  24231767.287    24231776.857
       208.000         146.000
  21116939.993    -2940274.18949  -2268349.86047  21116939.267    21116945.534
       240.000         207.000
 03  4 15 19  2  0.0000000  0  8G17G24G30G 5G 6G21G29G10
  22628758.210   -10460521.47549  -8125659.63046  22628758.037    22628765.518
       229.000         183.000
  24317975.429    11805410.50649   9193548.40345  24317975.936    24317983.425
       199.000         132.000
  20635000.800    -2971239.80449  -2300569.50548  20635001.096    20635006.749
       246.000         213.000
  22186919.865     8145380.20249   6351942.69146  22186919.565    22186926.953
       231.000         186.000
  21171342.018   -12256200.17049  -9531488.37947  21171342.035    21171347.714
       241.000         207.000
  22954409.191   -13770842.67449 -10696638.81446  22954408.734    22954414.890
       227.000         172.000
  24218936.607    -2325593.98849  -1788145.72045  24218936.169    24218944.995
       206.000         145.000
  21125558.590    -2894983.09749  -2233058.11347  21125558.031    21125564.219
       240.000         206.000
 03  4 15 19  2 30.0000000  0  8G17G24G30G 5G 6G21G29G10
  22618090.439   -10516581.79049  -8169342.95846  22618089.383    22618097.491
       228.000         184.000
  24333005.681    11884393.81049   9255093.73745  24333006.780    24333012.792
       199.000         132.000
  20643052.614    -2928927.40949  -2267598.84848  20643053.162    20643058.723
       246.000         213.000
  22204369.872     8237080.91749   6423397.70646  22204369.825    22204376.924
       231.000         185.000
  21161523.428   -12307797.39249  -9571694.00447  21161523.622    21161529.118
       241.000         207.000
  22942001.260   -13836046.61349 -10747447.03746  22942000.114    22942006.709
       226.000         173.000
  24206128.302    -2392900.52949  -1840592.21245  24206127.207    24206138.159
       203.000         143.000
  21134283.151    -2849135.30249  -2197332.57247  21134282.411    21134288.480
       240.000         206.000
 03  4 15 19  3  0.0000000  0  8G17G24G30G 5G 6G21G29G10
  22607461.778   -10572435.11849  -8212865.01246  22607460.541    22607468.861
       228.000         184.000
  24348025.948    11963325.30149   9316598.71244  24348025.063    24348034.361
       197.000         130.000
  20651207.429    -2886073.94349  -2234206.58148  20651207.936    20651213.482
       246.000         213.000
  22221871.178     8329049.93949   6495061.78046  22221871.049    22221878.032
       231.000         185.000
  21151740.329   -12359207.88749  -9611754.13147  21151740.225    21151746.104
       241.000         207.000
  22929630.786   -13901053.68349 -10798101.85546  22929630.677    22929636.659
       228.000         174.000
  24193343.321    -2460084.82649  -1892943.45545  24193344.236    24193352.393
       205.000         143.000
  21143113.472    -2802731.71449  -2161173.95147  21143112.708    21143118.874
       240.000         205.000
 03  4 15 19  3 30.0000000  0  8G17G24G30G 5G 6G21G29G10
  22596872.449   -10628082.29449  -8256226.42046  22596871.571    22596879.266
       229.000         184.000
  24363035.977    12042203.40748   9378062.05144  24363038.879    24363043.616
       192.000         125.000
  20659464.641    -2842682.12149  -2200394.81348  20659465.030    20659470.647
       246.000         213.000
  22239422.778     8421283.63149   6566932.10346  22239422.248    22239430.112
       230.000         185.000
  21141992.807   -12410431.25349  -9651668.44647  21141992.863    21141998.334
       241.000         207.000
  22917297.547   -13965865.02249 -10848604.13846  22917297.485    22917302.507
       226.000         174.000
  24180582.187    -2527144.78149  -1945197.78645  24180582.341    24180591.455
       206.000         145.000
  21152049.036    -2755775.06149  -2124584.36847  21152048.382    21152054.247
       240.000         205.000
 03  4 15 19  4  0.0000000  0  8G17G24G30G 5G 6G21G29G10
  22586322.394   -10683523.19049  -8299427.08246  22586321.845    22586329.121
       229.000         184.000
  24378035.856    12121028.38749   9439483.99744  24378037.226    24378043.514
       195.000         124.000
  20667824.100    -2798752.67349  -2166164.11447  20667824.533    20667830.044
       246.000         212.000
  22257024.196     8513779.95749   6639007.08146  22257023.873    22257032.020
       229.000         184.000
  21132281.432   -12461464.91649  -9691434.93747  21132281.656    21132286.898
       241.000         207.000
  22905001.768   -14030479.60549 -10898953.12546  22905001.797    22905006.422
       228.000         174.000
  24167845.351    -2594076.59649  -1997352.26945  24167844.040    24167853.869
       203.000         143.000
  21161089.586    -2708266.62149  -2087564.81547  21161088.893    21161094.846
       240.000         205.000
 03  4 15 19  4 30.0000000  0  8G17G24G30G 5G 6G21G29G10
  22575811.447   -10738758.77549  -8342467.75546  22575810.941    22575818.569
       229.000         185.000
  24393025.458    12199799.19249   9500863.74144  24393025.470    24393033.254
       197.000         123.000
  20676285.478    -2754287.87549  -2131516.26347  20676285.995    20676291.184
       245.000         212.000
  22274675.055     8606535.68049   6711284.17546  22274675.233    22274682.300
       229.000         183.000
  21122606.334   -12512307.92449  -9731052.86047  21122606.154    21122612.171
       241.000         207.000
  22892743.435   -14094898.47549 -10949149.57946  22892742.414    22892747.321
       227.000         174.000
  24155133.037    -2660878.12649  -2049405.24545  24155132.270    24155141.699
       205.000         143.000
  21170234.622    -2660209.01849  -2050117.34347  21170233.822    21170240.099
       239.000         204.000
 03  4 15 19  5  0.0000000  0  8G17G24G30G 5G 6G21G29G10
  22565339.741   -10793787.81949  -8385347.50146  22565339.461    22565346.267
       230.000         185.000
  24408004.887    12278516.07749   9562201.48344  24408003.341    24408011.292
       196.000         123.000
  20684848.624    -2709288.26949  -2096451.67547  20684849.087    20684854.452
       246.000         211.000
  22292375.027     8699549.19549   6783762.14346  22292375.040    22292382.643
       230.000         183.000
  21112967.954   -12562957.53949  -9770520.10147  21112967.767    21112973.652
       241.000         207.000
  22880522.091   -14159120.16249 -10999192.41546  22880521.045    22880527.714
       225.000         173.000
  24142446.662    -2727545.20449  -2101353.44245  24142446.702    24142456.251
       207.000         145.000
  21179483.953    -2611603.26549  -2012242.74847  21179483.169    21179489.588
       239.000         204.000
 03  4 15 19  5 30.0000000  0  8G17G24G30G 5G 6G21G29G10
  22554907.161   -10848611.76249  -8428067.40946  22554906.773    22554912.991
       230.000         185.000
  24422973.660    12357177.36449   9623495.93244  24422974.676    24422982.849
       195.000         119.000
  20693513.048    -2663756.70449  -2060972.57647  20693513.569    20693519.007
       246.000         211.000
  22310123.349     8792816.65549   6856437.99346  22310123.353    22310130.555
       230.000         183.000
  21103366.534   -12613413.31049  -9809836.28747  21103366.523    21103372.028
       241.000         207.000
  22868338.330   -14223146.09249 -11049082.70346  22868338.349    22868344.486
       228.000         174.000
  24129786.203    -2794075.98049  -2153195.44945  24129785.567    24129795.369
       205.000         147.000
  21188836.994    -2562452.72949  -1973943.64447  21188836.334    21188842.713
       240.000         205.000
 03  4 15 19  6  0.0000000  0  8G17G24G30G 5G 6G21G29G10
  22544513.296   -10903231.45449  -8470628.17146  22544512.279    22544519.676
       229.000         185.000
  24437931.674    12435781.77848   9684745.98944  24437931.382    24437940.691
       194.000         119.000
  20702278.265    -2617695.51549  -2025080.78147  20702278.841    20702284.310
       245.000         211.000
  22327919.316     8886334.76749   6929309.16946  22327919.243    22327927.013
       230.000         183.000
  21093802.245   -12663674.28649  -9849000.68047  21093802.394    21093807.511
       242.000         207.000
  22856191.769   -14286977.12549 -11098821.11046  22856191.418    22856196.305
       228.000         175.000
  24117152.000    -2860468.23649  -2204929.51045  24117151.623    24117161.502
       208.000         147.000
  21198293.301    -2512759.79849  -1935221.89147  21198292.807    21198298.874
       240.000         205.000
 03  4 15 19  6 30.0000000  0  8G17G24G30G 5G 6G21G29G10
  22534158.468   -10957645.68249  -8513028.84346  22534158.197    22534165.330
       230.000         186.000
  24452879.115    12514330.27349   9745952.54044  24452879.754    24452885.661
       197.000         114.000
  20711144.202    -2571104.67949  -1988776.27647  20711144.483    20711150.313
       243.000         211.000
  22345762.936     8980102.64049   7002374.95046  22345762.920    22345770.559
       230.000         183.000
  21084275.646   -12713737.07649  -9888010.64547  21084275.680    21084281.068
       242.000         208.000
  22844082.564   -14350611.43949 -11148406.24146  22844082.381    22844087.723
       229.000         175.000
  24104545.194    -2926717.27449  -2256551.97345  24104545.530    24104554.142
       210.000         149.000
  21207852.752    -2462524.78949  -1896077.74547  21207852.109    21207858.157
       240.000         205.000
 03  4 15 19  7  0.0000000  0  8G17G24G30G 5G 6G21G29G10
  22523842.909   -11011854.90749  -8555269.76146  22523842.938    22523850.557
       230.000         187.000
  24467815.675    12592821.83849   9807114.75344  24467814.664    24467827.188
       202.000         116.000
  20720110.465    -2523986.54949  -1952060.89447  20720110.976    20720116.512
       244.000         211.000
  22363653.416     9074116.99149   7075632.78746  22363653.845    22363660.918
       229.000         183.000
  21074786.906   -12763600.57949  -9926865.32447  21074786.949    21074792.393
       241.000         208.000
  22832010.660   -14414049.51849 -11197838.46846  22832009.409    22832015.451
       227.000         176.000
  24091966.071    -2992820.59049  -2308060.86945  24091965.100    24091975.342
       208.000         148.000
  21217514.778    -2411750.51049  -1856513.39347  21217513.821    21217520.206
       239.000         205.000
 03  4 15 19  7 30.0000000  0  8G17G24G30G 5G 6G21G29G10
  22513566.084   -11065859.95449  -8597351.58146  22513565.513    22513573.096
       231.000         187.000
  24482741.450    12671255.87849   9868232.15744  24482742.320    24482748.357
       200.000         114.000
  20729176.755    -2476343.01649  -1914936.10847  20729177.419    20729182.994
       244.000         211.000
  22381590.108     9168375.02049   7149080.51146  22381589.498    22381597.143
       229.000         182.000
  21065336.376   -12813263.42449  -9965563.64547  21065336.261    21065341.851
       241.000         208.000
  22819975.962   -14477291.70149 -11247118.05546  22819975.620    22819980.991
       229.000         176.000
  24079415.099    -3058775.50249  -2359454.17545  24079415.398    24079424.483
       210.000         150.000
  21227278.937    -2360439.44949  -1816530.76747  21227278.091    21227284.579
       239.000         204.000
 03  4 15 19  8  0.0000000  0  8G17G24G30G 5G 6G21G29G10
  22503328.047   -11119660.45149  -8639274.01646  22503327.570    22503334.751
       230.000         186.000
  24497656.192    12749632.13549   9929304.48644  24497653.517    24497659.440
       205.000         112.000
  20738342.771    -2428175.44049  -1877402.97047  20738343.544    20738349.123
       244.000         211.000
  22399572.822     9262874.50549   7222716.37846  22399572.429    22399580.143
       229.000         181.000
  21055924.461   -12862723.39649 -10004103.88747  21055924.637    21055930.013
       242.000         208.000
  22807978.827   -14540337.78749 -11296244.83546  22807977.716    22807983.934
       228.000         176.000
  24066893.233    -3124578.50449  -2410729.08045  24066893.426    24066901.921
       210.000         151.000
  21237144.940    -2308593.16149  -1776131.08247  21237143.961    21237150.437
       239.000         204.000
 03  4 15 19  8 30.0000000  0  8G17G24G30G 5G 6G21G29G10
  22493128.937   -11173256.83649  -8681037.40046  22493128.421    22493135.804
       231.000         186.000
  24512559.757    12827949.73849   9990331.11444  24512559.258    24512571.773
       195.000         110.000
  20747608.132    -2379485.93749  -1839463.14147  20747608.779    20747614.309
       244.000         211.000
  22417600.942     9357612.38449   7296538.01246  22417601.437    22417607.990
       229.000         181.000
  21046551.457   -12911979.28449 -10042485.09647  21046551.625    21046556.821
       243.000         208.000
  22796018.606   -14603188.13349 -11345219.09346  22796018.665    22796023.547
       228.000         176.000
  24054400.510    -3190227.07049  -2461883.63845  24054398.496    24054410.078
       208.000         148.000
  21247112.279    -2256214.34649  -1735316.43847  21247111.791    21247117.870
       238.000         204.000
 03  4 15 19  9  0.0000000  0  8G17G24G30G 5G 6G21G29G10
  22482968.723   -11226649.10049  -8722641.72646  22482967.975    22482976.250
       231.000         186.000
  24527452.150    12906208.90848  10051312.19344                  24527449.380
       192.000         109.000
  20756972.552    -2330275.82949  -1801117.64047  20756973.067    20756978.644
       244.000         211.000
  22435673.964     9452586.40749   7370543.64946  22435673.436    22435682.039
       229.000         181.000
  21037217.651   -12961028.79249 -10080705.48747  21037217.497    21037222.936
       242.000         208.000
  22784096.071   -14665842.21449 -11394040.39046  22784095.739    22784100.830
       229.000         176.000
  24041937.790    -3255717.58349  -2512915.06845  24041938.043    24041946.907
       206.000         144.000
  21257180.693    -2203304.46249  -1694087.97547  21257179.901    21257186.335
       238.000         203.000
 03  4 15 19  9 30.0000000  0  8G17G24G30G 5G 6G21G29G10
  22472847.131   -11279838.25049  -8764087.78946  22472846.832    22472853.839
       232.000         187.000
  24542332.990    12984408.08748  10112246.54444                  24542330.358
       192.000         103.000
  20766435.525    -2280547.78349  -1762368.55547  20766436.225    20766441.372
       244.000         210.000
  22453791.103     9547792.90149   7444730.42346  22453791.244    22453799.249
       228.000         181.000
  21027923.207   -13009871.16549 -10118764.48047  21027923.182    21027928.854
       243.000         208.000
  22772210.554   -14728301.01549 -11442709.53846  22772208.998    22772216.443
       227.000         176.000
  24029505.895    -3321048.17149  -2563821.81845  24029506.399    24029514.832
       208.000         144.000
  21267349.592    -2149866.65549  -1652448.14747  21267349.011    21267355.293
       239.000         203.000
 03  4 15 19 10  0.0000000  0  8G17G24G30G 5G 6G21G29G10
  22462764.340   -11332824.03249  -8805375.37046  22462764.122    22462770.917
       231.000         187.000
  24557202.376    13062547.70048  10173134.47144                  24557204.111
       180.000         103.000
  20775996.886    -2230302.80249  -1723216.66747  20775997.326    20776002.933
       243.000         210.000
  22471952.121     9643229.97549   7519096.87546  22471951.861    22471960.120
       228.000         180.000
  21018668.692   -13058503.92349 -10156660.13647  21018668.738    21018674.276
       243.000         209.000
  22760362.116   -14790563.57549 -11491225.77946  22760361.530    22760366.913
       227.000         176.000
  24017105.129    -3386214.76749  -2614600.78245  24017104.135    24017113.083
       205.000         144.000
  21277618.686    -2095902.34249  -1610398.05547  21277618.371    21277624.318
       239.000         203.000
 03  4 15 19 10 30.0000000  0  9G17G24G30G26G 5G 6G21G29G10
  22452720.101   -11385606.38649  -8846504.43846  22452718.976    22452727.209
       230.000         187.000
                  13140626.59448  10233974.96044
       183.000          98.000
  20785656.081    -2179543.17249  -1683663.75047  20785656.220    20785662.290
       243.000         210.000
                  -1344831.62959  -1014382.80444                  24262433.206
       202.000         122.000
  22490156.576     9738894.55949   7593640.60546  22490157.148    22490163.746
       229.000         180.000
  21009454.391   -13106925.61449 -10194391.31947  21009454.437    21009460.014
       243.000         209.000
  22748550.948   -14852630.21549 -11539589.36346  22748550.426    22748556.233
       227.000         176.000
  24004735.679    -3451214.84849  -2665250.03245  24004735.058    24004745.001
       203.000         142.000
  21287987.558    -2041414.03449  -1567939.65147  21287987.143    21287992.973
       240.000         204.000
 03  4 15 19 11  0.0000000  0  9G17G24G30G26G 5G 6G21G29G10
  22442714.466   -11438185.10749  -8887474.85246  22442713.912    22442721.603
       231.000         187.000
                  13218645.39458   7933390.90043
       169.000          74.000
  20795412.949    -2128270.06049  -1643710.72547  20795413.205    20795419.214
       243.000         210.000
  24245567.819    -1433393.89949  -1083391.90244  24245566.104    24245579.416
       200.000         125.000
  22508404.081     9834784.67449   7668360.06646  22508403.986    22508411.515
       228.000         180.000
  21000280.634   -13155133.94849 -10231956.26047  21000280.518    21000286.192
       243.000         209.000
  22736777.339   -14914500.80749 -11587800.17346  22736776.767    22736783.631
       228.000         178.000
  23992398.704    -3516044.62649  -2715766.57745  23992398.928    23992406.992
       204.000         141.000
  21298455.823    -1986403.30849  -1525074.16847  21298455.056    21298461.396
       239.000         204.000
 03  4 15 19 11 30.0000000  0  9G17G24G30G26G 5G 6G21G29G10
  22432747.310   -11490562.94749  -8928288.72146  22432747.432    22432753.916
       232.000         187.000
                  13296600.72458   7994221.19043
       166.000          74.000
  20805266.775    -2076488.06549  -1603361.15847  20805267.383    20805273.107
       244.000         210.000
  24228711.596    -1521970.25649  -1152411.98144  24228711.322    24228723.269
       202.000         128.000
  22526693.335     9930895.08749   7743251.20446  22526692.975    22526701.584
       227.000         179.000
  20991147.303   -13203130.00349 -10269355.78547  20991147.101    20991152.849
       242.000         209.000
  22725040.571   -14976177.94149 -11635860.23346  22725039.712    22725045.944
       228.000         178.000
  23980094.332    -3580704.16749  -2766150.43345  23980094.126    23980103.423
       199.000         140.000
  21309022.482    -1930875.06549  -1481805.42347  21309021.691    21309027.870
       238.000         203.000
 03  4 15 19 12  0.0000000  0  9G17G24G30G26G 5G 6G21G29G10
  22422818.569   -11542739.31249  -8968945.59347  22422818.276    22422824.941
       232.000         188.000
                  13374494.06657   8055006.20643
       160.000          74.000
  20815217.507    -2024197.46649  -1562615.28647  20815218.154    20815223.828
       244.000         210.000
  24211854.367    -1610555.71049  -1221439.16644  24211854.142    24211866.801
       203.000         131.000
  22545024.282    10027224.76949   7818313.20246  22545023.665    22545032.507
       228.000         178.000
  20982054.978   -13250910.27549 -10306587.16647  20982054.846    20982060.635
       243.000         210.000
  22713340.793   -15037659.89749 -11683768.22846  22713340.492    22713346.237
       228.000         178.000
  23967823.100    -3645188.46349  -2816397.74245  23967822.662    23967832.434
       201.000         139.000
  21319687.524    -1874829.92249  -1438133.90247  21319686.658    21319692.876
       238.000         201.000
 03  4 15 19 12 30.0000000  0  9G17G24G30G26G 5G 6G21G29G10
  22412927.982   -11594714.24849  -9009445.52147  22412927.553    22412934.662
       231.000         188.000
                  13452324.40757   8083852.81143
       154.000          74.000
  20825264.517    -1971400.56949  -1521474.89847  20825265.219    20825270.773
       244.000         210.000
  24194995.553    -1699147.32249  -1290471.17845  24194993.754    24195006.025
       198.000         132.000
  22563396.455    10123770.76149   7893543.73546  22563395.876    22563404.919
       227.000         177.000
  20973004.041   -13298473.31049 -10343649.27547  20973004.141    20973009.843
       243.000         210.000
  22701678.309   -15098947.32049 -11731524.62246  22701678.325    22701683.493
       229.000         178.000
  23955585.879    -3709495.05649  -2866506.57045  23955585.253    23955594.203
       200.000         140.000
  21330450.367    -1818270.63049  -1394061.75147  21330449.837    21330455.881
       237.000         201.000
 03  4 15 19 13  0.0000000  0  8G17G30G26G 5G 6G21G29G10
  22403075.060   -11646491.79549  -9049791.62347  22403074.634    22403081.750
       233.000         188.000
  20835406.813    -1918102.65449  -1479944.09547  20835407.318    20835412.733
       244.000         210.000
  24178135.132    -1787745.56149  -1359508.37345  24178133.367    24178146.778
       200.000         133.000
  22581808.602    10220526.88549   7968938.01146  22581808.589    22581816.803
       227.000         178.000
  20963994.170   -13345820.80849 -10380543.43047  20963994.209    20963999.809
       244.000         210.000
  22690052.119   -15160043.72649 -11779132.16346  22690051.204    22690056.594
       228.000         177.000
  23943382.263    -3773624.37649  -2916477.26945  23943381.032    23943391.943
       201.000         140.000
  21341309.949    -1761202.98749  -1349593.46947  21341309.249    21341315.427
       239.000         201.000
 03  4 15 19 13 30.0000000  0  8G17G30G26G 5G 6G21G29G10
  22393260.873   -11698066.21849  -9089979.45247  22393260.179    22393267.541
       232.000         188.000
  20845645.196    -1864299.64149  -1438019.72047  20845645.980    20845651.316
       244.000         210.000
  24161275.754    -1876341.13149  -1428543.49845  24161275.347    24161286.335
       205.000         135.000
  22600261.429    10317496.47049   8044498.61146  22600261.445    22600268.862
       227.000         178.000
  20955026.787   -13392944.91549 -10417263.51647  20955026.667    20955032.256
       244.000         210.000
  22678463.237   -15220943.19349 -11826586.24546  22678462.937    22678467.887
       229.000         177.000
  23931213.988    -3837567.40249  -2966302.87245  23931213.955    23931223.578
       204.000         141.000
  21352267.079    -1703623.08749  -1304726.03447  21352266.663    21352272.527
       239.000         201.000
 03  4 15 19 14  0.0000000  0  8G17G30G26G 5G 6G21G29G10
  22383484.844   -11749438.76049  -9130009.97247  22383484.036    22383491.404
       231.000         188.000
  20855979.167    -1809994.66449  -1395704.20047  20855979.736    20855985.201
       244.000         210.000
  24144417.374    -1964931.49849  -1497574.59545  24144416.998    24144429.317
       206.000         139.000
  22618754.092    10414675.65849   8120222.55846  22618754.052    22618761.956
       228.000         178.000
  20946101.916   -13439845.16549 -10453809.16347  20946101.875    20946107.459
       243.000         210.000
  22666911.840   -15281646.76249 -11873887.68346  22666912.143    22666916.656
       231.000         178.000
  23919082.004    -3901322.11149  -3015981.74245  23919082.674    23919090.248
       212.000         146.000
  21363321.120    -1645534.09249  -1259461.89347  21363320.581    21363326.675
       239.000         202.000
 03  4 15 19 14 30.0000000  0  8G17G30G26G 5G 6G21G29G10
  22373747.308   -11800609.66849  -9169883.38247  22373747.347    22373754.415
       231.000         188.000
  20866408.218    -1755189.91249  -1352999.25147  20866408.796    20866414.179
       244.000         210.000
  24127560.375    -2053513.98849  -1566599.57545  24127560.268    24127571.867
       206.000         141.000
  22637286.057    10512061.40249   8196107.44546  22637286.263    22637293.828
       228.000         178.000
  20937219.982   -13486519.98549 -10490179.15447  20937219.954    20937225.565
       243.000         210.000
  22655397.692   -15342154.74249 -11921036.71646  22655397.415    22655402.091
       230.000         178.000
  23906986.408    -3964885.93849  -3065511.83545  23906986.048    23906994.168
       212.000         147.000
  21374471.462    -1586938.71149  -1213803.17847  21374470.762    21374477.248
       239.000         202.000
 03  4 15 19 15  0.0000000  0  8G17G30G26G 5G 6G21G29G10
  22364048.020   -11851579.63149  -9209600.20947  22364047.562    22364054.714
       230.000         189.000
  20876931.936    -1699887.50249  -1309906.51547  20876932.201    20876938.328
       243.000         209.000
  24110705.370    -2142085.15549  -1635615.73745  24110703.537    24110716.425
       207.000         141.000
  22655856.970    10609650.94649   8272151.13246  22655857.716    22655864.414
       227.000         177.000
  20928381.238   -13532967.76249 -10526372.23647  20928380.993    20928386.825
       243.000         210.000
  22643920.381   -15402467.37849 -11968033.53446  22643919.141    22643925.638
       229.000         178.000
  23894927.292    -4028256.01249  -3114890.96845  23894925.847    23894936.119
       208.000         145.000
  21385717.651    -1527839.39549  -1167751.78647  21385717.086    21385723.385
       238.000         202.000
 03  4 15 19 15 30.0000000  0  8G17G30G26G 5G 6G21G29G10
  22354386.897   -11902348.25049  -9249160.14247  22354386.061    22354393.346
       230.000         188.000
  20887549.973    -1644089.11549  -1266427.30247  20887550.370    20887556.312
       243.000         209.000
  24093853.218    -2230641.39749  -1704620.29945  24093852.383    24093864.562
       209.000         143.000
  22674466.174    10707442.06549   8348351.89946  22674466.194    22674473.527
       226.000         176.000
  20919586.073   -13579186.37749 -10562386.73947  20919586.132    20919591.697
       242.000         210.000
  22632480.330   -15462584.38249 -12014877.91546  22632479.780    22632485.348
       229.000         178.000
  23882905.674    -4091428.84849  -3164116.42545  23882905.758    23882914.506
       211.000         148.000
  21397059.447    -1468238.24449  -1121309.34847  21397058.744    21397065.069
       238.000         201.000
 03  4 15 19 16  0.0000000  0  8G17G30G26G 5G 6G21G29G10
  22344763.967   -11952917.13549  -9288564.44247  22344764.042    22344770.821
       232.000         189.000
  20898261.856    -1587797.84449  -1222564.02347  20898262.524    20898268.225
       243.000         209.000
  24077004.773    -2319180.72549  -1773611.70245  24077005.486    24077016.304
       211.000         146.000
  22693112.827    10805430.90249   8424706.72246  22693111.426    22693119.861
       226.000         175.000
  20910834.721   -13625175.11449 -10598222.11547  20910834.860    20910840.433
       243.000         211.000
  22621077.422   -15522507.17849 -12061570.96246  22621077.384    22621082.127
       229.000         178.000
  23870922.207    -4154402.63249  -3213186.75145  23870921.585    23870930.983
       212.000         151.000
  21408496.014    -1408138.62349  -1074478.49847  21408495.227    21408501.836
       237.000         201.000
 03  4 15 19 16 30.0000000  0  8G17G30G26G 5G 6G21G29G10
  22335178.868   -12003288.06449  -9327814.48147  22335178.238    22335185.638
       231.000         189.000
  20909066.814    -1531017.50349  -1178319.64547  20909067.464    20909073.206
       244.000         209.000
  24060159.783    -2407701.26149  -1842588.45545  24060159.338    24060170.597
       209.000         147.000
  22711796.360    10903613.11149   8501212.22046  22711796.830    22711803.955
       225.000         174.000
  20902127.157   -13670933.89049 -10633878.30447  20902127.208    20902132.672
       243.000         211.000
  22609711.036   -15582237.32549 -12108113.89246  22609711.293    22609715.878
       229.000         178.000
  23858976.763    -4217176.11149  -3262101.02545  23858976.055    23858985.125
       212.000         152.000
  21420026.704    -1347544.59049  -1027262.38747  21420025.935    21420032.564
       238.000         202.000
 03  4 15 19 17  0.0000000  0  8G17G30G26G 5G 6G21G29G10
  22325631.549   -12053459.26649  -9366908.89247  22325631.677    22325638.582
       232.000         190.000
  20919965.022    -1473747.64749  -1133693.83447  20919965.789    20919971.382
       244.000         209.000
  24043319.137    -2496197.24949  -1911546.10545  24043318.077    24043330.908
       210.000         146.000
  22730516.620    11001988.60249   8577868.33446  22730516.411    22730524.903
       225.000         174.000
  20893464.139   -13716458.39949 -10669351.94447  20893464.196    20893469.840
       243.000         211.000
  22598381.801   -15641772.43649 -12154504.84846  22598381.626    22598387.281
       230.000         178.000
  23847070.411    -4279743.75149  -3310854.92345  23847070.127    23847078.130
       214.000         153.000
  21431651.452    -1286456.01449   -979660.91547  21431650.957    21431657.274
       238.000         202.000
 03  4 15 19 17 30.0000000  0  8G17G30G26G 5G 6G21G29G10
  22316122.170   -12103431.64949  -9405848.36947  22316121.960    22316128.953
       232.000         190.000
  20930955.846    -1415991.25049  -1088688.89747  20930956.450    20930962.099
       243.000         209.000
  24026483.825    -2584666.37749  -1980482.83345  24026483.352    24026495.232
       212.000         147.000
  22749272.882    11100553.56449   8654672.09746  22749273.076    22749282.138
       226.000         175.000
  20884845.866   -13761747.92949 -10704642.48847  20884846.002    20884851.452
       243.000         211.000
  22587089.620   -15701113.73649 -12200744.77946  22587089.703    22587094.985
       230.000         179.000
  23835203.626    -4342103.50849  -3359446.85545  23835203.172    23835212.319
       213.000         155.000
  21443369.730    -1224876.38349   -931676.80847  21443369.124    21443375.813
       238.000         201.000
 03  4 15 19 18  0.0000000  0  8G17G30G26G 5G 6G21G29G10
  22306650.376   -12153206.40249  -9444633.85547  22306649.388    22306656.971
       232.000         190.000
  20942038.687    -1357750.94149  -1043306.88547  20942039.088    20942045.122
       244.000         209.000
  24009654.320    -2673105.57049  -2049396.22445  24009654.112    24009664.714
       213.000         148.000
  22768064.750    11199305.05949   8731621.19646  22768064.667    22768072.849
       226.000         175.000
  20876272.541   -13806801.05749 -10739748.81947  20876272.537    20876277.921
       243.000         211.000
  22575834.101   -15760261.51449 -12246833.90846  22575833.156    22575839.023
       229.000         179.000
  23823376.862    -4404252.81049  -3407874.79045  23823377.199    23823384.686
       213.000         156.000
  21455180.855    -1162808.33049   -883312.11047  21455180.228    21455186.763
       237.000         200.000
 03  4 15 19 18 30.0000000  0  8G17G30G26G 5G 6G21G29G10
  22297215.972   -12202783.85649  -9483265.62247  22297215.819    22297222.786
       232.000         190.000
  20953213.011    -1299029.35549   -997549.85947  20953213.192    20953219.325
       243.000         208.000
  23992830.737    -2761512.14149  -2118284.20045  23992829.700    23992841.187
       212.000         148.000
  22786891.390    11298239.76049   8808713.04546  22786891.843    22786899.677
       224.000         175.000
  20867744.447   -13851616.56049 -10774669.99347  20867744.341    20867749.913
       243.000         211.000
  22564615.206   -15819216.62949 -12292772.91846  22564614.203    22564619.889
       230.000         179.000
  23811590.704    -4466189.29849  -3456136.88045  23811590.829    23811599.136
       215.000         157.000
  21467084.374    -1100254.94149   -834569.23447  21467083.787    21467089.794
       237.000         199.000
 03  4 15 19 19  0.0000000  0  8G17G30G26G 5G 6G21G29G10
  22287819.450   -12252163.40849  -9521743.16547  22287819.124    22287826.050
       233.000         190.000
  20964478.698    -1239827.62149   -951418.69247  20964479.273    20964484.915
       242.000         208.000
  23976014.143    -2849881.81149  -2187143.44045  23976013.651    23976025.881
       213.000         151.000
  22805752.618    11397355.92049   8885946.28846  22805752.206    22805760.395
       225.000         175.000
  20859262.075   -13896191.65449 -10809403.83147  20859262.043    20859267.484
       243.000         211.000
  22553433.388   -15877978.11549 -12338561.04446  22553433.143    22553437.690
       232.000         180.000
  23799845.759    -4527909.15049  -3504230.15745  23799845.380    23799854.365
       212.000         159.000
  21479080.017    -1037217.56349   -785449.21747  21479079.383    21479085.489
       237.000         198.000
 03  4 15 19 19 30.0000000  0  8G17G30G26G 5G 6G21G29G10
  22278460.335   -12301346.40849  -9560067.53747  22278459.453    22278466.520
       232.000         190.000
  20975835.126    -1180149.18449   -904916.06647  20975835.651    20975841.632
       243.000         207.000
  23959205.237    -2938212.27749  -2255972.12045  23959204.678    23959216.303
       214.000         154.000
  22824647.719    11496649.67049   8963317.91346  22824648.934    22824655.733
       225.000         174.000
  20850825.564   -13940525.60949 -10843949.76847  20850825.464    20850831.125
       243.000         211.000
  22542288.135   -15936547.31149 -12384199.33046  22542287.309    22542293.490
       230.000         180.000
  23788142.238    -4589410.28049  -3552153.02245  23788141.153    23788150.133
       209.000         157.000
  21491167.048     -973699.91349   -735954.95647  21491166.475    21491172.798
       238.000         198.000
 03  4 15 19 20  0.0000000  0  8G17G30G26G 5G 6G21G29G10
  22269138.606   -12350331.88749  -9598237.99847  22269138.336    22269145.327
       232.000         190.000
  20987282.221    -1119994.54249   -858042.37347  20987282.776    20987288.761
       243.000         208.000
  23942404.755    -3026498.65849  -2324766.42445  23942404.788    23942414.087
       216.000         155.000
  22843576.560    11596120.01349   9040827.13346  22843577.261    22843584.547
       225.000         173.000
  20842435.566   -13984615.15749 -10878305.26047  20842435.442    20842441.289
       243.000         211.000
  22531179.507   -15994922.66249 -12429686.59046  22531179.549    22531184.618
       230.000         181.000
  23776481.247    -4650688.28649  -3599902.01645  23776481.444    23776488.893
       214.000         157.000
  21503345.319     -909702.84849   -686087.13047  21503344.644    21503350.920
       237.000         198.000
 03  4 15 19 20 30.0000000  0  8G17G30G26G 5G 6G21G29G10
  22259854.297   -12399121.61249  -9636255.92247  22259853.494    22259860.985
       233.000         191.000
  20998819.249    -1059367.49749   -810800.56847  20998819.870    20998825.800
       244.000         208.000
  23925613.081    -3114739.01349  -2393524.83745  23925612.963    23925623.379
       215.000         157.000
  22862538.137    11695762.47849   9118470.48546  22862537.605    22862545.900
       224.000         173.000
  20834092.156   -14028460.00849 -10912470.07747  20834092.218    20834097.718
       243.000         211.000
  22520107.734   -16053105.99449 -12475024.19246  22520107.524    22520112.413
       230.000         181.000
  23764863.295    -4711741.83249  -3647476.07145  23764863.287    23764871.405
       215.000         160.000
  21515614.008     -845230.50049   -635848.95347  21515613.441    21515619.462
       237.000         198.000
 03  4 15 19 21  0.0000000  0  8G17G30G26G 5G 6G21G29G10
  22250607.264   -12447714.93849  -9674120.81547  22250606.366    22250613.699
       231.000         191.000
  21010445.951     -998269.18949   -763191.55347  21010446.481    21010452.362
       243.000         207.000
  23908830.749    -3202929.04949  -2462244.07145  23908829.951    23908841.896
       214.000         158.000
  22881531.968    11795575.48449   9196246.73746  22881532.005    22881540.145
       223.000         172.000
  20825795.848   -14072057.53349 -10946442.17547  20825796.061    20825801.253
       243.000         211.000
  22509072.524   -16111096.41249 -12520211.48946  22509071.324    22509076.753
       229.000         180.000
  23753288.517    -4772567.01049  -3694872.21045  23753287.671    23753296.950
       211.000         160.000
  21527972.927     -780284.17149   -585241.44947  21527972.145    21527979.074
       236.000         199.000
 03  4 15 19 21 30.0000000  0  8G17G30G26G 5G 6G21G29G10
  22241397.436   -12496111.96149  -9711832.75547  22241397.131    22241403.852
       231.000         190.000
  21022161.888     -936701.61549   -715216.87447  21022162.460    21022168.206
       243.000         207.000
  23892058.846    -3291065.09949  -2530921.21345  23892058.842    23892068.793
       217.000         157.000
  22900557.633    11895556.60049   9274153.97246  22900558.034    22900565.910
       224.000         171.000
  20817547.035   -14115405.61649 -10980219.89847  20817547.242    20817552.531
       243.000         212.000
  22498073.893   -16168893.75349 -12565248.32546  22498073.498    22498078.749
       229.000         180.000
  23741757.730    -4833160.41749  -3742087.74145  23741757.054    23741766.137
       213.000         159.000
  21540421.509     -714866.12749   -534266.37547  21540421.117    21540427.501
       237.000         199.000
 03  4 15 19 22  0.0000000  0  8G17G30G26G 5G 6G21G29G10
  22232224.955   -12544313.56749  -9749392.41247  22232224.891    22232231.927
       232.000         191.000
  21033966.667     -874667.91049   -666878.97547  21033967.477    21033973.038
       243.000         207.000
  23875297.803    -3379144.67449  -2599554.35245  23875297.416    23875308.237
       214.000         156.000
  22919614.943    11995702.45949   9352189.56946  22919614.881    22919623.000
       224.000         171.000
  20809345.899   -14158503.10249 -11013802.35047  20809345.970    20809351.674
       243.000         212.000
  22487111.879   -16226499.04349 -12610135.53046  22487111.167    22487116.992
       229.000         180.000
  23730271.707    -4893519.97649  -3789121.03845  23730271.885    23730279.036
       216.000         160.000
  21552959.272     -648979.95549   -482926.51847  21552958.707    21552964.961
       237.000         199.000
 03  4 15 19 22 30.0000000  0  8G17G30G26G 5G 6G21G29G10
  22223089.611   -12592320.19749  -9786800.13847  22223089.016    22223096.450
       232.000         191.000
  21045859.762     -812169.70849   -618179.13347  21045860.274    21045866.168
       243.000         207.000
  23858548.223    -3467163.79249  -2668140.37745  23858548.011    23858558.483
       214.000         156.000
  22938703.119    12096010.56649   9430351.60146  22938703.146    22938710.742
       222.000         170.000
  20801192.847   -14201347.84049 -11047187.86047  20801192.964    20801198.463
       243.000         212.000
  22476186.475   -16283912.08949 -12654872.92346  22476185.950    22476191.467
       230.000         180.000
  23718830.850    -4953642.31749  -3835969.47445  23718830.545    23718838.275
       213.000         160.000
  21565585.684     -582627.58749   -431223.39447  21565585.036    21565591.271
       236.000         198.000
 03  4 15 19 23  0.0000000  0  8G17G30G26G 5G 6G21G29G10
  22213991.290   -12640132.09949  -9824056.14547  22213991.004    22213998.076
       233.000         191.000
  21057840.626     -749209.99949   -569119.67147  21057841.270    21057846.768
       243.000         207.000
  23841810.576    -3555119.55649  -2736677.02945  23841809.279    23841820.049
       212.000         153.000
  22957821.542    12196477.71049   9508637.54546  22957821.121    22957829.664
       222.000         170.000
  20793088.080   -14243938.49449 -11080375.38547  20793087.955    20793093.531
       243.000         212.000
  22465297.448   -16341133.25449 -12699460.81246  22465296.799    22465302.424
       228.000         180.000
  23707435.333    -5013525.17349  -3882631.29745  23707433.995    23707443.035
       210.000         156.000
  21578300.388     -515811.72249   -379159.10247  21578299.834    21578305.975
       237.000         198.000
 03  4 15 19 23 30.0000000  0  8G17G30G26G 5G 6G21G29G10
  22204930.049   -12687750.03649  -9861160.99247  22204929.747    22204936.208
       234.000         192.000
  21069908.931     -685790.92549   -519702.26247  21069909.475    21069915.136
       243.000         206.000
  23825085.509    -3643008.75949  -2805161.81245  23825084.847    23825094.644
       210.000         151.000
  22976969.629    12297101.25249   9587045.35746  22976969.915    22976978.009
       221.000         169.000
  20785032.015   -14286273.25449 -11113363.51347  20785031.842    20785037.506
       243.000         212.000
  22454445.186   -16398162.87849 -12743899.43546  22454445.181    22454450.665
       232.000         182.000
  23696085.908    -5073165.37849  -3929104.06945  23696084.902    23696093.515
       212.000         153.000
  21591102.765     -448535.18149   -326735.84147  21591102.171    21591108.263
       237.000         197.000
 03  4 15 19 24  0.0000000  0 10G17G30G26G 5G 6G21G29G10G18G23
  22195902.500   -12735189.97749  -9898127.15647  22195901.887    22195908.931
       233.000         192.000
  21082061.181     -621930.56949   -469941.00247  21082061.652    21082067.100
       242.000         205.000
  23808370.806    -3730843.42449  -2873604.12045  23808369.829    23808380.659
       210.000         150.000
  22996143.889    12397862.93149   9665560.80246  22996143.741    22996152.878
       222.000         169.000
  20777022.039   -14328366.06649 -11146163.10947  20777021.987    20777027.515
       243.000         212.000
  22443626.348   -16455016.90949 -12788201.23946  22443625.551    22443631.171
       231.000         182.000
  23684780.510    -5132575.90749  -3975397.89145  23684780.718    23684789.002
       216.000         156.000
  21603989.315     -380816.33349   -273967.92547  21603988.660    21603995.129
       237.000         197.000
  24755452.699    -9223757.38559  -6732213.00845  24755451.797    24755463.847
       198.000         133.000
  24482670.063    -4040039.50359  -2711537.30944  24482669.021    24482683.851
       196.000         130.000
 03  4 15 19 24 30.0000000  0 10G17G30G26G 5G 6G21G29G10G18G23
  22186911.824   -12782435.27749  -9934941.65547  22186911.231    22186918.276
       233.000         192.000
  21094300.125     -557614.30249   -419824.48647  21094300.620    21094306.322
       241.000         205.000
  23791670.350    -3818603.51449  -2941988.29545  23791668.930    23791679.557
       208.000         150.000
  23015347.219    12498776.78649   9744194.83246  23015347.397    23015357.011
       222.000         169.000
  20769061.637   -14370198.09249 -11178759.49547  20769061.478    20769067.214
       243.000         212.000
  22432843.893   -16511678.64249 -12832353.21346  22432843.426    22432848.897
       231.000         183.000
  23673522.629    -5191736.91549  -4021497.27745  23673523.091    23673530.776
       215.000         158.000
  21616962.697     -312640.66249   -220844.04647  21616962.029    21616968.681
       235.000         197.000
  24734507.404    -9333824.05649  -6817978.82745  24734505.928    24734518.443
       202.000         136.000
  24462267.218    -4147255.35049  -2795081.66945  24462267.245    24462279.559
       197.000         133.000
 03  4 15 19 25  0.0000000  0 10G17G30G26G 5G 6G21G29G10G18G23
  22177959.361   -12829480.66949  -9971600.37447  22177958.589    22177965.485
       233.000         192.000
  21106626.428     -492839.16149   -369350.40447  21106627.096    21106632.911
       242.000         205.000
  23774985.577    -3906280.04049  -3010307.38745  23774984.671    23774995.061
       209.000         149.000
  23034580.195    12599845.43749   9822949.48146  23034580.342    23034589.794
       221.000         169.000
  20761152.235   -14411762.20549 -11211147.12147  20761152.293    20761157.767
       243.000         212.000
  22422099.302   -16568142.68949 -12876351.12746  22422099.164    22422103.566
       233.000         183.000
  23662313.654    -5250640.09849  -4067395.71845  23662313.131    23662320.539
       211.000         157.000
  21630023.473     -244005.43849   -167362.08047  21630022.877    21630029.294
       235.000         196.000
  24713573.807    -9443827.04049  -6903695.05645  24713571.660    24713584.757
       203.000         138.000
  24441885.605    -4254360.34349  -2878539.65045  24441884.685    24441900.200
       204.000         137.000
 03  4 15 19 25 30.0000000  0 10G17G30G26G 5G 6G21G29G10G18G23
  22169044.144   -12876330.00349 -10008106.32047  22169043.750    22169050.734
       233.000         192.000
  21119039.092     -427610.47949   -318522.91547  21119039.703    21119045.364
       242.000         205.000
  23758317.132    -3993872.65249  -3078561.06845  23758318.069    23758326.460
       212.000         150.000
  23053841.546    12701063.25049   9901820.34646  23053841.947    23053849.984
       220.000         168.000
  20753293.590   -14453059.68849 -11243326.97947  20753293.564    20753299.128
       243.000         212.000
  22411391.620   -16624412.18749 -12920197.44046  22411390.997    22411396.019
       231.000         183.000
  23651153.496    -5309285.65149  -4113093.39645  23651151.678    23651162.023
       207.000         152.000
  21643170.673     -174916.48849   -113526.56047  21643170.065    21643176.394
       234.000         196.000
  24692652.684    -9553766.67249  -6989361.93245  24692649.055    24692665.498
       207.000         139.000
  24421524.957    -4361355.12749  -2961911.80745  24421524.011    24421538.210
       206.000         138.000
 03  4 15 19 26  0.0000000  0 10G17G30G26G 5G 6G21G29G10G18G23
  22160165.999   -12922985.04949 -10044460.87747  22160165.726    22160172.705
       234.000         192.000
  21131537.276     -361932.30449   -267345.17547  21131537.661    21131543.634
       241.000         205.000
  23741665.143    -4081379.54749  -3146747.97845  23741664.448    23741675.117
       212.000         152.000
  23073130.224    12802425.87449   9980804.06246  23073129.815    23073138.134
       221.000         166.000
  20745485.716   -14494090.38149 -11275298.95347  20745485.589    20745491.215
       243.000         212.000
  22400720.460   -16680489.01049 -12963893.63746  22400719.585    22400725.489
       232.000         183.000
  23640042.382    -5367672.13349  -4158589.25745  23640041.400    23640051.048
       205.000         149.000
  21656403.462     -105377.73249    -59340.54547  21656402.994    21656409.100
       235.000         195.000
  24671743.622    -9663642.34149  -7074978.96845  24671742.548    24671756.306
       207.000         140.000
  24401185.453    -4468238.94749  -3045197.47945  24401184.412    24401198.413
       205.000         140.000
 03  4 15 19 26 30.0000000  0 10G17G30G26G 5G 6G21G29G10G18G23
  22151324.639   -12969447.26149 -10080665.16647  22151324.277    22151330.597
       233.000         193.000
  21144120.305     -295808.11249   -215819.88547  21144120.820    21144126.698
       241.000         204.000
  23725029.693    -4168798.35549  -3214866.27245  23725028.844    23725038.470
       210.000         152.000
  23092445.814    12903929.43549  10059897.59346  23092445.293    23092453.426
       220.000         165.000
  20737728.725   -14534853.50949 -11307062.43247  20737728.579    20737734.430
       244.000         212.000
  22390085.728   -16736374.61349 -13007440.81346  22390086.096    22390089.868
       233.000         183.000
  23628981.434    -5425797.89649  -4203881.93845  23628981.906    23628990.069
       212.000         153.000
  21669721.123      -35393.07249     -4807.07247  21669720.465    21669726.584
       235.000         195.000
  24650846.924    -9773452.99249  -7160545.34345  24650846.084    24650858.749
       207.000         140.000
  24380867.240    -4575010.45149  -3128395.66145  24380865.978    24380879.958
       206.000         140.000
 03  4 15 19 27  0.0000000  0 10G17G30G26G 5G 6G21G29G10G18G23
  22142519.516   -13015718.19849 -10116720.41747  22142518.893    22142525.672
       233.000         193.000
  21156787.500     -229241.67549   -163949.98647  21156787.920    21156794.280
       241.000         204.000
  23708411.221    -4256126.99349  -3282914.30445  23708410.959    23708420.934
       211.000         152.000
  23111787.466    13005569.93749  10139097.82746  23111787.452    23111794.897
       219.000         163.000
  20730022.791   -14575348.62749 -11338617.07447  20730022.744    20730028.278
       244.000         212.000
  22379487.239   -16792070.37849 -13050840.06446  22379486.424    22379491.558
       232.000         183.000
  23617970.499    -5483661.33749  -4248970.22745  23617971.069    23617977.861
       212.000         154.000
  21683122.908       35033.64149     50070.85947  21683122.387    21683128.512
       235.000         195.000
  24629963.023    -9883197.70449  -7246060.35345  24629961.283    24629974.753
       210.000         139.000
  24360570.710    -4681668.71449  -3211505.61945  24360570.088    24360581.647
       208.000         139.000
 03  4 15 19 27 30.0000000  0 10G17G30G26G 5G 6G21G29G10G18G23
  22133750.902   -13061797.42549 -10152626.28547  22133750.593    22133757.579
       234.000         193.000
  21169538.535     -162234.45549   -111736.62747  21169539.263    21169545.042
       241.000         204.000
  23691811.029    -4343361.10349  -3350888.69845  23691810.071    23691820.992
       207.000         153.000
  23131154.845    13107345.64549  10218403.41745  23131154.915    23131163.435
       220.000         162.000
  20722368.358   -14615573.07149 -11369960.79448  20722368.323    20722373.974
       243.000         213.000
  22368924.691   -16847575.49249 -13094090.78546  22368923.806    22368929.155
       231.000         183.000
  23607009.999    -5541258.72349  -4293851.21645  23607009.487    23607017.297
       209.000         153.000
  21696608.505      105900.66849    105291.89547  21696608.161    21696614.388
       235.000         195.000
  24609092.256    -9992873.28049  -7331521.47245  24609091.291    24609104.103
       209.000         139.000
  24340296.327    -4788210.35649  -3294524.70445  24340295.154    24340308.710
       211.000         139.000
 03  4 15 19 28  0.0000000  0 10G17G30G26G 5G 6G21G29G10G18G23
  22125018.549   -13107686.12949 -10188383.69847  22125018.179    22125024.817
       234.000         194.000
  21182372.912      -94789.38049    -59182.07747  21182373.618    21182379.559
       242.000         204.000
  23675229.174    -4430497.71549  -3418787.13945  23675228.400    23675239.031
       206.000         152.000
  23150547.417    13209253.51149  10297811.98146  23150547.350    23150556.474
       219.000         163.000
  20714765.683   -14655525.44049 -11401092.50748  20714765.766    20714771.325
       244.000         213.000
  22358398.467   -16902890.89949 -13137193.66946  22358398.333    22358403.832
       233.000         184.000
  23596100.651    -5598587.71049  -4338523.05545  23596100.849    23596108.335
       209.000         153.000
  21710177.338      177204.95849    160853.65447  21710176.767    21710183.022
       236.000         195.000
  24588235.089   -10102477.70249  -7416927.17745  24588234.190    24588245.503
       210.000         138.000
  24320044.557    -4894633.43449  -3377451.40145  24320043.634    24320056.763
       209.000         138.000
 03  4 15 19 28 30.0000000  0 10G17G30G26G 5G 6G21G29G10G18G23
  22116322.286   -13153384.94349 -10223993.14647  22116321.589    22116328.680
       234.000         193.000
  21195290.107      -26909.42149     -6288.66447  21195290.596    21195296.630
       241.000         203.000
  23658666.652    -4517533.92049  -3486607.34345  23658667.685    23658676.213
       207.000         151.000
  23169964.532    13311290.11649  10377320.85846  23169963.828    23169973.738
       218.000         164.000
  20707215.009   -14695204.54449 -11432011.29048  20707214.983    20707220.553
       243.000         213.000
  22347908.322   -16958017.14649 -13180149.15346  22347907.605    22347913.171
       232.000         184.000
  23585242.747    -5655646.01449  -4382983.92145  23585242.007    23585250.227
       209.000         153.000
  21723828.681      248943.19049    216753.55947  21723828.117    21723834.540
       234.000         195.000
  24567391.686   -10212009.55949  -7502276.31045  24567390.040    24567403.262
       208.000         137.000
  24299815.484    -5000936.16749  -3460284.32845  24299813.759    24299827.558
       213.000         139.000
 03  4 15 19 29  0.0000000  0 10G17G30G26G 5G 6G21G29G10G18G23
  22107662.295   -13198893.77449 -10259454.54547  22107661.814    22107668.780
       234.000         193.000
  21208289.666       41403.24849     46941.92747  21208290.196    21208296.201
       241.000         203.000
  23642123.921    -4604465.96649  -3554346.38845  23642123.548    23642133.366
       205.000         149.000
  23189405.512    13413452.93649  10456928.08646  23189404.979    23189414.084
       218.000         164.000
  20699716.744   -14734608.16749 -11462715.41548  20699716.694    20699722.491
       243.000         213.000
  22337454.211   -17012954.07549 -13222957.11446  22337453.932    22337458.738
       233.000         184.000
  23574436.901    -5712430.37249  -4427231.35745  23574436.797    23574444.300
       211.000         155.000
  21737562.135      321113.07849    272989.80947  21737561.579    21737567.691
       234.000         194.000
  24546562.483   -10321466.30849  -7587566.91445  24546561.749    24546573.510
       210.000         138.000
  24279609.897    -5107115.70749  -3543021.26045  24279607.867    24279621.784
       212.000         140.000
 03  4 15 19 29 30.0000000  0 10G17G30G26G 5G 6G21G29G10G18G23
  22099038.276   -13244213.11049 -10294768.28647  22099037.505    22099044.622
       234.000         193.000
  21221371.130      110146.42649    100507.97747  21221371.610    21221377.780
       241.000         203.000
  23625601.563    -4691289.96949  -3622001.27945  23625601.896    23625610.928
       204.000         150.000
  23208870.028    13515739.61249  10536631.82046  23208869.994    23208878.760
       217.000         164.000
  20692271.318   -14773734.16149 -11493203.20448  20692271.319    20692276.764
       244.000         213.000
  22327036.131   -17067701.71449 -13265617.57846  22327035.905    22327040.589
       233.000         185.000
  23563683.925    -5768937.64049  -4471262.91245  23563683.571    23563692.326
       212.000         156.000
  21751377.265      393712.15149    329560.48347  21751376.915    21751383.195
       234.000         194.000
  24525748.065   -10430845.23949  -7672796.88545  24525746.019    24525758.904
       211.000         139.000
  24259428.210    -5213169.61849  -3625660.30345  24259426.708    24259439.759
       212.000         142.000
 03  4 15 19 30  0.0000000  0 10G17G30G26G 5G 6G21G29G10G18G23
  22090450.144   -13289343.44149 -10329934.75347  22090449.500    22090456.664
       233.000         193.000
  21234533.899      179317.09349    154407.14247  21234534.388    21234540.741
       241.000         203.000
  23609100.548    -4778003.04849  -3689569.69045  23609099.760    23609109.103
       204.000         149.000
  23228357.616    13618147.04949  10616429.63746  23228357.403    23228366.539
       217.000         164.000
  20684879.003   -14812581.25149 -11523473.66448  20684879.066    20684884.462
       244.000         213.000
  22316653.868   -17122260.69549 -13308131.02946  22316653.252    22316658.346
       232.000         185.000
  23552983.990    -5825165.40449  -4515076.72645  23552984.308    23552991.617
       212.000         154.000
  21765273.498      466737.18749    386463.08547  21765273.195    21765279.250
       235.000         194.000
  24504948.664   -10540144.57849  -7757964.82745  24504947.888    24504958.788
       212.000         140.000
  24239270.854    -5319095.95549  -3708199.94445  24239268.963    24239282.540
       211.000         143.000
 03  4 15 19 30 30.0000000  0 10G17G30G26G 5G 6G21G29G10G18G23
  22081897.799   -13334285.83549 -10364954.77847  22081896.931    22081904.392
       233.000         194.000
  21247777.532      248912.38849    208637.18047  21247778.079    21247784.227
       241.000         203.000
  23592620.834    -4864602.24749  -3757049.40045  23592619.359    23592630.819
       205.000         148.000
  23247867.405    13720671.95249  10696319.00246  23247866.727    23247876.872
       218.000         165.000
  20677540.007   -14851148.08549 -11553525.74648  20677539.967    20677545.425
       244.000         213.000
  22306307.190   -17176631.87849 -13350498.15046  22306306.965    22306311.974
       232.000         185.000
  23542337.818    -5881111.48549  -4558671.01545  23542338.468    23542344.195
       212.000         151.000
  21779250.340      540185.29149    443695.33947  21779249.969    21779256.235
       236.000         194.000
  24484164.677   -10649362.64449  -7843069.46645  24484163.486    24484174.535
       211.000         140.000
  24219138.154    -5424892.62249  -3790638.52245  24219136.341    24219148.484
       211.000         143.000
 03  4 15 19 31  0.0000000  0 10G17G30G26G 5G 6G21G29G10G18G23
  22073381.357   -13379039.75049 -10399827.92247  22073380.637    22073388.253
       233.000         194.000
  21261101.673      318930.90249    263197.00047  21261102.295    21261108.212
       241.000         203.000
  23576163.907    -4951082.74149  -3824436.60345  23576164.411    23576174.468
       209.000         152.000
  23267399.314    13823312.93649  10776298.80646  23267399.195    23267408.752
       219.000         165.000
  20670254.862   -14889431.80949 -11583357.22248  20670254.860    20670260.194
       244.000         213.000
  22295996.660   -17230814.17249 -13392718.08246  22295996.323    22296001.555
       233.000         185.000
  23531746.016    -5936772.04049  -4602042.77745  23531745.272    23531753.367
       211.000         151.000
  21793307.310      614054.93049    501256.06747  21793306.878    21793312.799
       236.000         195.000
  24463397.062   -10758495.83849  -7928107.95945  24463395.933    24463406.733
       212.000         142.000
  24199030.692    -5530556.30749  -3872973.51045  24199028.931    24199042.728
       209.000         142.000
 03  4 15 19 31 30.0000000  0 11G17G30G26G 5G 6G21G29G15G10G18G23
  22064898.936   -13423615.02149 -10434561.87747  22064898.609    22064905.561
       234.000         194.000
  21274503.951      389360.45649    318077.11447  21274504.607    21274510.628
       241.000         203.000
  23559728.623    -5037450.92549  -3891736.26045  23559728.799    23559737.261
       209.000         153.000
  23286951.202    13926057.46149  10856359.29846  23286952.348    23286960.302
       219.000         165.000
  20663022.077   -14927440.26049 -11612974.20448  20663022.097    20663027.458
       244.000         213.000
  22285720.190   -17284817.41349 -13434798.50146  22285719.168    22285725.137
       232.000         185.000
  23521206.999    -5992153.67049  -4645197.21645  23521206.398    23521215.442
       208.000         153.000
  24750068.052    -4676979.01359  -3610737.64845  24750067.195    24750079.407
       209.000         142.000
  21807442.100      688333.42149    559135.38347  21807441.163    21807448.091
       235.000         194.000
  24442644.216   -10867551.71149  -8013086.21645  24442643.010    24442655.026
       214.000         142.000
  24178947.063    -5636094.30949  -3955210.54845  24178945.235    24178958.571
       210.000         141.000
 03  4 15 19 32  0.0000000  0 11G17G30G26G 5G 6G21G29G15G10G18G23
  22056452.630   -13468000.82549 -10469148.19047  22056452.346    22056459.132
       235.000         195.000
  21287986.211      460209.78749    373284.32747  21287986.903    21287992.731
       241.000         203.000
  23543317.318    -5123691.92949  -3958936.81045  23543316.661    23543326.321
       211.000         153.000
  23306524.622    14028914.30349  10936507.29546  23306525.348    23306533.544
       220.000         166.000
  20655844.269   -14965160.13149 -11642366.31448  20655844.257    20655849.680
       244.000         213.000
  22275479.780   -17338630.61149 -13476730.84146  22275479.456    22275484.372
       233.000         185.000
  23510723.818    -6047242.26749  -4688123.34845  23510724.064    23510731.612
       213.000         154.000
  24735118.197    -4755540.35549  -3671954.02045  24735115.916    24735129.098
       212.000         140.000
  21821656.343      763029.74349    617340.28247  21821655.492    21821662.122
       234.000         193.000
  24421908.622   -10976516.81349  -8097993.73745  24421908.525    24421919.453
       211.000         143.000
  24158890.024    -5741492.96949  -4037339.01445  24158889.299    24158901.792
       210.000         142.000
 03  4 15 19 32 30.0000000  0 11G17G30G26G 5G 6G21G29G15G10G18G23
  22048042.538   -13512196.07749 -10503586.03147  22048041.728    22048048.769
       234.000         194.000
  21301548.074      531477.51749    428817.55947  21301548.675    21301554.607
       241.000         203.000
  23526931.318    -5209801.07549  -4026034.61345  23526931.504    23526940.812
       213.000         155.000
  23326118.886    14131881.87049  11016741.57446  23326118.614    23326129.196
       218.000         166.000
  20648721.865   -15002588.55849 -11671531.32948  20648721.757    20648727.164
       244.000         213.000
  22265275.882   -17392252.70349 -13518514.25346  22265275.690    22265280.602
       233.000         185.000
  23500297.339    -6102033.95449  -4730818.12945  23500298.122    23500304.481
       214.000         154.000
  24720189.475    -4833989.02749  -3733082.60345  24720188.620    24720199.586
       211.000         138.000
  21835949.670      838142.15949    675869.40047  21835948.547    21835955.418
       233.000         192.000
  24401191.010   -11085387.52949  -8182827.72045  24401190.138    24401201.700
       209.000         142.000
  24138860.245    -5846748.66649  -4119356.10045  24138859.835    24138871.103
       208.000         143.000
 03  4 15 19 33  0.0000000  0 11G17G30G26G 5G 6G21G29G15G10G18G23
  22039668.141   -13556203.37549 -10537877.41147  22039667.746    22039675.368
       234.000         195.000
  21315188.634      603158.90749    484673.12447  21315188.902    21315195.229
       240.000         202.000
  23510570.506    -5295777.00849  -4093028.62545  23510570.391    23510579.939
       214.000         157.000
  23345733.007    14234955.08749  11097058.19946  23345732.506    23345744.155
       218.000         166.000
  20641654.830   -15039726.05949 -11700469.64548  20641654.690    20641660.427
       244.000         213.000
  22255107.795   -17445686.21749 -13560150.72146  22255107.180    22255112.524
       233.000         186.000
  23489927.473    -6156528.17049  -4773281.13145  23489927.072    23489934.674
       213.000         153.000
  24705282.084    -4912327.24649  -3794125.14545  24705280.420    24705292.566
       214.000         138.000
  21850321.261      913665.76249    734718.92847  21850320.508    21850327.128
       234.000         193.000
  24380491.331   -11194163.85649  -8267588.16445  24380490.727    24380502.758
       210.000         143.000
  24118857.841    -5951861.40849  -4201261.78745  24118856.873    24118868.651
       210.000         144.000
 03  4 15 19 33 30.0000000  0 11G17G30G26G 5G 6G21G29G15G10G18G23
  22031329.129   -13600024.95949 -10572024.07647  22031328.719    22031335.950
       234.000         195.000
  21328907.176      675250.21549    540848.11047  21328907.674    21328913.687
       241.000         202.000
  23494235.384    -5381617.39449  -4159917.00345  23494235.329    23494244.345
       214.000         157.000
  23365366.493    14338130.12449  11177454.15046  23365366.184    23365377.040
       218.000         165.000
  20634643.299   -15076571.78049 -11729180.59848  20634643.084    20634648.898
       244.000         213.000
  22244975.242   -17498932.53349 -13601641.33346  22244975.094    22244979.814
       233.000         186.000
  23479614.444    -6210723.13849  -4815510.92145  23479614.751    23479621.863
       216.000         153.000
  24690395.524    -4990556.12049  -3855082.50245  24690395.545    24690404.358
       210.000         138.000
  21864770.457      989596.71349    793885.87347  21864770.115    21864776.616
       235.000         193.000
  24359809.788   -11302844.83049  -8352274.31145  24359809.275    24359820.883
       209.000         143.000
  24098882.830    -6056829.93149  -4283055.10145  24098881.851    24098893.678
       211.000         145.000
 03  4 15 19 34  0.0000000  0 11G17G30G26G 5G 6G21G29G15G10G18G23
  22023025.623   -13643660.13949 -10606025.48947  22023025.397    22023032.240
       234.000         194.000
  21342703.354      747749.25649    597340.81147  21342703.644    21342710.097
       240.000         201.000
  23477927.016    -5467318.14449  -4226696.57545  23477926.740    23477935.989
       214.000         157.000
  23385019.136    14441404.90049  11257927.80246  23385018.928    23385028.455
       217.000         164.000
  20627687.714   -15113123.37349 -11757662.36448  20627687.659    20627693.336
       243.000         213.000
  22234878.497   -17551991.47649 -13642985.93446  22234878.054    22234883.439
       233.000         186.000
  23469358.956    -6264615.76649  -4857505.10345  23469358.042    23469366.175
       214.000         155.000
  24675530.059    -5068674.99349  -3915954.15545  24675529.077    24675537.094
       216.000         136.000
  21879296.742     1065932.75249    853368.46747  21879296.318    21879302.934
       236.000         194.000
  24339147.016   -11411427.57849  -8436883.92845  24339146.350    24339158.323
       209.000         143.000
  24078935.769    -6161651.22749  -4364733.69945  24078934.680    24078946.146
       209.000         145.000
 03  4 15 19 34 30.0000000  0 11G17G30G26G 5G 6G21G29G15G10G18G23
  22014757.293   -13687110.71249 -10639883.05047  22014757.211    22014763.684
       235.000         195.000
  21356576.332      820652.41549    654148.40447  21356576.660    21356583.082
       240.000         201.000
  23461645.455    -5552877.06149  -4293365.64545  23461644.951    23461653.770
       214.000         155.000
  23404690.213    14544775.59149  11338476.20046  23404690.560    23404699.460
       218.000         164.000
  20620788.255   -15149380.31949 -11785914.53648  20620788.325    20620793.703
       244.000         213.000
  22224817.110   -17604864.16449 -13684185.40746  22224815.730    22224821.598
       232.000         185.000
  23459161.304    -6318204.11149  -4899262.18745  23459161.680    23459169.605
       218.000         162.000
  24660685.350    -5146684.82249  -3976740.81545  24660685.063    24660693.597
       217.000         134.000
  21893899.466     1142670.03649    913163.71347  21893899.029    21893905.257
       235.000         194.000
  24318503.153   -11519911.16149  -8521416.27245  24318501.772    24318512.932
       210.000         143.000
  24059016.823    -6266324.12349  -4446296.66145  24059015.330    24059027.854
       210.000         146.000
 03  4 15 19 35  0.0000000  0 11G17G30G26G 5G 6G21G29G15G10G18G23
  22006524.151   -13730376.63849 -10673596.73547  22006523.501    22006531.027
       234.000         196.000
  21370525.882      893957.59549    711269.25947  21370526.722    21370532.890
       241.000         201.000
  23445391.741    -5638290.04149  -4359921.00045  23445392.782    23445400.090
       218.000         156.000
  23424379.103    14648240.12049  11419097.71846  23424379.699    23424388.573
       218.000         164.000
  20613945.372   -15185340.18749 -11813935.21848  20613945.413    20613950.722
       244.000         213.000
  22214791.100   -17657550.43849 -13725239.61446  22214790.940    22214795.854
       233.000         186.000
  23449022.429    -6371485.09949  -4940779.76346  23449022.609    23449030.910
       221.000         169.000
  24645861.244    -5224585.11649  -4037442.14145  24645859.876    24645869.980
       214.000         133.000
  21908578.000     1219806.21849    973269.80347  21908577.198    21908583.572
       234.000         194.000
  24297878.699   -11628292.62449  -8605869.03945  24297876.860    24297887.766
       209.000         143.000
  24039126.817    -6370845.87349  -4527741.83645  24039125.780    24039138.270
       209.000         146.000
 03  4 15 19 35 30.0000000  0 11G17G30G26G 5G 6G21G29G15G10G18G23
  21998325.901   -13773458.25649 -10707166.81347  21998325.676    21998332.364
       235.000         196.000
  21384551.566      967662.34249    768701.46547  21384552.063    21384558.535
       240.000         201.000
  23429166.698    -5723553.56949  -4426359.89045  23429165.916    23429176.144
       215.000         158.000
  23444085.285    14751795.86049  11499790.30746  23444085.417    23444094.310
       218.000         164.000
  20607159.357   -15221000.93049 -11841722.81948  20607159.310    20607164.812
       244.000         213.000
  22204800.795   -17710050.28449 -13766148.54746  22204800.536    22204805.917
       234.000         187.000
  23438942.429    -6424455.94649  -4982055.69746  23438942.688    23438950.507
       217.000         167.000
  24631057.929    -5302375.70949  -4098058.01845  24631056.934    24631066.957
       213.000         133.000
  21923331.856     1297338.60649   1033684.62347  21923330.764    21923337.854
       233.000         193.000
  24277273.914   -11736569.45649  -8690240.28245  24277272.994    24277283.901
       208.000         145.000
  24019266.049    -6475213.95949  -4609067.27445  24019264.619    24019276.394
       210.000         147.000
 03  4 15 19 36  0.0000000  0 11G17G30G26G 5G 6G21G29G15G10G18G23
  21990162.987   -13816355.44049 -10740593.16347  21990163.017    21990169.337
       236.000         196.000
  21398652.712     1041764.26749    826443.16147  21398653.101    21398659.301
       240.000         201.000
  23412970.454    -5808663.49249  -4492679.14345  23412970.138    23412979.207
       213.000         157.000
  23463808.298    14855440.41349  11580552.08946  23463807.594    23463818.445
       218.000         164.000
  20600430.641   -15256360.50549 -11869275.74248  20600430.649    20600436.328
       243.000         213.000
  22194845.897   -17762363.73949 -13806912.24546  22194845.358    22194850.285
       234.000         187.000
  23428921.795    -6477113.51749  -5023087.52645  23428921.615    23428928.820
       218.000         161.000
  24616275.572    -5380056.31749  -4158588.18845  24616273.179    24616284.386
       215.000         132.000
  21938160.748     1375265.00649   1094406.45947  21938159.908    21938166.554
       232.000         192.000
  24256689.407   -11844739.13849  -8774528.02845  24256687.625    24256699.015
       208.000         145.000
  23999434.925    -6579425.80149  -4690270.96245  23999433.888    23999446.350
       209.000         147.000
 03  4 15 19 36 30.0000000  0 11G17G30G26G 5G 6G21G29G15G10G18G23
  21982034.739   -13859069.82349 -10773877.07947  21982034.054    21982041.256
       235.000         196.000
  21412828.749     1116259.58749    884491.39447  21412829.147    21412835.541
       240.000         201.000
  23396804.028    -5893617.69949  -4558877.04445  23396804.339    23396812.190
       217.000         157.000
  23483547.418    14959169.92349  11661380.07746  23483547.368    23483558.694
       216.000         163.000
  20593759.333   -15291418.47349 -11896593.65048  20593759.277    20593764.863
       244.000         214.000
  22184926.084   -17814492.25049 -13847531.83246  22184925.466    22184930.577
       233.000         187.000
  23418961.332    -6529456.27549  -5063874.02545  23418960.591    23418968.381
       216.000         158.000
  24601514.245    -5457627.79049  -4219033.30445  24601513.407    24601525.553
       215.000         133.000
  21953063.940     1453581.50149   1155432.26747  21953063.281    21953069.626
       233.000         191.000
  24236125.587   -11952800.71949  -8858731.52745  24236124.830    24236135.149
       207.000         145.000
  23979633.838    -6683480.06349  -4771351.86445  23979632.266    23979644.725
       207.000         148.000
 03  4 15 19 37  0.0000000  0 11G17G30G26G 5G 6G21G29G15G10G18G23
  21973941.063   -13901601.82549 -10807018.88847  21973940.438    21973947.666
       234.000         196.000
  21427079.117     1191145.68549    942844.13447  21427079.811    21427086.184
       240.000         201.000
  23380668.060    -5978412.44849  -4624950.69245  23380667.920    23380676.149
       216.000         157.000
  23503302.316    15062982.00149  11742272.39645  23503302.432    23503311.822
       217.000         162.000
  20587145.829   -15326172.82249 -11923674.97148  20587145.766    20587151.399
       244.000         214.000
  22175041.528   -17866435.82549 -13888007.31247  22175041.009    22175046.509
       235.000         188.000
  23409061.164    -6581481.26449  -5104412.94045  23409060.245    23409069.028
       216.000         157.000
  24586773.646    -5535089.79549  -4279393.14245  24586773.301    24586782.014
       214.000         134.000
  21968040.842     1532285.45649   1216759.98547  21968039.952    21968046.920
       234.000         191.000
  24215582.980   -12060751.72149  -8942848.86445  24215582.721    24215592.933
       206.000         144.000
  23959863.038    -6787374.33549  -4852308.08845  23959861.433    23959873.689
       207.000         148.000
 03  4 15 19 37 30.0000000  0 11G17G30G26G 5G 6G21G29G15G10G18G23
  21965882.237   -13943950.94949 -10840018.18747  21965881.866    21965888.688
       235.000         196.000
  21441403.430     1266420.34449   1001499.64647  21441403.955    21441410.488
       239.000         201.000
  23364562.928    -6063043.98949  -4690897.18245  23364562.410    23364571.513
       216.000         157.000
  23523072.441    15166874.11649  11823227.07945  23523072.456    23523082.917
       216.000         162.000
  20580590.503   -15360621.21749 -11950517.88148  20580590.354    20580596.300
       243.000         214.000
  22165192.136   -17918194.42049 -13928338.65746  22165191.207    22165196.585
       232.000         187.000
  23399222.050    -6633185.61149  -5144701.98245  23399222.405    23399229.336
       219.000         160.000
  24572053.911    -5612442.13149  -4339667.52245  24572052.952    24572062.349
       214.000         134.000
  21983091.011     1611374.23049   1278387.56747  21983090.643    21983097.158
       234.000         192.000
  24195062.011   -12168589.65149  -9026878.07545  24195061.567    24195071.474
       208.000         145.000
  23940123.206    -6891106.07549  -4933137.66645  23940122.168    23940134.648
       208.000         147.000
 03  4 15 19 38  0.0000000  0 11G17G30G26G 5G 6G21G29G15G10G18G23
  21957858.069   -13986118.30149 -10872875.84047  21957858.041    21957864.504
       235.000         196.000
  21455801.137     1342080.52549   1060455.56647  21455801.488    21455808.076
       239.000         200.000
  23348489.699    -6147508.99349  -4756713.90845  23348488.917    23348498.725
       216.000         158.000
  23542857.276    15270843.31749  11904241.81845  23542857.589    23542867.217
       216.000         160.000
  20574093.682   -15394762.17249 -11977121.22948  20574093.701    20574099.329
       244.000         214.000
  22155377.812   -17969768.49949 -13968526.22346  22155377.621    22155382.110
       234.000         187.000
  23389444.580    -6684566.76849  -5184739.18546  23389444.405    23389452.169
       219.000         163.000
  24557354.926    -5689685.05049  -4399856.65145  24557352.778    24557363.563
       209.000         134.000
  21998213.905     1690844.87349   1340312.71447  21998213.614    21998219.964
       234.000         193.000
  24174562.909   -12276312.55349  -9110817.67545  24174562.539    24174572.090
       209.000         145.000
  23920414.677    -6994673.22849  -5013839.01045  23920413.932    23920424.664
       209.000         148.000
 03  4 15 19 38 30.0000000  0 11G17G30G26G 5G 6G21G29G15G10G18G23
  21949868.420   -14028104.28549 -10905592.17047  21949867.913    21949874.704
       235.000         197.000
  21470271.730     1418123.76449   1119709.97347  21470272.500    21470278.356
       240.000         200.000
  23332448.655    -6231803.86449  -4822398.08145  23332449.062    23332457.925
       216.000         158.000
  23562656.441    15374887.18749  11985314.74345  23562657.232    23562666.920
       215.000         159.000
  20567655.803   -15428593.83649 -12003483.57048  20567655.778    20567661.088
       244.000         214.000
  22145598.783   -18021158.32949 -14008570.19846  22145598.331    22145602.945
       233.000         187.000
  23379728.998    -6735621.97949  -5224522.43245  23379728.701    23379736.330
       216.000         162.000
  24542676.693    -5766818.39249  -4459960.38545  24542675.479    24542688.082
       209.000         136.000
  22013408.868     1770694.81749   1402533.42347  22013408.205    22013414.882
       234.000         193.000
  24154085.874   -12383917.94049  -9194665.70545  24154085.455    24154096.485
       207.000         146.000
  23900738.128    -7098073.31449  -5094410.14645  23900736.964    23900748.204
       209.000         147.000
 03  4 15 19 39  0.0000000  0 11G17G30G26G 5G 6G21G29G15G10G18G23
  21941913.244   -14069908.89449 -10938167.17247  21941912.650    21941919.527
       235.000         197.000
  21484814.813     1494547.46849   1179260.84347  21484815.702    21484821.591
       240.000         200.000
  23316441.008    -6315924.73049  -4887946.64345  23316441.104    23316449.684
       220.000         160.000
  23582469.253    15479003.27749  12066443.93145  23582469.406    23582480.163
       213.000         157.000
  20561277.127   -15462113.96849 -12029603.15648  20561277.004    20561282.490
       244.000         214.000
  22135854.561   -18072363.86949 -14048470.59146  22135853.937    22135859.609
       233.000         187.000
  23370076.137    -6786348.25449  -5264049.32246  23370076.703    23370084.337
       217.000         164.000
  24528019.251    -5843841.71549  -4519978.39445  24528018.326    24528028.610
       211.000         137.000
  22028675.575     1850921.70149   1465047.84647  22028674.926    22028681.409
       233.000         192.000
  24133631.687   -12491403.35249  -9278420.24245  24133629.686    24133641.155
       207.000         145.000
  23881093.942    -7201303.65949  -5174849.02645  23881092.374    23881103.307
       209.000         148.000
 03  4 15 19 39 30.0000000  0 11G17G30G26G 5G 6G21G29G15G10G18G23
  21933992.480   -14111532.51849 -10970601.14847  21933992.073    21933998.637
       235.000         197.000
  21499429.759     1571349.08749   1239106.20047  21499430.494    21499436.612
       240.000         200.000
  23300467.135    -6399868.02449  -4953356.83945  23300466.693    23300475.730
       219.000         159.000
  23602295.199    15583189.00949  12147627.39645  23602295.491    23602306.098
       213.000         155.000
  20554958.035   -15495320.90649 -12055478.69948  20554957.919    20554963.698
       243.000         214.000
  22126145.439   -18123385.14149 -14088227.40147  22126145.668    22126150.057
       233.000         188.000
  23360486.437    -6836742.88049  -5303317.77246  23360485.802    23360493.468
       215.000         164.000
  24513382.947    -5920755.08149  -4579910.71945  24513382.069    24513391.387
       206.000         137.000
  22044013.315     1931522.34349   1527853.50747  22044012.338    22044019.252
       232.000         192.000
  24113200.774   -12598766.68949  -9362079.68445  24113200.329    24113210.740
       208.000         146.000
  23861482.297    -7304362.07749  -5255153.95645  23861480.940    23861491.892
       208.000         148.000
 03  4 15 19 40  0.0000000  0 11G17G30G26G 5G 6G21G29G15G10G18G23
  21926105.925   -14152976.68149 -11002895.27947  21926105.433    21926112.392
       235.000         197.000
  21514115.958     1648525.18149   1299243.34747  21514116.787    21514122.761
       239.000         199.000
  23284527.317    -6483630.77849  -5018626.36545  23284528.167    23284536.024
       218.000         159.000
  23622133.801    15687440.96049  12228862.46245  23622133.327    23622144.290
       213.000         154.000
  20548698.775   -15528213.42849 -12081109.24348  20548698.942    20548704.374
       244.000         214.000
  22116471.346   -18174223.29249 -14127841.50947  22116470.916    22116476.022
       233.000         188.000
  23350959.956    -6886803.89249  -5342326.27445  23350959.567    23350967.863
       215.000         162.000
  24498767.492    -5997558.93549  -4639757.72545  24498765.987    24498776.439
       205.000         137.000
  22059421.672     2012493.61649   1590947.97347  22059421.430    22059427.680
       232.000         191.000
  24092793.475   -12706006.31149  -9445642.71645  24092793.006    24092803.416
       211.000         147.000
  23841903.630    -7407246.80549  -5335323.55945  23841902.784    23841913.159
       209.000         149.000
 03  4 15 19 40 30.0000000  0 11G17G30G26G 5G 6G21G29G15G10G18G23
  21918253.648   -14194240.62249 -11035048.97747  21918253.089    21918260.064
       235.000         197.000
  21528873.029     1726073.79349   1359670.76847  21528873.561    21528880.000
       239.000         199.000
  23268622.907    -6567208.97649  -5083752.08845  23268622.768    23268632.473
       218.000         161.000
  23641984.633    15791757.04849  12310147.50245  23641984.475    23641995.224
       211.000         152.000
  20542499.839   -15560789.30249 -12106493.04448  20542499.983    20542505.489
       245.000         215.000
  22106831.945   -18224877.83949 -14167312.55347  22106831.089    22106837.386
       232.000         188.000
  23341497.715    -6936527.99349  -5381072.25846  23341497.847    23341504.099
       218.000         163.000
  24484172.980    -6074252.64549  -4699518.87045  24484170.741    24484182.116
       205.000         137.000
  22074900.107     2093833.04549   1654329.31047  22074899.385    22074905.659
       232.000         190.000
  24072410.383   -12813119.42849  -9529107.18945  24072408.918    24072420.382
       210.000         148.000
  23822358.586    -7509955.21849  -5415355.77845  23822357.245    23822368.297
       211.000         150.000
 03  4 15 19 41  0.0000000  0 11G17G30G26G 5G 6G21G29G15G10G18G23
  21910435.294   -14235326.29949 -11067063.76947  21910434.742    21910441.213
       236.000         197.000
  21543700.141     1803990.74449   1420385.20447  21543700.337    21543707.019
       238.000         199.000
  23252753.949    -6650600.43049  -5148732.31245  23252753.284    23252762.519
       217.000         161.000
  23661847.023    15896133.42049  12391479.49745  23661846.564    23661857.380
       212.000         151.000
  20536361.239   -15593047.97349 -12131629.67648  20536361.253    20536366.650
       245.000         215.000
  22097227.296   -18275350.21849 -14206641.66547  22097227.178    22097232.223
       234.000         188.000
  23332099.967    -6985913.87349  -5419554.72846  23332100.583    23332107.215
       221.000         164.000
  24469599.283    -6150837.42149  -4759195.15745  24469597.200    24469607.360
       206.000         137.000
  22090447.894     2175536.88149   1717994.59947  22090447.461    22090453.683
       232.000         190.000
  24052051.559   -12920104.94149  -9612472.23445  24052050.372    24052060.372
       211.000         148.000
  23802847.415    -7612486.08549  -5495249.66445  23802846.422    23802857.880
       211.000         151.000
 03  4 15 19 41 30.0000000  0 11G17G30G26G 5G 6G21G29G15G10G18G23
  21902650.964   -14276233.19049 -11098939.24547  21902650.331    21902657.124
       236.000         198.000
  21558596.922     1882274.14349   1481385.18947  21558597.593    21558603.945
       238.000         198.000
  23236921.341    -6733800.49949  -5213563.38645  23236921.964    23236929.738
       216.000         160.000
  23681720.465    16000568.21149  12472857.02245  23681720.466    23681731.106
       213.000         152.000
  20530283.481   -15624986.79449 -12156517.07248  20530283.351    20530288.866
       244.000         214.000
  22087657.525   -18325640.07249 -14245828.53047  22087656.753    22087661.720
       232.000         188.000
  23322767.139    -7034958.11449  -5457770.97146  23322767.414    23322774.926
       218.000         166.000
  24455046.412    -6227312.51549  -4818785.97545  24455045.904    24455055.993
       206.000         139.000
  22106064.577     2257602.73449   1781941.98847  22106063.561    22106069.872
       232.000         189.000
  24031717.425   -13026959.83949  -9695735.52245  24031716.259    24031726.089
       212.000         148.000
  23783370.571    -7714836.29749  -5575002.78645  23783370.076    23783380.711
       212.000         151.000
 03  4 15 19 42  0.0000000  0 11G17G30G26G 5G 6G21G29G15G10G18G23
  21894900.588   -14316961.73249 -11130675.74547  21894900.036    21894907.205
       236.000         198.000
  21573563.118     1960921.78949   1542668.99647  21573564.222    21573569.869
       239.000         198.000
  23221125.933    -6816805.34349  -5278242.33445  23221124.460    23221134.206
       213.000         158.000
  23701604.657    16105059.20549  12554278.35045  23701604.860    23701615.724
       212.000         153.000
  20524266.991   -15656603.46849 -12181153.44648  20524266.966    20524272.559
       244.000         214.000
  22078122.421   -18375746.90149 -14284872.78647  22078122.214    22078127.415
       234.000         188.000
  23313499.881    -7083657.55649  -5495718.48146  23313499.900    23313507.524
       216.000         167.000
  24440514.514    -6303677.49949  -4878291.00445  24440513.674    24440523.524
       204.000         140.000
  22121749.688     2340028.50649   1846169.82747  22121749.122    22121755.709
       232.000         189.000
  24011408.601   -13133681.63449  -9778895.09345  24011407.778    24011417.725
       211.000         149.000
  23763928.557    -7817003.14549  -5654613.04445  23763926.706    23763938.606
       212.000         151.000
 03  4 15 19 42 30.0000000  0 11G17G30G26G 5G 6G21G29G15G10G18G23
  21887184.002   -14357512.18249 -11162273.48347  21887183.108    21887190.280
       236.000         197.000
  21588598.146     2039930.56949   1604234.21047  21588598.634    21588604.795
       239.000         198.000
  23205368.101    -6899611.53849  -5342766.52045  23205368.238    23205377.174
       214.000         158.000
  23721498.927    16209603.33549  12635741.05745  23721499.658    23721510.326
       214.000         154.000
  20518312.158   -15687896.39949 -12205537.54948  20518312.188    20518317.658
       245.000         214.000
  22068622.194   -18425671.43549 -14323774.98947  22068621.761    22068626.923
       235.000         189.000
  23304298.622    -7132009.74649  -5533395.42946  23304297.980    23304306.777
       216.000         164.000
  24426003.565    -6379932.45949  -4937710.27145  24426002.280    24426013.679
       202.000         141.000
  22137502.603     2422811.04649   1910675.67147  22137501.836    22137508.157
       231.000         188.000
  23991125.860   -13240268.13449  -9861949.25445  23991125.469    23991134.315
       213.000         150.000
  23744521.728    -7918984.58549  -5734078.85045  23744520.361    23744532.405
       212.000         151.000
 03  4 15 19 43  0.0000000  0 11G17G30G26G 5G 6G21G29G15G10G18G23
  21879500.993   -14397886.37049 -11193733.87647  21879500.837    21879506.892
       236.000         197.000
  21603701.003     2119296.41749   1666077.66247  21603701.369    21603707.550
       238.000         197.000
  23189648.840    -6982216.97249  -5407134.25245  23189649.040    23189657.449
       214.000         159.000
  23741402.541    16314196.83249  12717242.25345  23741402.939    23741414.421
       214.000         154.000
  20512419.028   -15718865.21349 -12229669.09448  20512419.288    20512424.551
       245.000         215.000
  22059156.209   -18475415.13349 -14362536.28447  22059156.024    22059160.508
       234.000         189.000
  23295163.670    -7180013.57749  -5570800.96646  23295164.054    23295170.460
       220.000         165.000
  24411513.185    -6456078.86349  -4997044.95645  24411511.812    24411522.953
       204.000         142.000
  22153322.707     2505946.25849   1975456.32547  22153321.824    22153328.948
       231.000         188.000
  23970869.048   -13346718.69249  -9944897.47945  23970868.793    23970877.976
       214.000         150.000
  23725150.477    -8020779.68749  -5813399.44945  23725149.631    23725160.809
       212.000         151.000
 03  4 15 19 43 30.0000000  0 11G17G30G26G 5G 6G21G29G15G10G18G23
  21871851.826   -14438083.44249 -11225056.24247  21871851.392    21871858.093
       238.000         197.000
  21618871.684     2199018.36649   1728198.58647  21618872.576    21618878.512
       240.000         197.000
  23173968.564    -7064616.37749  -5471341.46845  23173966.807    23173976.139
       211.000         156.000
  23761315.466    16418838.87549  12798781.24945  23761316.413    23761326.433
       214.000         155.000
  20506588.206   -15749506.36549 -12253545.32248  20506588.294    20506593.787
       244.000         215.000
  22049724.924   -18524976.71749 -14401155.66147  22049724.913    22049729.845
       234.000         189.000
  23286096.010    -7227664.74449  -5607931.69746  23286096.591    23286103.036
       220.000         167.000
  24397043.718    -6532114.83149  -5056293.61745  24397043.408    24397053.374
       206.000         143.000
  22169209.778     2589433.38149   2040511.19447  22169209.356    22169216.081
       230.000         188.000
  23950638.763   -13453029.21349 -10027736.58945  23950637.898    23950647.767
       214.000         150.000
  23705815.564    -8122384.56449  -5892571.82645  23705814.846    23705825.331
       214.000         151.000
 03  4 15 19 44  0.0000000  0 11G17G30G26G 5G 6G21G29G15G10G18G23
  21864236.140   -14478104.02749 -11256241.09647  21864235.615    21864242.373
       236.000         198.000
  21634109.592     2279092.99949   1790594.32247  21634110.427    21634116.453
       238.000         197.000
  23158328.103    -7146806.76449  -5535385.79145  23158328.853    23158336.796
       214.000         156.000
  23781237.187    16523526.20149  12880355.54445  23781238.461    23781248.970
       215.000         154.000
  20500819.977   -15779818.77249 -12277165.38848  20500820.048    20500825.259
       244.000         215.000
  22040328.243   -18574356.91849 -14439633.70247  22040327.918    22040333.226
       235.000         190.000
  23277095.806    -7274961.22549  -5644786.04346  23277095.202    23277103.302
       220.000         168.000
  24382595.431    -6608040.89749  -5115456.63245  24382594.611    24382605.029
       209.000         143.000
  22185163.219     2673268.83149   2105837.48247  22185162.781    22185169.288
       230.000         188.000
  23930435.500   -13559197.76849 -10110465.07645  23930434.765    23930444.091
       214.000         150.000
  23686517.283    -8223797.27549  -5971594.46445  23686516.906    23686526.289
       215.000         152.000
 03  4 15 19 44 30.0000000  0 11G17G30G26G 5G 6G21G29G15G10G18G23
  21856653.904   -14517948.64649 -11287288.83847  21856653.504    21856660.249
       236.000         198.000
  21649413.780     2359516.85849   1853262.18247  21649414.412    21649420.542
       238.000         197.000
  23142728.362    -7228785.16149  -5599264.90645  23142727.833    23142736.255
       213.000         156.000
  23801166.927    16628255.64849  12961962.64345  23801167.645    23801177.568
       215.000         155.000
  20495114.549   -15809800.97749 -12300528.15348  20495114.607    20495119.895
       244.000         215.000
  22030965.874   -18623556.48949 -14477970.99847  22030965.250    22030970.949
       234.000         190.000
  23268163.445    -7321900.86149  -5681362.33446  23268163.905    23268170.674
       222.000         167.000
  24368167.926    -6683857.51349  -5174534.36545  24368166.379    24368177.668
       206.000         144.000
  22201182.250     2757449.04649   2171432.42146  22201181.652    22201188.403
       230.000         187.000
  23910259.344   -13665223.01249 -10193081.90845  23910258.283    23910269.010
       214.000         150.000
  23667256.008    -8325016.26849  -6050466.15445  23667254.730    23667265.469
       216.000         152.000
 03  4 15 19 45  0.0000000  0 11G17G30G26G 5G 6G21G29G15G10G18G23
  21849105.026   -14557618.29549 -11318200.23647  21849104.640    21849111.351
       236.000         198.000
  21664783.871     2440287.16449   1916200.00047  21664784.112    21664790.670
       238.000         196.000
  23127169.151    -7310547.97149  -5662976.08345  23127168.514    23127176.533
       209.000         155.000
  23821104.064    16733024.71649  13043600.61145  23821104.053    23821114.589
       214.000         155.000
  20489472.278   -15839451.28349 -12323632.29148  20489472.274    20489477.727
       244.000         214.000
  22021637.785   -18672575.78749 -14516167.81847  22021637.747    22021641.900
       235.000         190.000
  23259299.513    -7368481.27949  -5717658.69546  23259299.762    23259305.678
       220.000         164.000
  24353761.030    -6759564.53249  -5233526.70845  24353759.073    24353770.411
       202.000         145.000
  22217266.278     2841971.21449   2237293.80746  22217265.547    22217272.220
       228.000         186.000
  23890110.872   -13771102.72549 -10275585.34745  23890110.011    23890119.780
       214.000         150.000
  23648031.912    -8426039.37749  -6129185.21545  23648030.749    23648040.916
       215.000         153.000
 03  4 15 19 45 30.0000000  0 11G17G30G26G 5G 6G21G29G15G10G18G23
  21841589.634   -14597111.98549 -11348974.52047  21841589.292    21841595.734
       237.000         199.000
  21680219.644     2521402.27349   1979406.50647  21680220.246    21680226.149
       238.000         196.000
  23111652.019    -7392090.54249  -5726515.63545  23111652.306    23111660.894
       213.000         156.000
  23841048.312    16837831.76649  13125268.17645  23841048.945    23841058.019
       213.000         154.000
  20483893.718   -15868766.87049 -12346475.60748  20483893.526    20483898.960
       244.000         214.000
  22012344.269   -18721413.95749 -14554223.49347  22012343.342    22012348.527
       234.000         190.000
  23250504.455    -7414698.72549  -5753672.26346  23250504.091    23250511.878
       219.000         163.000
  24339375.031    -6835161.03649  -5292432.93045  24339373.562    24339384.565
       205.000         144.000
  22233415.069     2926833.77449   2303420.43846  22233414.138    22233421.437
       228.000         185.000
  23869990.611   -13876833.53649 -10357972.76545  23869989.620    23869998.897
       214.000         151.000
  23628845.373    -8526863.20549  -6207748.98745  23628844.092    23628854.736
       214.000         152.000
 03  4 15 19 46  0.0000000  0 11G17G30G26G 5G 6G21G29G15G10G18G23
  21834107.594   -14636430.55249 -11379612.34547  21834106.922    21834113.896
       237.000         198.000
  21695720.381     2602859.01049   2042879.22147  21695720.565    21695727.704
       237.000         195.000
  23096177.373    -7473409.66749  -5789881.08445  23096176.450    23096185.217
       211.000         155.000
  23860999.237    16942673.65349  13206962.87645  23860999.144    23861009.978
       212.000         153.000
  20478379.058   -15897746.41149 -12369057.07348  20478378.963    20478384.398
       245.000         214.000
  22003084.860   -18770071.73649 -14592138.62147  22003084.641    22003089.629
       234.000         190.000
  23241779.005    -7460551.17649  -5789401.41546  23241779.291    23241786.780
       223.000         169.000
  24325010.220    -6910647.30449  -5351253.23845  24325009.936    24325020.135
       204.000         145.000
  22249628.063     3012033.57249   2369809.85646  22249627.363    22249634.344
       228.000         184.000
  23849899.261   -13982413.72049 -10440242.80745  23849898.729    23849908.012
       215.000         151.000
  23609697.180    -8627485.92649  -6286156.07145  23609695.958    23609706.709
       214.000         151.000
 03  4 15 19 46 30.0000000  0 11G17G30G26G 5G 6G21G29G15G10G18G23
  21826658.452   -14675575.68449 -11410115.03747  21826657.829    21826664.733
       236.000         198.000
  21711285.243     2684653.60649   2106615.19347  21711285.280    21711292.165
       237.000         194.000
  23080745.595    -7554502.78849  -5853070.41745  23080745.952    23080753.616
       215.000         154.000
  23880956.097    17047546.84849  13288681.97445  23880955.578    23880966.459
       212.000         152.000
  20472928.562   -15926388.99449 -12391375.98048  20472928.556    20472933.968
       246.000         215.000
  21993859.730   -18818550.14549 -14629913.97447  21993859.338    21993864.435
       235.000         190.000
  23233123.504    -7506036.92349  -5824844.83446  23233123.863    23233130.479
       221.000         171.000
  24310666.190    -6986024.17549  -5409988.31945  24310664.657    24310675.842
       208.000         145.000
  22265904.549     3097566.83249   2436459.10146  22265904.265    22265910.687
       227.000         184.000
  23829836.982   -14087841.84349 -10522394.36845  23829836.438    23829844.484
       216.000         151.000
  23590587.596    -8727906.16749  -6364405.37945  23590586.287    23590598.101
       215.000         151.000
 03  4 15 19 47  0.0000000  0 11G17G30G26G 5G 6G21G29G15G10G18G23
  21819242.259   -14714547.64049 -11440482.77347  21819241.683    21819248.661
       237.000         198.000
  21726914.012     2766783.34549   2170612.31147  21726914.720    21726920.962
       238.000         194.000
  23065357.945    -7635366.33149  -5916080.85345  23065357.665    23065365.342
       215.000         156.000
  23900918.310    17152448.82849  13370423.50545  23900918.279    23900929.100
       213.000         152.000
  20467542.587   -15954692.86349 -12413430.95448  20467542.815    20467548.019
       246.000         215.000
  21984668.604   -18866849.50049 -14667549.80347  21984667.851    21984672.838
       235.000         190.000
  23224537.979    -7551153.40349  -5860000.50046  23224537.118    23224544.188
       217.000         165.000
  24296343.212    -7061291.66649  -5468638.16345  24296343.272    24296352.979
       209.000         145.000
  22282243.973     3183430.51349   2503365.83846  22282243.674    22282250.191
       228.000         183.000
  23809803.950   -14193116.00349 -10604425.94845  23809803.016    23809811.611
       215.000         150.000
  23571516.999    -8828121.76049  -6442495.21345  23571516.639    23571527.364
       215.000         152.000
 03  4 15 19 47 30.0000000  0 11G17G30G26G 5G 6G21G29G15G10G18G23
  21811859.008   -14753346.85149 -11470715.90547  21811858.425    21811865.583
       237.000         199.000
  21742606.211     2849245.64649   2234868.56347  21742606.757    21742613.337
       237.000         194.000
  23050014.350    -7715996.31249  -5978909.33045  23050014.257    23050023.927
       214.000         157.000
  23920885.653    17257377.41649  13452185.77145  23920885.745    23920896.756
       213.000         152.000
  20462221.434   -15982655.86749 -12435220.31948  20462221.499    20462226.890
       246.000         215.000
  21975511.496   -18914969.56849 -14705045.94147  21975511.080    21975516.158
       236.000         191.000
  23216023.189    -7595897.81949  -5894866.21645  23216021.902    23216029.490
       214.000         159.000
  24282041.254    -7136449.72249  -5527202.72945  24282040.563    24282050.605
       210.000         145.000
  22298645.772     3269622.37049   2570528.28146  22298645.499    22298651.429
       228.000         183.000
  23789800.539   -14298233.53649 -10686335.47845  23789798.465    23789808.122
       214.000         149.000
  23552486.052    -8928129.96849  -6520423.45745  23552484.974    23552496.322
       215.000         153.000
 03  4 15 19 48  0.0000000  0 11G17G30G26G 5G 6G21G29G15G10G18G23
  21804508.612   -14791973.02749 -11500814.20547  21804508.383    21804515.257
       237.000         199.000
  21758361.114     2932038.01549   2299382.01847  21758361.360    21758368.309
       237.000         194.000
  23034716.159    -7796388.83349  -6041552.77245  23034716.478    23034724.792
       217.000         159.000
  23940857.765    17362330.24049  13533966.89745  23940857.949    23940869.343
       213.000         152.000
  20456965.547   -16010275.84649 -12456742.39048  20456965.507    20456970.988
       246.000         215.000
  21966388.715   -18962910.47549 -14742402.45747  21966388.516    21966393.323
       236.000         192.000
  23207579.787    -7640267.36749  -5929439.82145  23207579.237    23207586.732
       216.000         159.000
  24267760.123    -7211497.83949  -5585681.64345  24267759.740    24267769.554
       208.000         144.000
  22315109.547     3356139.93549   2637944.53046  22315108.482    22315115.723
       227.000         182.000
  23769827.266   -14403191.68249 -10768120.82445  23769825.512    23769835.783
       214.000         149.000
  23533495.007    -9027928.41749  -6598188.25045  23533494.171    23533504.884
       216.000         153.000
 03  4 15 19 48 30.0000000  0 11G17G30G26G 5G 6G21G29G15G10G18G23
  21797191.008   -14830427.14949 -11530778.44347  21797190.509    21797197.360
       237.000         199.000
  21774178.170     3015156.85349   2364149.86147  21774179.069    21774185.579
       237.000         194.000
  23019463.697    -7876541.07249  -6104008.96145  23019463.247    23019471.800
       216.000         158.000
  23960833.944    17467304.21649  13615764.50545  23960834.110    23960845.900
       212.000         153.000
  20451775.119   -16037551.73949 -12477996.34148  20451775.231    20451780.576
       246.000         215.000
  21957299.850   -19010672.98149 -14779619.96647  21957298.988    21957304.194
       236.000         192.000
  23199208.135    -7684260.35749  -5963720.03946  23199208.612    23199216.154
       220.000         166.000
  24253499.535    -7286436.81749  -5644075.51545  24253499.572    24253508.380
       209.000         144.000
  22331634.683     3442979.72849   2705611.86146  22331633.402    22331640.342
       226.000         181.000
  23749884.612   -14507988.95549 -10849780.82745  23749882.928    23749893.311
       214.000         150.000
  23514544.185    -9127515.35649  -6675788.24145  23514542.761    23514553.430
       217.000         154.000
 03  4 15 19 49  0.0000000  0 11G17G30G26G 5G 6G21G29G15G10G18G23
  21789906.179   -14868709.25049 -11560608.62947  21789905.462    21789912.474
       237.000         199.000
  21790057.006     3098599.83049   2429170.28147  21790057.997    21790063.777
       237.000         194.000
  23004257.429    -7956449.06749  -6166274.85345  23004257.504    23004265.387
       217.000         157.000
  23980813.655    17572296.95749  13697576.74345  23980814.078    23980824.835
       213.000         154.000
  20446650.563   -16064481.47949 -12498980.55748  20446650.608    20446656.067
       246.000         215.000
  21948244.777   -19058257.10249 -14816698.47247  21948244.447    21948249.193
       236.000         192.000
  23190908.916    -7727873.73149  -5997704.47146  23190909.547    23190916.442
       221.000         171.000
  24239260.122    -7361266.05449  -5702383.85445  24239259.910    24239269.158
       209.000         144.000
  22348220.681     3530139.27749   2773528.35646  22348220.169    22348226.475
       225.000         180.000
  23729973.110   -14612623.01849 -10931313.65545  23729972.332    23729983.063
       215.000         152.000
  23495633.964    -9226888.38949  -6753221.53645  23495632.872    23495642.665
       215.000         155.000
 03  4 15 19 49 30.0000000  0 11G17G30G26G 5G 6G21G29G15G10G18G23
  21782653.867   -14906820.09949 -11590305.38447  21782653.273    21782660.149
       237.000         199.000
  21805996.870     3182363.93649   2494440.91647  21805997.212    21806003.920
       236.000         193.000
  22989098.571    -8036109.49149  -6228347.81145  22989098.169    22989106.210
       219.000         158.000
  24000796.424    17677305.73749  13779401.46245  24000796.864    24000808.143
       214.000         155.000
  20441592.214   -16091063.39849 -12519693.74948  20441592.330    20441597.651
       247.000         215.000
  21939223.783   -19105663.23449 -14853638.29447  21939223.931    21939228.188
       237.000         192.000
  23182682.300    -7771105.25849  -6031391.35346  23182682.193    23182689.835
       216.000         169.000
  24225041.469    -7435985.48849  -5760606.64645  24225040.813    24225051.164
       209.000         145.000
  22364866.841     3617615.48649   2841691.59146  22364866.175    22364872.915
       224.000         178.000
  23710093.394   -14717091.51649 -11012717.46345  23710092.165    23710101.799
       217.000         153.000
  23476764.736    -9326045.38549  -6830486.49945  23476763.815    23476773.340
       218.000         155.000
 03  4 15 19 50  0.0000000  0 11G17G30G26G 5G 6G21G29G15G10G18G23
  21775433.992   -14944760.50349 -11619869.31647  21775433.911    21775440.582
       237.000         199.000
  21821997.101     3266446.01049   2559959.34247  21821997.406    21822004.197
       236.000         192.000
  22973987.401    -8115518.90249  -6290225.18545  22973986.920    22973994.940
       218.000         159.000
  24020781.761    17782327.75449  13861236.48745  24020782.169    24020793.714
       214.000         156.000
  20436600.286   -16117296.12049 -12540134.84148  20436600.306    20436605.636
       246.000         215.000
  21930236.464   -19152891.78449 -14890439.74447  21930236.123    21930241.182
       236.000         193.000
  23174528.533    -7813952.79549  -6064778.99546  23174528.138    23174535.707
       218.000         167.000
  24210843.531    -7510595.74749  -5818744.36145  24210843.092    24210852.863
       209.000         146.000
  22381572.658     3705405.37549   2910099.24746  22381572.110    22381578.836
       223.000         177.000
  23690245.650   -14821392.62249 -11093990.83945  23690244.255    23690254.458
       217.000         154.000
  23457937.180    -9424984.39549  -6907581.60945  23457936.219    23457946.530
       218.000         156.000
 03  4 15 19 50 30.0000000  0 11G17G30G26G 5G 6G21G29G15G10G18G23
  21768246.636   -14982530.44049 -11649300.40947  21768246.267    21768253.124
       237.000         199.000
  21838057.319     3350843.19349   2625723.30447  21838058.097    21838065.015
       236.000         192.000
  22958924.684    -8194673.66549  -6351904.14245  22958923.698    22958933.118
       218.000         160.000
  24040769.152    17887360.48949  13943079.88145  24040769.422    24040780.593
       213.000         156.000
  20431675.177   -16143177.85049 -12560302.42848  20431675.166    20431680.595
       246.000         215.000
  21921282.887   -19199943.06649 -14927103.06047  21921282.462    21921287.469
       237.000         193.000
  23166448.564    -7856414.00349  -6097865.59046  23166448.911    23166455.281
       222.000         167.000
  24196666.453    -7585096.87049  -5876797.03545  24196665.097    24196674.517
       209.000         146.000
  22398337.709     3793506.27349   2978749.26446  22398336.894    22398343.470
       223.000         176.000
  23670429.879   -14925524.23549 -11175132.14545  23670428.963    23670438.184
       215.000         154.000
  23439151.622    -9523703.20449  -6984505.13845  23439149.664    23439162.009
       219.000         157.000
 03  4 15 19 51  0.0000000  0 11G17G30G26G 5G 6G21G29G15G10G18G23
  21761091.647   -15020130.28349 -11678598.97147  21761091.180    21761097.896
       237.000         200.000
  21854177.118     3435552.84349   2691730.73647  21854178.147    21854185.129
       236.000         193.000
  22943911.091    -8273570.13249  -6413381.82745  22943911.471    22943919.225
       218.000         160.000
  24060757.875    17992401.45249  14024929.66345  24060758.024    24060769.439
       211.000         156.000
  20426817.222   -16168706.57249 -12580194.94248  20426817.089    20426822.473
       246.000         215.000
  21912363.103   -19246817.01649 -14963628.19147  21912362.317    21912367.702
       237.000         193.000
  23158442.585    -7898485.97049  -6130648.91646  23158442.054    23158449.589
       219.000         168.000
  24182510.168    -7659488.37949  -5934764.29045  24182508.837    24182519.029
       209.000         146.000
  22415161.349     3881915.38649   3047639.44346  22415160.197    22415167.845
       222.000         175.000
  23650646.786   -15029483.91949 -11256139.47645  23650645.209    23650654.551
       216.000         155.000
  23420408.179    -9622199.28749  -7061255.11945  23420406.190    23420417.131
       217.000         158.000
 03  4 15 19 51 30.0000000  0 11G17G30G26G 5G 6G21G29G15G10G18G23
  21753968.956   -15057560.71049 -11707765.52047  21753968.351    21753975.047
       237.000         200.000
  21870355.858     3520572.24149   2757979.52947  21870356.537    21870363.030
       236.000         193.000
  22928947.361    -8352204.59249  -6474655.34345  22928948.140    22928954.593
       220.000         160.000
  24080747.784    18097448.43849  14106784.13245  24080748.755    24080759.949
       209.000         155.000
  20422026.781   -16193880.33049 -12599810.86248  20422026.645    20422032.174
       245.000         215.000
  21903476.917   -19293513.70349 -15000015.20247  21903476.649    21903481.251
       236.000         193.000
  23150510.953    -7940166.33449  -6163127.11446  23150510.655    23150518.954
       218.000         166.000
  24168374.701    -7733770.22849  -5992646.11145  24168374.343    24168383.994
       211.000         147.000
  22432043.060     3970630.14349   3116767.78246  22432042.560    22432049.707
       222.000         174.000
  23630896.853   -15133269.56549 -11337011.19545  23630896.321    23630904.035
       217.000         155.000
  23401707.405    -9720470.46249  -7137829.83245  23401706.486    23401716.732
       218.000         159.000
 03  4 15 19 52  0.0000000  0 11G17G30G26G 5G 6G21G29G15G10G18G23
  21746878.233   -15094822.44449 -11736800.62147  21746877.720    21746884.547
       237.000         200.000
  21886592.924     3605898.37949   2824467.34147  21886593.956    21886600.274
       236.000         192.000
  22914034.325    -8430573.62949  -6535722.03046  22914034.604    22914042.482
       220.000         163.000
  24100738.274    18202498.79249  14188641.24445  24100738.076    24100751.265
       209.000         154.000
  20417304.187   -16218697.53149 -12619148.94148  20417304.075    20417309.675
       245.000         215.000
  21894624.466   -19340033.59249 -15036264.43947  21894624.197    21894628.849
       237.000         193.000
  23142654.295    -7981452.84049  -6195298.35546  23142654.684    23142661.481
       219.000         167.000
  24154260.280    -7807942.58249  -6050442.61545  24154260.683    24154268.836
       213.000         149.000
  22448982.519     4059647.60449   3186131.99646  22448981.613    22448988.510
       222.000         173.000
  23611180.500   -15236878.96849 -11417745.58645  23611179.571    23611188.434
       219.000         155.000
  23383049.994    -9818514.68449  -7214227.70545  23383048.842    23383059.308
       219.000         160.000
 03  4 15 19 52 30.0000000  0 11G17G30G26G 5G 6G21G29G15G10G18G23
  21739819.486   -15131916.46749 -11765705.04047  21739819.226    21739826.055
       237.000         200.000
  21902887.687     3691527.12149   2891190.93647  21902888.396    21902894.884
       237.000         192.000
  22899172.161    -8508674.82549  -6596580.03846  22899171.553    22899180.713
       218.000         163.000
  24120728.702    18307548.71349  14270497.99145  24120728.837    24120740.967
       208.000         152.000
  20412649.606   -16243157.61349 -12638208.74548  20412649.647    20412655.115
       246.000         215.000
  21885805.379   -19386378.30449 -15072377.17847  21885804.873    21885809.610
       237.000         193.000
  23134873.005    -8022344.26049  -6227161.74146  23134872.851    23134880.105
       221.000         167.000
  24140166.562    -7882006.68749  -6108154.75145  24140166.451    24140174.356
       213.000         150.000
  22465978.873     4148963.71349   3255728.92546  22465978.017    22465984.780
       223.000         173.000
  23591497.812   -15340311.14049 -11498341.86445  23591496.637    23591505.470
       217.000         156.000
  23364436.002    -9916331.05649  -7290448.04445  23364435.628    23364445.337
       219.000         161.000
 03  4 15 19 53  0.0000000  0 11G17G30G26G 5G 6G21G29G15G10G18G23
  21732792.749   -15168842.49149 -11794478.54947  21732792.001    21732798.696
       237.000         200.000
  21919239.614     3777456.20949   2958148.57047  21919240.216    21919247.087
       235.000         191.000
  22884361.611    -8586504.05249  -6657226.10245  22884362.016    22884369.438
       217.000         161.000
  24140718.836    18412596.33349  14352352.94445  24140719.118    24140731.805
       206.000         150.000
  20408063.448   -16267258.25349 -12656988.46648  20408063.542    20408069.048
       247.000         216.000
  21877019.712   -19432547.08149 -15108352.82647  21877019.664    21877024.222
       238.000         194.000
  23127167.388    -8062837.68149  -6258714.99346  23127167.405    23127173.893
       220.000         166.000
  24126093.391    -7955961.76649  -6165781.94645  24126091.824    24126100.411
       214.000         151.000
  22483031.744     4238576.49849   3325557.03346  22483031.351    22483038.032
       224.000         173.000
  23571849.290   -15443563.18249 -11578797.79245  23571848.449    23571857.702
       218.000         158.000
  23345865.897   -10013916.49449  -7366488.42745  23345865.074    23345874.835
       217.000         161.000
 03  4 15 19 53 30.0000000  0 11G17G30G26G 5G 6G21G29G15G10G18G23
  21725797.958   -15205600.23449 -11823120.93647  21725797.753    21725803.630
       237.000         200.000
  21935648.135     3863683.68349   3025338.71647  21935648.427    21935655.450
       235.000         191.000
  22869603.829    -8664056.94249  -6717656.82345  22869603.203    22869610.620
       218.000         161.000
  24160708.195    18517639.86149  14434204.69845  24160706.851    24160719.031
       205.000         148.000
  20403546.132   -16290996.91149 -12675486.13048  20403546.149    20403551.748
       247.000         216.000
  21868267.696   -19478539.79249 -15144191.27947  21868266.894    21868271.931
       238.000         194.000
  23119538.022    -8102929.93949  -6289955.62046  23119536.548    23119545.296
       216.000         164.000
  24112040.766    -8029807.30349  -6223323.78645  24112038.903    24112049.206
       213.000         152.000
  22500140.640     4328483.90349   3395614.71546  22500140.867    22500146.866
       223.000         173.000
  23552235.798   -15546632.25649 -11659111.12945  23552235.786    23552244.405
       220.000         160.000
  23327340.272   -10111268.19849  -7442346.68245  23327339.999    23327349.220
       217.000         161.000
 03  4 15 19 54  0.0000000  0 11G17G30G26G 5G 6G21G29G15G10G18G23
  21718835.036   -15242190.92249 -11851633.14347  21718834.624    21718841.090
       237.000         200.000
  21952112.653     3950205.63649   3092758.33547  21952113.178    21952120.425
       235.000         190.000
  22854898.936    -8741330.81449  -6777870.16645  22854899.133    22854907.053
       215.000         160.000
  24180696.250    18622675.84249  14516050.57445  24180696.352    24180707.809
       207.000         148.000
  20399097.869   -16314372.92849 -12693701.20648  20399097.918    20399103.572
       246.000         216.000
  21859548.789   -19524357.34449 -15179893.24447  21859548.509    21859553.178
       236.000         194.000
  23111985.053    -8142619.39649  -6320882.40046  23111984.776    23111992.209
       218.000         164.000
  24098008.889    -8103544.14249  -6280780.92045  24098007.297    24098016.093
       212.000         153.000
  22517304.828     4418682.03949   3465898.92946  22517303.895    22517311.701
       223.000         173.000
  23532657.450   -15649517.11649 -11739280.93745  23532656.941    23532665.191
       220.000         160.000
  23308859.407   -10208384.87749  -7518021.79045  23308857.674    23308869.034
       217.000         161.000
 03  4 15 19 54 30.0000000  0 11G17G30G26G 5G 6G21G29G15G10G18G23
  21711903.752   -15278615.07749 -11880015.59147  21711903.302    21711909.773
       238.000         201.000
  21968632.952     4037019.52349   3160405.42747  21968633.931    21968640.588
       236.000         190.000
  22840247.942    -8818321.83949  -6837863.08945  22840247.825    22840255.626
       215.000         159.000
  24200682.470    18727702.15049  14597888.91345  24200683.246    24200693.878
       206.000         147.000
  20394718.940   -16337384.19949 -12711632.07148  20394718.850    20394724.581
       246.000         216.000
  21850863.347   -19569999.63349 -15215458.64247  21850863.102    21850868.300
       238.000         195.000
  23104509.492    -8181903.58449  -6351493.40246  23104509.721    23104516.389
       220.000         167.000
  24083997.756    -8177171.70249  -6338152.92745  24083996.286    24084005.919
       215.000         154.000
  22534523.909     4509168.54549   3536407.85246  22534522.834    22534530.653
       223.000         173.000
  23513114.497   -15752215.11649 -11819305.13545  23513113.770    23513121.959
       219.000         160.000
  23290423.768   -10305264.09349  -7593511.87345  23290423.136    23290433.258
       218.000         161.000
 03  4 15 19 55  0.0000000  0 11G17G30G26G 5G 6G21G29G15G10G18G23
  21705004.118   -15314872.65749 -11908268.23647  21705003.639    21705010.592
       237.000         201.000
  21985208.429     4124123.08549   3228278.24047  21985209.366    21985215.939
       235.000         190.000
  22825651.536    -8895025.77949  -6897632.30945  22825651.111    22825659.403
       213.000         158.000
  24220666.470    18832716.89649  14679718.22945  24220666.721    24220679.385
       207.000         147.000
  20390409.884   -16360028.35849 -12729276.87948  20390409.903    20390415.355
       245.000         216.000
  21842211.380   -19615466.33649 -15250887.22547  21842210.702    21842216.095
       237.000         195.000
  23097111.698    -8220779.75349  -6381786.43946  23097111.802    23097117.685
       219.000         165.000
  24070007.631    -8250689.58249  -6395439.46945  24070006.441    24070015.775
       214.000         154.000
  22551797.422     4599941.19649   3607139.74246  22551797.176    22551804.004
       225.000         173.000
  23493607.401   -15854723.70849 -11899181.77345  23493605.405    23493614.426
       219.000         160.000
  23272033.724   -10401903.08349  -7668814.77545  23272031.708    23272043.780
       217.000         162.000
 03  4 15 19 55 30.0000000  0 11G17G30G26G 5G 6G21G29G15G10G18G23
  21698135.747   -15350965.88349 -11936392.82347  21698135.154    21698141.931
       237.000         201.000
  22001837.870     4211510.95249   3296372.58947  22001838.044    22001845.586
       234.000         190.000
  22811109.944    -8971441.67649  -6957177.08945  22811110.307    22811117.373
       213.000         156.000
  24240647.208    18937715.09849  14761534.65445  24240648.578    24240659.437
       207.000         146.000
  20386170.594   -16382306.20349 -12746636.24948  20386170.598    20386176.039
       244.000         215.000
  21833592.150   -19660760.21549 -15286181.14147  21833591.939    21833596.561
       237.000         195.000
  23089791.419    -8259247.76349  -6411761.40846  23089791.800    23089798.130
       219.000         165.000
  24056038.034    -8324100.38849  -6452642.57045  24056037.372    24056046.170
       214.000         154.000
  22569124.452     4690994.69949   3678090.47346  22569124.280    22569131.316
       225.000         174.000
  23474136.435   -15957042.99349 -11978910.86745  23474136.793    23474143.246
       219.000         160.000
  23253689.365   -10498302.14849  -7743930.73046  23253689.326    23253698.477
       218.000         163.000
 03  4 15 19 56  0.0000000  0 11G17G30G26G 5G 6G21G29G15G10G18G23
  21691298.921   -15386893.75149 -11964388.55447  21691298.596    21691305.085
       238.000         201.000
  22018521.083     4299181.83249   3364687.46847  22018521.705    22018528.563
       234.000         189.000
  22796624.249    -9047564.29449  -7016493.30945  22796623.766    22796631.653
       213.000         155.000
  24260624.680    19042695.95949  14843337.55545  24260624.889    24260637.032
       211.000         146.000
  20382001.589   -16404214.33649 -12763707.52848  20382001.534    20382007.137
       244.000         215.000
  21825006.176   -19705879.74749 -15321339.19347  21825006.063    21825010.979
       238.000         195.000
  23082549.554    -8297303.83749  -6441415.40546  23082549.414    23082556.351
       220.000         168.000
  24042088.867    -8397402.37149  -6509760.88645  24042088.838    24042096.719
       213.000         154.000
  22586504.733     4782328.07149   3749259.29046  22586503.759    22586511.100
       224.000         174.000
  23454702.362   -16059169.27849 -12058489.58845  23454701.278    23454710.004
       219.000         160.000
  23235391.541   -10594457.51049  -7818856.79046  23235390.924    23235399.229
       218.000         164.000
 03  4 15 19 56 30.0000000  0 11G17G30G26G 5G 6G21G29G15G10G18G23
  21684493.564   -15422656.04349 -11992255.26147  21684493.068    21684500.037
       238.000         202.000
  22035257.766     4387133.41349   3433221.07947  22035258.488    22035264.796
       235.000         188.000
  22782195.014    -9123389.44749  -7075577.78345  22782195.115    22782204.256
       213.000         156.000
  24280598.706    19147657.35249  14925125.30045  24280598.951    24280610.222
       209.000         146.000
  20377903.388   -16425750.48549 -12780488.95248  20377903.311    20377908.945
       244.000         215.000
  21816453.426   -19750824.80049 -15356361.29147  21816453.164    21816458.099
       237.000         195.000
  23075386.640    -8334945.14849  -6470746.22246  23075386.472    23075393.413
       220.000         169.000
  24028160.509    -8470595.10749  -6566794.06645  24028159.341    24028168.479
       215.000         153.000
  22603937.703     4873938.84549   3820644.26146  22603937.080    22603943.827
       224.000         173.000
  23435305.551   -16161099.96549 -12137915.90145  23435304.766    23435313.383
       220.000         161.000
  23217140.571   -10690366.61949  -7893590.94946  23217139.769    23217148.933
       220.000         163.000
 03  4 15 19 57  0.0000000  0 11G17G30G26G 5G 6G21G29G15G10G18G23
  21677719.489   -15458254.09049 -12019993.98847  21677718.868    21677725.859
       238.000         202.000
  22052047.186     4475361.90149   3501970.44747  22052047.705    22052054.104
       235.000         188.000
  22767823.141    -9198914.49949  -7134428.41645  22767823.963    22767831.445
       217.000         159.000
  24300568.362    19252596.06449  15006895.36045  24300569.116    24300580.420
       211.000         147.000
  20373876.125   -16446913.86649 -12796979.91148  20373876.139    20373881.808
       244.000         215.000
  21807933.613   -19795596.36049 -15391248.20147  21807933.422    21807937.461
       237.000         195.000
  23068302.844    -8372170.33949  -6499752.80646  23068303.216    23068309.911
       217.000         168.000
  24014253.022    -8543679.40049  -6623742.76245  24014252.989    24014261.619
       215.000         153.000
  22621422.796     4965823.41249   3892242.56746  22621422.385    22621429.527
       224.000         173.000
  23415946.148   -16262833.78549 -12217188.81545  23415945.248    23415954.229
       220.000         161.000
  23198936.636   -10786028.13349  -7968132.19946  23198935.261    23198944.264
       216.000         163.000
 03  4 15 19 57 30.0000000  0 11G17G30G26G 5G 6G21G29G15G10G18G23
  21670976.482   -15493688.62649 -12047605.30047  21670975.786    21670982.561
       238.000         202.000
  22068888.700     4563864.38649   3570933.33647  22068888.966    22068896.360
       233.000         188.000
  22753509.006    -9274136.02349  -7193042.51045  22753509.113    22753516.781
       215.000         159.000
  24320533.085    19357509.66049  15088645.85745  24320532.476    24320544.866
       211.000         146.000
  20369920.126   -16467702.69649 -12813179.00848  20369920.078    20369925.680
       244.000         215.000
  21799446.899   -19840194.51649 -15425999.98147  21799446.537    21799451.296
       238.000         195.000
  23061298.641    -8408976.99949  -6528433.23146  23061298.415    23061305.749
       219.000         167.000
  24000366.087    -8616655.39449  -6680607.05745  24000365.223    24000375.201
       215.000         153.000
  22638959.511     5057979.32449   3964052.32646  22638959.584    22638965.021
       223.000         172.000
  23396624.636   -16364368.15649 -12296306.32045  23396623.744    23396632.492
       218.000         162.000
  23180780.027   -10881439.94849  -8042478.89846  23180778.931    23180788.731
       217.000         163.000
 03  4 15 19 58  0.0000000  0 11G17G30G26G 5G 6G21G29G15G10G18G23
  21664264.596   -15528959.53349 -12075089.11447  21664263.912    21664270.869
       238.000         202.000
  22085781.739     4652638.15049   3640107.60147  22085782.481    22085789.219
       235.000         188.000
  22739253.141    -9349050.08149  -7251417.01045  22739252.993    22739262.108
       216.000         159.000
  24340492.430    19462395.59449  15170374.81145  24340492.658    24340505.349
       211.000         145.000
  20366035.793   -16488115.16849 -12829084.83748  20366035.787    20366041.158
       244.000         215.000
  21790993.102   -19884619.54849 -15460616.86547  21790992.480    21790997.818
       238.000         195.000
  23054374.616    -8445362.87949  -6556785.80546  23054373.899    23054381.615
       220.000         169.000
  23986499.737    -8689522.74849  -6737386.71245  23986499.462    23986508.162
       214.000         152.000
  22656547.333     5150403.79349   4036071.33946  22656546.669    22656554.111
       223.000         171.000
  23377341.373   -16465701.31249 -12375267.03845  23377341.153    23377348.782
       219.000         162.000
  23162671.520   -10976599.76349  -8116629.23445  23162671.076    23162680.194
       218.000         162.000
 03  4 15 19 58 30.0000000  0 11G17G30G26G 5G 6G21G29G15G10G18G23
  21657583.772   -15564067.36249 -12102445.84747  21657583.097    21657589.623
       237.000         202.000
  22102726.007     4741680.11449   3709490.84747  22102727.050    22102733.232
       235.000         188.000
  22725056.509    -9423653.44649  -7309549.43945  22725057.310    22725065.115
       215.000         160.000
  24360445.979    19567251.34149  15252080.20845  24360447.173    24360459.126
       212.000         146.000
  20362223.332   -16508149.75149 -12844696.20748  20362223.266    20362228.728
       244.000         215.000
  21782572.192   -19928871.69649 -15495099.04347  21782571.579    21782576.326
       238.000         196.000
  23047531.000    -8481325.85349  -6584808.84246  23047530.507    23047537.459
       220.000         169.000
  23972654.127    -8762281.51949  -6794081.74545  23972652.198    23972661.550
       213.000         151.000
  22674185.796     5243093.72749   4108297.21146  22674185.348    22674191.938
       222.000         170.000
  23358096.743   -16566831.26049 -12454069.44045  23358096.007    23358103.942
       218.000         162.000
  23144611.415   -11071505.66649  -8190581.71445  23144611.339    23144619.809
       218.000         162.000
 03  4 15 19 59  0.0000000  0 11G17G30G26G 5G 6G21G29G15G10G18G23
  21650934.000   -15599011.71849 -12129675.20847  21650933.311    21650940.371
       238.000         202.000
  22119720.861     4830987.63049   3779081.02147  22119722.105    22119727.915
       235.000         188.000
  22710919.849    -9497942.33049  -7367436.78145  22710920.177    22710928.072
       219.000         161.000
  24380393.496    19672074.89449  15333760.55145  24380393.535    24380407.558
       213.000         145.000
  20358483.155   -16527804.48349 -12860011.58748  20358483.205    20358488.567
       245.000         215.000
  21774184.185   -19972950.99749 -15529446.52147  21774183.746    21774188.183
       238.000         196.000
  23040768.310    -8516863.51949  -6612500.48046  23040768.058    23040775.231
       220.000         168.000
  23958829.118    -8834931.48949  -6850692.00245  23958828.288    23958836.158
       213.000         150.000
  22691874.163     5336046.80649   4180728.12046  22691873.973    22691879.446
       222.000         169.000
  23338891.340   -16667755.30249 -12532711.38345  23338891.062    23338899.047
       220.000         162.000
  23126600.142   -11166155.31849  -8264334.53046  23126598.879    23126608.216
       219.000         163.000
 03  4 15 19 59 30.0000000  0 11G17G30G26G 5G 6G21G29G15G10G18G23
  21644314.965   -15633794.72449 -12156778.83547  21644314.643    21644321.736
       238.000         202.000
  22136765.501     4920557.03849   3848875.26746  22136766.056    22136772.519
       234.000         187.000
  22696843.551    -9571913.94049  -7425076.91145  22696843.362    22696851.204
       219.000         162.000
  24400334.119    19776862.83349  15415413.13445  24400334.560    24400347.559
       211.000         144.000
  20354815.413   -16547078.67049 -12875030.45248  20354815.365    20354821.060
       244.000         215.000
  21765828.850   -20016858.40549 -15563660.06647  21765828.441    21765833.222
       238.000         196.000
  23034086.909    -8551974.56149  -6639859.69746  23034087.153    23034093.951
       222.000         168.000
  23945024.905    -8907473.68149  -6907218.26045  23945023.925    23945033.526
       212.000         149.000
  22709611.856     5429259.44449   4253361.29546  22709611.043    22709617.663
       221.000         169.000
  23319725.554   -16768472.10549 -12611191.83945  23319725.480    23319733.003
       220.000         162.000
  23108637.880   -11260547.49149  -8337886.72146  23108636.994    23108647.281
       218.000         163.000
 03  4 15 20  0  0.0000000  0 11G17G30G26G 5G 6G21G29G15G10G18G23
  21637726.864   -15668415.78149 -12183756.26847  21637726.704    21637733.494
       238.000         202.000
  22153859.422     5010385.78249   3918871.58946  22153859.682    22153867.159
       233.000         187.000
  22682828.125    -9645564.53649  -7482466.89845  22682827.735    22682836.527
       215.000         162.000
  24420267.652    19881613.21449  15497036.45745  24420268.270    24420280.330
       213.000         144.000
  20351220.460   -16565970.15849 -12889751.10248  20351220.583    20351226.206
       244.000         215.000
  21757506.222   -20060593.76949 -15597739.55547  21757505.662    21757511.055
       237.000         196.000
  23027487.227    -8586656.42049  -6666884.50946  23027487.192    23027493.147
       222.000         170.000
  23931241.119    -8979907.54349  -6963660.11745  23931239.588    23931248.003
       209.000         147.000
  22727398.577     5522729.42849   4326195.00146  22727398.090    22727404.186
       220.000         168.000
  23300599.593   -16868979.31249 -12689508.99645  23300599.680    23300606.914
       219.000         162.000
  23090724.884   -11354679.60849  -8411236.28446  23090723.465    23090733.553
       218.000         163.000
 03  4 15 20  0 30.0000000  0 11G17G30G26G 5G 6G21G29G15G10G18G23
  21631169.367   -15702875.80049 -12210608.21547  21631168.893    21631175.694
       238.000         203.000
  22171001.905     5100470.57749   3989067.44446  22171002.354    22171009.248
       233.000         186.000
  22668874.456    -9718890.85949  -7539604.20345  22668874.944    22668882.570
       217.000         162.000
  24440193.545    19986323.27349  15578628.34645  24440193.736    24440207.184
       211.000         144.000
  20347698.638   -16584477.61749 -12904172.50648  20347698.801    20347704.345
       244.000         216.000
  21749216.185   -20104157.63249 -15631685.40647  21749215.322    21749221.070
       236.000         196.000
  23020969.607    -8620907.06149  -6693573.27846  23020969.285    23020976.601
       222.000         170.000
  23917477.499    -9052233.46949  -7020017.87445  23917476.086    23917486.217
       210.000         146.000
  22745233.639     5616453.56149   4399226.75646  22745232.503    22745240.554
       219.000         167.000
  23281513.991   -16969274.97349 -12767661.32946  23281513.574    23281521.290
       221.000         163.000
  23072861.624   -11448549.91649  -8484381.83846  23072860.271    23072869.680
       218.000         163.000
 03  4 15 20  1  0.0000000  0 11G17G30G26G 5G 6G21G29G15G10G18G23
  21624642.354   -15737175.45649 -12237335.20847  21624641.962    21624648.703
       238.000         203.000
  22188192.619     5190808.08849   4059460.20046  22188193.114    22188200.756
       234.000         186.000
  22654983.358    -9791889.57349  -7596486.22746  22654983.761    22654991.330
       219.000         164.000
  24460111.330    20090989.95549  15660186.41145  24460111.767    24460125.271
       212.000         144.000
  20344250.089   -16602599.83549 -12918293.72948  20344250.139    20344255.661
       245.000         215.000
  21740958.709   -20147550.65649 -15665498.13047  21740958.258    21740963.313
       237.000         196.000
  23014534.232    -8654724.90149  -6719924.80146  23014533.370    23014540.490
       220.000         168.000
  23903734.766    -9124451.97549  -7076291.92545  23903734.289    23903744.132
       214.000         147.000
  22763116.501     5710428.51849   4472453.94646  22763115.873    22763122.502
       219.000         166.000
  23262468.867   -17069357.67549 -12845647.70846  23262468.448    23262476.167
       221.000         163.000
  23055048.637   -11542156.74449  -8557322.09346  23055048.042    23055057.329
       220.000         163.000
 03  4 15 20  1 30.0000000  0 11G17G30G26G 5G 6G21G29G15G10G18G23
  21618145.724   -15771315.22549 -12263937.61747  21618145.369    21618151.815
       238.000         203.000
  22205430.865     5281395.25949   4130047.50946  22205431.000    22205438.496
       233.000         185.000
  22641155.169    -9864557.44849  -7653110.47346  22641154.515    22641163.192
       216.000         166.000
  24480020.389    20195610.85849  15741708.82945  24480020.804    24480033.233
       209.000         142.000
  20340875.193   -16620335.17649 -12932113.49148  20340875.345    20340880.748
       245.000         215.000
  21732733.776   -20190773.03249 -15699177.88247  21732733.302    21732738.515
       237.000         196.000
  23008181.463    -8688107.86649  -6745937.49646  23008180.948    23008188.221
       219.000         168.000
  23890012.800    -9196563.02049  -7132482.21645  23890012.429    23890019.465
       213.000         147.000
  22781046.512     5804651.48549   4545874.39446  22781045.800    22781052.909
       218.000         165.000
  23243464.810   -17169225.10549 -12923466.35346  23243464.065    23243471.127
       223.000         164.000
  23037286.461   -11635498.12849  -8630055.50646  23037286.119    23037295.386
       220.000         164.000
 03  4 15 20  2  0.0000000  0 11G17G30G26G 5G 6G21G29G15G10G18G23
  21611679.590   -15805295.02649 -12290415.36647  21611678.996    21611685.644
       239.000         203.000
  22222716.002     5372229.77949   4200827.55946  22222716.164    22222723.957
       233.000         185.000
  22627390.532    -9936890.38749  -7709473.71746  22627389.814    22627397.930
       216.000         164.000
  24499920.414    20300184.42049  15823194.33645  24499919.679    24499933.081
       211.000         142.000
  20337574.359   -16637681.46349 -12945630.08548  20337574.450    20337579.827
       245.000         215.000
  21724541.294   -20233824.51549 -15732724.47747  21724540.993    21724545.753
       237.000         196.000
  23001912.202    -8721053.07149  -6771609.09146  23001911.898    23001918.949
       220.000         170.000
  23876310.900    -9268566.10649  -7188588.39745  23876310.114    23876318.620
       212.000         147.000
  22799023.343     5899120.46149   4619486.53746  22799022.795    22799029.842
       218.000         164.000
  23224502.242   -17268874.64849 -13001115.22646  23224502.821    23224507.639
       221.000         165.000
  23019575.194   -11728571.54249  -8702580.10746  23019574.170    23019584.083
       219.000         165.000
 03  4 15 20  2 30.0000000  0 11G17G30G26G 5G 6G21G29G15G10G18G23
  21605243.797   -15839115.18049 -12316768.72647  21605243.381    21605250.011
       238.000         203.000
  22240047.812     5463308.76049   4271798.08646  22240048.725    22240055.705
       233.000         185.000
  22613690.300   -10008884.98149  -7765573.27746  22613690.498    22613698.476
       216.000         163.000
  24519810.872    20404707.97549  15904640.87345  24519811.748    24519823.677
       208.000         142.000
  20334347.809   -16654637.27249 -12958842.40948  20334347.694    20334353.287
       244.000         215.000
  21716381.442   -20276705.25049 -15766138.01647  21716381.272    21716385.616
       239.000         197.000
  22995726.552    -8753558.91149  -6796938.29546  22995726.640    22995732.712
       223.000         170.000
  23862629.567    -9340461.44649  -7244610.62345  23862628.306    23862637.250
       212.000         148.000
  22817046.523     5993832.68649   4693288.23046  22817046.198    22817052.684
       219.000         164.000
  23205581.133   -17368304.39349 -13078592.81846  23205580.281    23205587.492
       222.000         164.000
  23001915.129   -11821375.05349  -8774894.40646  23001914.326    23001923.192
       221.000         165.000
 03  4 15 20  3  0.0000000  0 11G17G30G26G 5G 6G21G29G15G10G18G23
  21598838.161   -15872776.66349 -12342998.44247  21598837.896    21598844.494
       239.000         203.000
  22257425.568     5554628.76549   4342956.42946  22257426.404    22257433.936
       233.000         185.000
  22600055.042   -10080538.10349  -7821406.78946  22600054.558    22600064.355
       215.000         164.000
  24539691.208    20509178.76949  15986046.31445  24539692.335    24539703.972
       207.000         141.000
  20331195.744   -16671201.27649 -12971749.44248  20331195.886    20331201.155
       244.000         215.000
  21708253.952   -20319415.90849 -15799419.02747  21708253.659    21708258.319
       239.000         197.000
  22989624.964    -8785623.37549  -6821923.54246  22989625.024    22989630.949
       223.000         168.000
  23848968.559    -9412249.66149  -7300549.37045  23848967.963    23848975.997
       215.000         148.000
  22835115.373     6088784.97249   4767276.98046  22835114.719    22835121.585
       220.000         164.000
  23186702.260   -17467512.50749 -13155897.72146  23186701.511    23186708.676
       222.000         164.000
  22984306.754   -11913906.88949  -8846997.01446  22984305.626    22984315.541
       220.000         165.000
 03  4 15 20  3 30.0000000  0 11G17G30G26G 5G 6G21G29G15G10G18G23
  21592462.728   -15906279.94149 -12369104.88047  21592462.299    21592469.081
       239.000         203.000
  22274848.566     5646186.69649   4414300.16846  22274848.723    22274856.430
       232.000         185.000
  22586485.305   -10151846.36749  -7876971.63146  22586485.412    22586493.735
       215.000         164.000
  24559560.983    20613594.18649  16067408.59245  24559560.180    24559574.664
       208.000         140.000
  20328118.591   -16687371.88649 -12984349.92848  20328118.546    20328124.229
       244.000         215.000
  21700158.650   -20361956.94949 -15832567.88247  21700158.423    21700163.134
       238.000         197.000
  22983607.641    -8817244.76549  -6846563.54746  22983607.560    22983613.751
       222.000         168.000
  23835328.112    -9483930.76349  -7356404.67445  23835327.856    23835335.326
       216.000         150.000
  22853229.462     6183974.43449   4841450.52746  22853229.648    22853236.499
       220.000         165.000
  23167866.067   -17566497.09949 -13233028.45646  23167865.760    23167873.412
       221.000         165.000
  22966750.424   -12006165.25749  -8918886.52346  22966749.300    22966758.928
       221.000         166.000
 03  4 15 20  4  0.0000000  0 11G17G30G26G 5G 6G21G29G15G10G18G23
  21586117.394   -15939625.05749 -12395088.07947  21586116.832    21586123.880
       239.000         204.000
  22292316.302     5737979.88549   4485827.22046  22292316.730    22292324.618
       232.000         184.000
  22572982.033   -10222806.29649  -7932264.98646  22572981.980    22572989.681
       217.000         165.000
  24579419.879    20717952.02349  16148725.99645  24579420.561    24579433.551
       205.000         140.000
  20325116.594   -16703147.42149 -12996642.56548  20325116.665    20325122.037
       244.000         215.000
  21692095.722   -20404328.32149 -15865584.51247  21692095.145    21692099.574
       239.000         197.000
  22977675.007    -8848420.88249  -6870856.61846  22977674.877    22977681.677
       221.000         168.000
  23821708.267    -9555504.39049  -7412176.22345  23821707.235    23821715.703
       215.000         150.000
  22871388.175     6279398.37049   4915806.79046  22871387.718    22871394.603
       220.000         166.000
  23149072.713   -17665255.86749 -13309983.22246  23149072.521    23149079.096
       223.000         166.000
  22949246.505   -12098148.09049  -8990561.33946  22949245.408    22949255.790
       220.000         166.000
 03  4 15 20  4 30.0000000  0 12G17G16G30G26G 5G 6G21G29G15G10G18G23
  21579800.946   -15972818.32049 -12420952.94847  21579800.295    21579807.552
       238.000         204.000
  24745896.839    -3695868.85259  -2442437.60744  24745894.983    24745902.768
       201.000         131.000
  22309827.004     5829999.34549   4557530.59746  22309827.638    22309835.424
       231.000         184.000
  22559544.534   -10293420.33249  -7987288.81646  22559544.832    22559552.066
       219.000         164.000
  24599266.218    20822243.91649  16229991.99845  24599266.552    24599281.446
       203.000         139.000
  20322188.938   -16718532.36049 -13008630.84148  20322188.951    20322194.439
       244.000         215.000
  21684063.851   -20446536.04849 -15898473.63747  21684063.285    21684068.115
       238.000         197.000
  22971826.322    -8879155.43149  -6894805.61746  22971826.945    22971832.599
       222.000         168.000
  23808107.211    -9626976.53949  -7467868.70945  23808105.472    23808114.967
       214.000         150.000
  22889589.838     6375048.31849   4990339.16046  22889589.467    22889596.248
       221.000         166.000
  23130321.714   -17763792.80749 -13386765.13646  23130320.712    23130329.131
       223.000         166.000
  22931794.343   -12189859.16849  -9062024.39946  22931793.919    22931803.364
       221.000         166.000
 03  4 15 20  5  0.0000000  0 12G17G16G30G26G 5G 6G21G29G15G10G18G23
  21573514.755   -16005852.25649 -12446693.66847  21573514.427    21573521.103
       239.000         204.000
  24731015.100    -3774072.84149  -2503375.77345  24731015.534    24731021.561
       206.000         133.000
  22327381.813     5922249.86249   4629414.00146  22327382.944    22327389.459
       232.000         183.000
  22546175.097   -10363677.39049  -8042034.48346  22546175.468    22546182.683
       217.000         163.000
  24619100.976    20926475.12649  16311210.72845  24619100.851    24619116.105
       204.000         139.000
  20319337.417   -16733517.37849 -13020307.48748  20319337.475    20319343.039
       244.000         215.000
  21676064.604   -20488571.95849 -15931228.87847  21676064.403    21676068.943
       238.000         197.000
  22966063.563    -8909439.00549  -6918403.18746  22966063.825    22966070.038
       224.000         171.000
  23794526.986    -9698339.71349  -7523476.26645  23794526.312    23794535.503
       216.000         151.000
  22907835.471     6470929.22449   5065051.51546  22907835.436    22907842.056
       222.000         166.000
  23111614.729   -17862098.20049 -13463366.61846  23111613.753    23111621.664
       222.000         166.000
  22914395.732   -12281288.83049  -9133268.17446  22914394.924    22914404.934
       220.000         166.000
 03  4 15 20  5 30.0000000  0 12G17G16G30G26G 5G 6G21G29G15G10G18G23
  21567258.762   -16038727.91949 -12472311.05347  21567258.298    21567265.096
       239.000         204.000
  24716202.032    -3851916.51049  -2564033.15445  24716203.029    24716208.170
       207.000         134.000
  22344980.047     6014727.96249   4701474.75746  22344980.732    22344987.541
       231.000         183.000
  22532874.085   -10433574.23249  -8096499.46745  22532874.186    22532881.387
       218.000         162.000
  24638923.779    21030642.82749  16392379.97745  24638924.058    24638937.962
       203.000         138.000
  20316562.271   -16748101.15949 -13031671.48248  20316562.357    20316567.651
       244.000         215.000
  21668097.592   -20530438.73449 -15963852.32647  21668096.879    21668101.739
       238.000         197.000
  22960387.027    -8939269.86949  -6941647.99546  22960386.835    22960393.775
       225.000         173.000
  23780967.698    -9769594.52349  -7578999.38145  23780967.179    23780974.707
       217.000         151.000
  22926124.417     6567037.83249   5139941.28346  22926123.795    22926130.312
       223.000         167.000
  23092951.929   -17960170.44449 -13539786.44546  23092951.013    23092958.856
       223.000         167.000
  22897050.859   -12372435.54049  -9204291.47146  22897050.492    22897060.393
       221.000         168.000
 03  4 15 20  6  0.0000000  0 12G17G16G30G26G 5G 6G21G29G15G10G18G23
  21561032.735   -16071445.83249 -12497805.52147  21561032.418    21561039.076
       239.000         204.000
  24701457.927    -3929397.74549  -2624408.13145  24701457.107    24701463.198
       206.000         134.000
  22362620.731     6107430.47149   4773710.37246  22362620.940    22362628.908
       231.000         183.000
  22519642.269   -10503107.87049  -8150681.46146  22519643.026    22519650.130
       220.000         164.000
  24658733.990    21134744.48649  16473497.74045  24658734.224    24658748.999
       203.000         138.000
  20313863.621   -16762282.64149 -13042722.00248  20313863.535    20313869.156
       244.000         215.000
  21660162.844   -20572135.78449 -15996343.52847  21660162.272    21660167.500
       237.000         197.000
  22954796.885    -8968646.38349  -6964538.77446  22954796.395    22954803.633
       223.000         172.000
  23767428.910    -9840741.25649  -7634438.28645  23767428.192    23767436.686
       215.000         152.000
  22944456.091     6663371.20749   5215006.21346  22944456.074    22944462.410
       222.000         166.000
  23074334.056   -18058007.71149 -13616023.16846  23074334.471    23074340.135
       224.000         167.000
  22879760.434   -12463297.69349  -9275093.04246  22879760.172    22879768.537
       223.000         168.000
 03  4 15 20  6 30.0000000  0 12G17G16G30G26G 5G 6G21G29G15G10G18G23
  21554836.595   -16104007.19849 -12523178.00647  21554836.187    21554843.133
       239.000         205.000
  24686783.003    -4006514.96749  -2684499.47345  24686783.346    24686789.028
       207.000         134.000
  22380303.420     6200353.70349   4846117.98246  22380303.688    22380311.827
       230.000         183.000
  22506480.143   -10572275.73449  -8204578.43946  22506479.588    22506486.595
       219.000         163.000
  24678530.996    21238776.96249  16554561.61045  24678530.929    24678545.312
       201.000         138.000
  20311241.717   -16776060.96349 -13053458.37748  20311241.700    20311247.356
       244.000         215.000
  21652260.239   -20613663.79349 -16028703.00747  21652260.222    21652264.842
       238.000         198.000
  22949293.234    -8997567.57949  -6987074.72946  22949293.135    22949299.393
       220.000         169.000
  23753910.505    -9911780.87749  -7689793.72545  23753909.770    23753918.967
       214.000         153.000
  22962829.793     6759925.76949   5290243.48146  22962829.304    22962834.979
       222.000         166.000
  23055761.276   -18155608.47449 -13692075.58846  23055761.668    23055768.009
       225.000         168.000
  22862524.453   -12553874.03549  -9345671.88446  22862523.394    22862532.119
       223.000         168.000
 03  4 15 20  7  0.0000000  0 12G17G16G30G26G 5G 6G21G29G15G10G18G23
  21548670.055   -16136412.84449 -12548429.15247  21548669.576    21548676.364
       239.000         205.000
  24672177.637    -4083266.24649  -2744305.66045  24672176.887    24672183.108
       208.000         134.000
  22398027.506     6293494.27249   4918694.93846  22398027.958    22398036.127
       230.000         183.000
  22493387.953   -10641074.74349  -8258187.99345  22493386.543    22493395.141
       218.000         160.000
  24698314.362    21342737.39649  16635569.35345  24698314.683    24698329.108
       201.000         138.000
  20308696.708   -16789435.06049 -13063879.76848  20308696.792    20308702.336
       244.000         215.000
  21644389.794   -20655023.65549 -16060931.45947  21644389.411    21644394.159
       237.000         198.000
  22943876.623    -9026031.66249  -7009254.51246  22943877.174    22943883.050
       223.000         169.000
  23740412.256    -9982713.70649  -7745065.95245  23740411.525    23740419.536
       212.000         152.000
  22981245.014     6856698.34349   5365650.62246  22981244.985    22981251.918
       223.000         167.000
  23037233.687   -18252971.29049 -13767942.61946  23037233.325    23037241.150
       225.000         169.000
  22845342.976   -12644162.98849  -9416026.80946  22845342.139    22845351.302
       221.000         169.000
 03  4 15 20  7 30.0000000  0 12G17G16G30G26G 5G 6G21G29G15G10G18G23
  21542533.024   -16168663.01249 -12573559.15047  21542532.675    21542538.722
       239.000         205.000
  24657642.495    -4159649.11149  -2803824.76445  24657643.309    24657647.786
       210.000         134.000
  22415792.480     6386849.33549   4991439.02646  22415793.329    22415800.877
       231.000         182.000
  22480366.701   -10709501.33949  -8311507.36145  22480365.986    22480374.129
       219.000         162.000
  24718083.632    21446623.56949  16716519.21645  24718085.396    24718098.530
       201.000         137.000
  20306228.969   -16802403.18049 -13073984.80248  20306228.900    20306234.706
       244.000         215.000
  21636551.250   -20696215.26749 -16093028.80647  21636551.217    21636555.298
       238.000         197.000
  22938547.559    -9054036.85049  -7031076.71546  22938547.254    22938554.683
       225.000         175.000
  23726934.277   -10053539.76349  -7800254.97045  23726933.276    23726940.888
       215.000         153.000
  22999701.291     6953686.53149   5441225.77446  22999701.468    22999707.344
       223.000         166.000
  23018751.618   -18350094.40549 -13843622.86246  23018750.581    23018758.606
       223.000         169.000
  22828216.391   -12734162.63749  -9486156.29646  22828215.925    22828225.343
       221.000         169.000
 03  4 15 20  8  0.0000000  0 12G17G16G30G26G 5G 6G21G29G15G10G18G23
  21536425.211   -16200759.68849 -12598569.53847  21536424.673    21536431.016
       239.000         204.000
  24643177.395    -4235663.30749  -2863056.60645  24643177.813    24643184.146
       210.000         134.000
  22433597.506     6480413.98849   5064346.42846  22433598.543    22433605.278
       229.000         182.000
  22467416.672   -10777554.00249  -8364535.33046  22467416.691    22467424.741
       220.000         165.000
  24737837.811    21550431.07849  16797407.78345  24737838.661    24737852.116
       204.000         137.000
  20303838.322   -16814965.90649 -13083773.94248  20303838.055    20303844.047
       243.000         215.000
  21628744.484   -20737240.12849 -16124996.21447  21628744.022    21628748.914
       238.000         198.000
  22933305.725    -9081582.95249  -7052541.14546  22933305.683    22933312.941
       224.000         178.000
  23713476.616   -10124260.93649  -7855362.23745  23713475.622    23713484.213
       217.000         154.000
  23018197.811     7050885.79849   5516965.40446  23018197.434    23018203.381
       223.000         166.000
  23000315.130   -18446977.37349 -13919115.98446  23000315.233    23000322.358
       223.000         168.000
  22811144.982   -12823872.82349  -9556060.23146  22811144.453    22811153.125
       222.000         169.000
 03  4 15 20  8 30.0000000  0 12G17G16G30G26G 5G 6G21G29G15G10G18G23
  21530346.876   -16232701.34449 -12623459.13447  21530346.381    21530353.261
       239.000         204.000
  24628783.381    -4311304.28349  -2921997.63545  24628782.888    24628788.362
       210.000         135.000
  22451442.123     6574187.39949   5137416.50546  22451442.400    22451450.017
       229.000         181.000
  22454538.752   -10845227.28749  -8417267.68446  22454538.566    22454546.523
       221.000         165.000
  24757577.033    21654159.80549  16878234.96445  24757578.075    24757592.324
       204.000         138.000
  20301525.515   -16827119.63249 -13093244.39048  20301525.456    20301531.129
       243.000         215.000
  21620969.448   -20778098.09249 -16156833.58047  21620969.055    21620973.971
       238.000         198.000
  22928151.791    -9108666.37749  -7073645.05846  22928151.351    22928157.355
       223.000         175.000
  23700039.037   -10194875.10949  -7910386.15445  23700037.396    23700046.424
       213.000         155.000
  23036734.192     7148295.38149   5592868.91246  23036734.021    23036740.294
       223.000         166.000
  22981925.290   -18543616.03749 -13994418.73846  22981925.304    22981931.881
       225.000         169.000
  22794129.628   -12913289.63749  -9625735.57046  22794128.953    22794138.367
       224.000         170.000
 03  4 15 20  9  0.0000000  0 12G17G16G30G26G 5G 6G21G29G15G10G18G23
  21524297.922   -16264488.76649 -12648228.55647  21524297.559    21524304.030
       239.000         204.000
  24614460.785    -4386569.98549  -2980646.23345  24614460.364    24614466.993
       209.000         135.000
  22469325.538     6668166.15649   5210646.59246  22469325.650    22469333.976
       228.000         181.000
  22441733.658   -10912518.21849  -8469702.14546  22441734.161    22441741.602
       222.000         166.000
  24777300.714    21757807.01749  16958998.62345  24777300.312    24777315.838
       205.000         138.000
  20299290.812   -16838863.19049 -13102395.22948  20299290.833    20299296.366
       244.000         215.000
  21613226.313   -20818788.56249 -16188540.42847  21613225.955    21613230.623
       239.000         198.000
  22923086.341    -9135285.39449  -7094387.12346  22923086.028    22923092.105
       220.000         171.000
  23686621.618   -10265382.75649  -7965327.06045  23686621.233    23686628.969
       216.000         154.000
  23055310.145     7245912.28949   5668933.97146  23055309.671    23055316.790
       223.000         165.000
  22963582.400   -18640008.80149 -14069529.87446  22963581.963    22963589.774
       225.000         170.000
  22777170.399   -13002411.40549  -9695180.98346  22777170.023    22777178.931
       224.000         171.000
 03  4 15 20  9 30.0000000  0 12G17G16G30G26G 5G 6G21G29G15G10G18G23
  21518278.124   -16296123.26349 -12672878.79947  21518277.846    21518284.083
       239.000         204.000
  24600209.872    -4461459.11449  -3039001.38445  24600207.960    24600217.125
       209.000         135.000
  22487247.560     6762346.49549   5284033.74146  22487248.682    22487256.103
       230.000         181.000
  22429002.017   -10979424.19349  -8521836.60846  22429002.425    22429008.761
       223.000         167.000
  24797008.368    21861369.49849  17039696.26745  24797008.968    24797023.948
       205.000         139.000
  20297134.273   -16850195.98749 -13111225.98848  20297134.276    20297139.831
       244.000         215.000
  21605514.842   -20859312.71249 -16220117.67147  21605514.364    21605519.061
       239.000         198.000
  22918109.343    -9161439.16449  -7114766.61446  22918108.783    22918115.393
       220.000         169.000
  23673224.494   -10335784.96949  -8020185.79845  23673223.928    23673232.039
       216.000         154.000
  23073924.837     7343732.85349   5745157.74346  23073923.995    23073929.912
       223.000         165.000
  22945286.407   -18736154.83749 -14144448.75246  22945285.150    22945294.083
       226.000         171.000
  22760267.335   -13091237.20649  -9764395.79446  22760265.986    22760275.736
       223.000         171.000
 03  4 15 20 10  0.0000000  0 12G17G16G30G26G 5G 6G21G29G15G10G18G23
  21512287.440   -16327604.47849 -12697409.60547  21512287.213    21512293.484
       240.000         204.000
  24586031.060    -4535968.99949  -3097061.04345  24586030.775    24586036.698
       209.000         137.000
  22505207.508     6856726.09349   5357576.16146  22505208.678    22505216.583
       229.000         181.000
  22416344.205   -11045941.28349  -8573668.01746  22416344.348    22416351.944
       223.000         168.000
  24816699.429    21964845.64949  17120326.63545  24816700.506    24816715.311
       205.000         139.000
  20295056.322   -16861115.73349 -13119734.88548  20295056.265    20295061.937
       244.000         215.000
  21597835.056   -20899670.00349 -16251564.90047  21597834.280    21597840.184
       238.000         198.000
  22913221.386    -9187124.98349  -7134781.49346  22913221.837    22913227.337
       223.000         170.000
  23659847.563   -10406080.95449  -8074961.79445  23659846.769    23659855.121
       216.000         154.000
  23092577.944     7441755.15949   5821538.70946  23092577.831    23092584.470
       222.000         165.000
  22927037.856   -18832051.31749 -14219173.17546  22927036.963    22927044.429
       225.000         172.000
  22743420.866   -13179764.53649  -9833378.03446  22743420.468    22743428.818
       223.000         171.000
